GFSNGP_sfc_thetae_000.txt.gz
Theta_e
286 287 287 286 286 288 286 285 282 284 284 287 290 290 291 292 291 291 291 290 290 288 285 287 288 286 286 286 286 286 285 285 286 287 287 287 287 287 287 287 289 286 286 283
284 287 286 285 286 286 286 286 286 285 286 291 291 292 291 291 291 290 290 291 290 288 287 287 286 285 285 285 285 286 285 285 287 288 288 287 287 287 287 290 286 283 280 281
277 282 281 278 284 286 286 287 287 284 288 291 290 291 291 291 291 290 290 291 290 289 286 285 285 285 284 284 285 285 285 286 287 287 287 286 286 286 286 285 284 283 281 281
275 276 271 284 288 289 288 289 291 289 290 292 292 291 292 292 292 290 290 290 289 287 284 283 284 284 284 284 284 284 285 285 286 286 286 285 285 285 285 285 284 279 280 280
275 274 280 284 290 289 288 287 292 291 290 291 291 291 291 293 292 291 290 289 289 287 283 282 283 283 283 283 283 284 284 284 285 286 285 285 284 284 284 284 281 281 281 279
272 271 270 283 288 293 291 283 293 292 290 290 290 282 291 292 292 291 290 288 286 284 283 282 283 283 283 283 283 283 284 284 285 285 284 284 283 282 282 280 280 280 279 277
270 270 278 285 291 293 283 285 293 293 292 290 288 291 291 291 291 290 288 285 285 284 284 283 284 284 283 283 283 284 285 284 284 284 283 283 282 281 279 279 278 277 277 276
275 270 276 290 291 287 291 290 293 293 292 292 291 290 291 293 288 285 285 285 284 284 284 284 284 283 283 282 284 284 284 283 283 283 283 283 280 278 279 277 276 274 269 272
282 282 289 291 292 293 293 292 293 293 294 295 291 292 294 287 286 284 284 284 284 284 284 284 284 283 282 283 284 283 283 283 283 283 282 282 279 277 277 275 273 273 275 270
286 290 291 292 294 295 296 295 295 295 295 294 293 293 287 284 284 284 284 284 284 283 282 282 283 283 283 283 283 282 283 282 282 281 282 282 280 279 277 273 272 275 273 272
286 291 291 294 295 296 297 297 296 296 296 295 292 287 286 285 285 284 284 284 284 283 282 282 283 283 283 283 282 282 283 283 282 280 281 281 279 279 278 278 276 274 273 272
285 292 291 292 294 296 296 297 296 295 293 289 288 286 286 285 285 285 284 283 283 283 282 283 282 282 282 282 282 281 283 284 282 283 284 281 280 280 283 282 282 282 281 273
292 293 294 294 296 297 297 296 296 293 287 287 287 287 286 286 285 285 284 283 283 282 282 282 281 281 282 282 281 282 283 284 283 283 283 280 278 277 275 277 281 283 283 282
297 296 294 294 296 296 297 294 289 287 288 287 287 287 286 285 284 284 283 284 283 283 282 281 281 281 283 283 282 284 284 283 282 281 280 280 278 277 275 271 270 271 276 281
297 297 295 296 291 287 287 287 286 286 287 286 288 287 285 283 283 284 284 284 283 282 282 282 281 281 283 282 282 284 284 283 281 279 271 273 274 273 274 273 273 271 268 272
294 294 293 287 286 287 287 287 286 285 285 288 288 284 284 284 284 284 284 283 280 280 281 276 277 281 282 282 283 284 285 283 280 279 277 272 271 275 275 273 274 272 269 269
290 287 286 286 286 288 287 287 286 287 289 288 285 283 283 282 280 282 282 279 276 275 277 276 278 281 282 283 284 285 285 284 279 275 278 280 277 273 273 271 275 273 270 266
290 290 291 290 288 287 287 287 287 287 285 285 282 279 277 275 279 278 276 274 271 275 277 279 279 280 282 283 284 282 283 282 280 280 279 278 278 276 272 271 272 273 274 266
290 289 289 290 290 288 287 285 283 282 279 278 277 278 278 277 274 277 273 271 271 274 280 278 280 279 282 283 282 282 282 282 280 278 279 275 269 271 271 269 270 272 273 272
289 289 287 284 283 282 282 281 281 282 283 279 277 275 277 277 272 270 273 277 278 280 278 279 278 278 281 283 282 283 284 283 282 278 277 272 270 270 270 270 271 273 273 273
284 283 282 282 281 280 280 280 278 280 280 276 276 277 275 277 274 281 281 280 280 277 279 277 278 279 282 284 283 284 284 284 282 279 277 277 278 276 276 276 276 275 276 276
283 281 280 279 278 279 279 277 279 279 278 275 274 274 273 278 278 276 280 283 284 280 277 276 278 278 280 283 284 284 284 284 283 282 280 280 280 279 279 279 278 279 279 277
284 282 281 278 278 280 279 277 276 275 275 276 276 277 274 279 277 278 282 281 281 277 276 278 281 282 283 282 284 285 284 284 284 283 282 281 281 281 280 280 280 280 279 279
282 283 281 278 277 278 280 283 280 279 274 276 276 275 275 277 280 279 282 283 280 284 283 283 283 283 279 283 284 284 284 283 282 282 281 280 281 281 281 280 279 280 280 280
280 281 279 279 280 280 280 281 279 279 280 282 283 283 280 277 282 285 285 284 282 283 283 281 281 282 279 277 273 276 276 278 278 277 278 279 280 280 279 279 279 279 280 280
281 280 280 281 280 280 279 280 280 281 282 282 283 283 283 281 279 278 282 282 282 283 283 283 275 273 272 269 267 266 266 268 266 266 265 266 267 269 271 273 278 280 279 280
281 280 279 279 278 279 277 277 277 277 279 280 280 282 282 282 283 284 284 285 285 282 277 275 272 270 268 267 266 265 264 264 263 264 262 263 263 264 264 265 266 270 277 280

GFSNGP_sfc_thetae_003.txt.gz
Theta_e
289 290 290 290 290 290 289 290 289 289 288 292 295 296 295 296 295 295 295 294 293 291 291 292 292 293 292 292 292 292 291 291 292 293 294 293 293 293 293 294 294 293 292 288
288 289 289 289 290 290 290 290 289 289 290 296 296 296 295 295 295 294 294 295 294 292 291 291 292 292 291 291 291 291 291 291 292 293 293 293 292 292 293 293 294 290 290 288
283 285 285 284 288 290 290 291 293 289 295 295 294 294 295 295 295 295 296 296 294 292 291 291 292 291 291 290 290 290 290 290 291 292 292 292 291 291 292 292 293 292 288 287
284 281 281 290 292 292 291 291 293 293 294 296 296 296 297 298 297 296 296 296 294 294 292 291 291 291 290 289 289 288 289 290 290 291 291 291 291 290 292 292 291 290 287 286
284 282 284 288 289 291 291 292 295 294 295 294 294 296 297 298 298 299 298 297 296 295 293 290 290 290 289 288 288 288 289 289 290 291 290 290 290 291 291 289 289 288 287 285
281 282 280 288 291 297 296 289 296 297 295 293 296 294 298 299 299 298 298 296 294 292 288 288 288 288 288 288 289 289 289 290 290 290 290 290 290 290 289 288 285 286 283 282
277 284 285 290 294 296 287 290 296 297 296 294 295 300 298 297 296 298 295 289 288 288 288 289 289 289 289 288 288 289 289 290 290 290 290 290 290 289 287 286 285 284 282 281
279 280 282 292 295 292 298 297 297 297 297 297 299 295 296 295 292 291 288 288 288 288 289 289 290 289 288 288 289 289 289 289 289 290 289 288 288 288 285 285 283 282 281 281
287 288 294 295 297 299 298 297 298 298 299 298 296 295 295 291 289 288 288 288 289 289 289 288 288 288 287 289 289 288 288 288 289 289 289 288 287 286 284 283 283 282 281 281
290 293 292 294 297 298 299 299 299 300 301 298 298 296 292 288 287 287 287 288 288 288 286 286 288 287 288 288 288 287 287 287 288 287 287 287 286 285 284 283 283 282 282 282
290 293 295 296 298 300 301 300 300 300 300 299 298 294 289 288 286 285 287 287 287 286 286 286 287 287 288 287 287 286 286 286 286 286 287 287 286 285 284 284 285 284 283 282
291 297 297 297 298 299 300 301 302 300 297 295 294 290 288 286 288 290 289 286 286 286 286 286 286 286 287 286 286 286 285 286 286 286 286 286 286 285 283 284 282 282 282 282
297 298 298 299 299 301 301 302 301 299 294 290 289 288 289 289 288 288 286 286 286 286 286 286 286 285 286 286 286 285 285 286 287 285 285 286 286 285 284 284 282 283 284 284
299 299 298 299 300 299 297 291 290 289 289 289 290 291 289 288 288 286 286 286 287 286 286 286 285 285 286 286 286 286 286 285 286 286 286 286 286 286 284 283 283 284 283 282
298 300 299 293 290 288 289 289 288 289 290 291 290 289 288 287 286 286 286 286 286 286 285 285 285 285 287 287 286 286 287 288 287 286 285 284 283 283 284 283 283 283 284 281
292 289 289 288 287 288 289 288 287 287 289 289 289 289 289 287 286 286 286 286 283 284 286 283 282 285 286 286 286 287 288 286 286 287 285 284 284 284 284 284 284 283 283 283
293 287 287 287 287 287 288 289 288 288 289 290 290 287 287 285 284 285 285 283 283 282 283 282 283 286 285 286 286 288 287 287 285 285 285 285 284 284 284 284 283 283 283 284
291 291 291 290 288 287 288 289 289 290 289 289 285 284 283 282 284 283 282 281 279 279 282 283 283 284 285 286 287 286 285 285 285 284 284 284 285 285 284 283 283 282 283 284
292 291 291 290 291 290 290 289 287 285 284 283 282 283 282 281 281 281 281 279 279 280 284 284 283 283 284 285 285 286 285 285 284 284 284 283 283 283 283 283 282 282 282 282
290 290 289 286 285 283 284 284 284 284 284 282 281 282 282 282 280 279 280 280 282 285 285 284 284 284 284 285 283 286 285 285 285 284 285 284 282 282 283 281 281 282 282 282
285 285 284 283 282 282 282 282 281 283 282 280 280 281 280 281 281 279 282 283 286 284 284 282 283 285 286 285 286 286 285 285 285 285 284 284 283 282 282 283 283 283 283 283
286 284 281 280 279 282 281 281 282 281 281 281 279 277 277 280 281 281 281 283 288 283 286 286 286 285 285 283 285 285 285 285 285 285 285 284 284 284 284 284 284 284 284 284
285 283 283 281 281 282 282 282 280 280 279 280 279 281 281 283 283 283 284 288 286 287 286 287 285 284 284 284 285 285 285 284 285 285 285 285 284 284 283 283 284 284 283 283
284 284 282 280 280 281 280 281 281 282 282 283 283 284 282 281 283 285 285 284 285 285 285 286 286 285 284 285 285 286 285 283 281 280 280 280 280 280 281 281 281 282 282 281
282 282 281 280 279 279 279 279 280 280 280 281 282 283 284 284 281 283 283 284 284 284 284 285 286 285 283 282 280 277 276 274 272 272 271 271 271 271 271 271 270 271 272 276
281 280 280 279 278 277 276 275 275 276 276 277 278 280 281 281 282 283 283 284 285 285 286 281 279 277 276 275 273 272 271 270 270 269 268 268 268 268 268 268 268 268 268 269
278 276 276 276 274 273 272 272 271 272 273 274 273 276 276 278 279 279 279 281 282 281 277 274 272 271 271 270 269 269 268 268 266 266 266 266 266 266 266 266 267 267 268 268

GFSNGP_sfc_thetae_006.txt.gz
Theta_e
295 295 295 295 296 296 295 296 292 294 294 297 300 303 305 305 306 305 304 303 302 301 301 300 300 301 300 299 298 298 296 296 296 297 298 297 297 296 296 297 297 297 295 294
293 294 294 293 296 297 297 297 296 296 296 303 304 304 304 303 303 302 302 302 302 302 301 300 299 300 299 298 297 297 296 296 296 296 296 296 296 296 296 296 296 296 296 295
290 291 292 290 294 296 297 299 298 294 299 302 301 302 303 303 303 302 303 303 303 303 302 300 299 300 298 297 297 296 295 295 295 295 295 295 295 295 294 294 295 295 295 294
292 287 286 294 297 297 297 298 300 299 300 301 302 304 304 306 305 303 304 304 304 304 302 298 299 299 299 296 295 294 294 294 294 294 294 294 294 294 294 295 294 293 293 293
291 289 292 293 293 294 295 295 300 299 301 301 301 303 304 305 306 307 306 306 306 306 303 301 298 298 296 294 294 293 293 293 293 293 293 293 293 294 295 294 293 293 292 292
289 290 287 293 295 301 300 292 300 301 301 301 301 299 301 307 307 306 307 307 306 304 301 299 297 295 294 293 294 293 293 292 293 293 293 293 294 294 295 294 292 291 290 290
290 291 292 296 298 301 289 293 302 303 303 303 302 305 306 306 307 307 307 306 304 299 297 296 295 294 292 293 293 292 293 293 293 293 293 294 294 295 294 293 291 290 287 288
288 288 287 297 299 295 301 305 304 304 305 305 306 306 304 303 303 304 304 301 299 296 294 292 294 294 293 292 292 293 293 292 293 293 293 293 293 293 293 291 290 288 287 287
295 296 299 301 304 305 304 304 305 305 306 306 305 305 304 301 300 300 299 296 293 291 292 293 293 292 290 291 292 292 292 292 292 292 292 292 292 292 291 290 289 288 287 287
295 298 300 301 303 304 305 304 306 306 306 306 305 306 304 301 297 296 295 293 292 290 289 288 290 290 291 292 292 291 290 291 291 290 289 291 292 291 290 290 289 287 287 286
297 300 301 302 304 304 305 307 307 307 307 307 306 305 303 298 295 293 290 291 291 290 290 290 290 290 291 291 291 289 290 289 289 290 288 287 289 291 290 290 289 289 288 287
297 301 302 302 304 305 305 306 307 306 306 304 303 302 299 294 292 295 293 288 288 289 288 288 289 289 290 290 289 289 288 289 290 290 289 287 287 288 286 285 284 284 283 285
301 303 303 305 306 307 306 303 303 302 300 297 296 295 293 292 290 289 290 290 290 288 289 288 288 289 289 289 289 288 288 289 290 289 289 288 288 286 287 286 284 284 284 284
305 305 303 303 300 299 298 295 295 296 296 295 294 294 291 288 288 288 289 290 289 288 288 288 288 288 289 289 289 289 289 286 290 290 291 289 288 288 288 287 287 287 285 284
298 302 302 297 294 293 295 297 294 291 290 289 290 289 289 289 291 291 291 290 289 288 289 289 289 289 290 290 290 289 289 290 291 290 290 289 289 289 288 287 286 286 287 284
295 296 294 291 291 291 291 291 289 289 289 289 290 291 292 292 291 289 289 289 287 287 289 288 287 289 291 291 290 290 290 287 287 287 287 288 289 288 287 287 286 286 286 286
296 292 291 290 291 291 290 290 290 290 292 292 293 293 294 291 288 288 289 289 287 286 287 287 287 291 290 290 291 291 291 290 286 288 288 286 288 287 287 287 287 287 288 288
295 294 294 292 290 291 291 292 293 293 292 291 286 286 285 285 286 287 287 287 285 285 286 287 288 289 290 291 291 291 291 290 289 288 288 288 287 287 287 287 287 286 288 287
295 293 293 294 294 294 292 290 287 287 286 286 286 286 286 285 286 286 286 284 284 285 290 291 286 285 289 289 288 291 289 288 287 288 287 287 286 285 286 286 286 286 287 287
293 292 290 289 288 287 287 286 287 288 288 286 285 286 286 286 285 284 285 284 287 289 290 290 289 289 289 289 285 289 289 287 287 287 287 287 286 285 285 285 285 285 285 286
289 288 288 286 286 286 285 285 285 285 287 285 283 284 284 285 286 285 286 289 291 292 291 287 289 290 292 290 289 289 288 286 286 286 285 286 285 285 285 285 285 285 285 285
291 288 286 287 286 286 285 285 285 284 284 284 283 283 283 284 284 285 286 286 290 286 288 288 288 288 289 286 289 288 287 286 286 286 285 286 285 285 285 285 285 285 285 285
289 288 287 285 284 285 284 283 283 283 282 283 283 283 283 283 283 282 281 286 285 284 285 284 285 285 285 286 285 285 285 285 286 285 283 283 285 285 285 285 284 284 284 284
287 286 284 283 283 282 281 281 281 282 282 283 283 282 283 284 284 285 286 284 283 283 284 285 285 285 285 285 285 285 285 284 283 281 280 278 279 279 279 279 278 279 279 279
283 282 282 282 281 280 279 279 280 280 279 280 280 280 280 281 280 282 283 282 282 282 284 283 281 281 281 280 281 282 281 278 277 278 276 275 275 275 275 275 275 275 274 275
282 282 281 279 278 278 277 277 277 278 277 277 278 278 279 279 280 280 280 279 278 278 277 277 274 275 276 275 274 273 274 274 274 273 272 272 272 272 272 272 272 273 273 273
278 278 279 278 277 276 275 275 275 274 275 275 274 276 277 277 276 276 275 275 275 274 274 273 272 270 271 271 270 270 271 271 268 269 269 269 269 269 269 269 270 270 271 272

GFSNGP_sfc_thetae_009.txt.gz
Theta_e
301 300 299 298 298 299 297 297 295 296 295 299 301 303 305 307 308 310 311 312 312 310 310 310 308 305 304 305 302 301 300 299 299 300 300 299 298 298 297 297 297 297 296 296
297 300 299 296 299 298 299 299 298 298 297 303 305 306 305 306 307 307 309 310 310 310 309 307 306 304 304 303 301 301 299 299 299 299 298 298 297 297 296 296 296 296 295 295
292 296 296 291 297 298 299 300 299 296 300 305 303 303 304 305 307 307 308 309 309 308 308 307 306 305 303 301 301 299 298 298 297 297 296 296 297 296 295 295 296 295 295 294
293 289 284 296 301 300 299 301 302 301 302 303 303 306 307 308 308 308 308 308 309 309 308 308 307 304 303 301 299 298 297 296 296 296 295 295 295 295 295 296 295 294 294 294
293 291 294 295 297 296 296 296 302 301 302 303 305 306 306 309 309 309 309 310 310 310 310 309 306 304 301 299 298 296 295 295 296 295 294 294 294 294 295 295 295 294 294 292
292 289 286 296 299 303 302 293 302 302 301 301 303 299 302 309 308 309 309 310 310 311 310 308 305 302 300 297 296 296 295 296 294 294 294 293 294 294 295 295 294 294 292 292
293 292 295 300 300 303 291 295 303 304 303 303 302 304 308 310 309 310 310 310 311 310 309 307 304 300 297 298 295 296 294 294 294 294 294 294 294 294 294 294 294 294 291 291
295 289 287 301 301 296 303 306 305 306 306 306 307 307 308 309 308 308 308 309 308 307 303 302 299 298 295 293 296 294 294 293 293 293 293 293 293 293 293 293 292 291 289 290
297 298 303 304 303 306 306 305 305 305 306 307 306 306 307 307 307 305 306 306 303 298 295 295 296 295 293 291 293 293 293 292 292 292 292 292 292 292 292 292 291 290 288 288
298 300 301 303 305 306 306 306 307 308 308 308 307 308 308 308 306 302 303 299 297 295 293 293 293 293 293 293 293 292 291 291 291 290 290 290 291 292 292 291 290 289 288 287
299 302 302 303 305 306 307 308 309 310 309 309 308 307 307 305 300 298 295 293 294 294 293 291 292 291 291 291 292 290 289 290 290 290 291 291 290 290 291 292 290 290 289 289
298 303 304 304 307 309 307 307 308 307 307 305 304 304 303 298 297 295 293 291 290 291 291 291 291 291 291 292 291 289 288 289 290 291 291 291 290 289 289 288 286 285 284 287
303 307 307 307 308 305 303 302 301 300 300 297 298 298 296 292 292 290 290 291 290 290 290 291 290 290 291 291 290 289 289 289 290 289 290 290 289 287 286 289 285 285 284 284
306 307 306 302 300 301 300 300 298 297 297 295 294 292 290 289 290 290 290 291 292 291 291 290 290 290 292 292 291 290 289 286 290 291 291 290 290 289 288 288 288 289 285 284
301 304 301 300 299 298 298 295 292 291 291 291 293 293 293 292 291 292 293 293 292 290 290 291 291 291 293 292 291 291 291 291 291 292 291 289 289 290 289 287 286 287 288 285
300 299 298 296 294 293 293 292 290 290 293 293 293 293 293 293 293 293 292 292 289 289 291 288 289 291 293 293 292 292 292 288 288 290 289 287 287 287 288 288 288 288 287 287
296 294 295 294 292 292 291 292 293 293 293 293 293 290 290 290 290 290 290 291 290 286 288 288 288 292 292 293 293 292 294 293 288 289 289 288 287 288 288 288 288 288 288 289
298 297 296 294 293 292 292 293 292 291 290 289 285 285 285 285 285 287 288 289 286 286 289 290 291 291 292 293 293 294 294 292 290 289 289 289 288 289 288 287 287 287 288 288
296 295 294 294 294 291 290 289 288 287 286 285 284 284 284 285 286 287 288 285 285 287 291 293 287 288 291 291 289 293 292 290 290 289 288 287 288 288 287 287 287 287 287 287
294 293 291 290 289 289 288 285 287 289 290 286 285 285 284 285 285 285 285 285 289 291 291 290 289 290 291 291 288 291 290 290 290 289 287 289 288 286 287 286 285 286 286 286
290 290 289 287 286 285 285 286 285 285 287 284 283 283 283 284 285 284 285 284 287 288 286 285 286 287 287 286 287 287 287 287 287 287 287 286 286 286 285 286 286 285 285 285
292 288 287 288 286 285 284 284 284 284 284 284 284 283 283 284 285 286 286 285 287 285 285 284 285 285 285 284 286 285 285 286 286 286 285 285 285 285 285 285 285 285 285 285
291 289 286 284 284 284 284 283 284 283 282 282 282 281 282 283 284 282 281 283 284 283 283 284 283 281 282 284 285 285 285 285 285 285 285 284 283 283 283 282 282 282 282 282
288 285 284 284 285 283 282 282 282 282 281 283 282 281 280 280 281 282 282 281 281 279 280 280 278 276 279 281 280 278 277 276 278 281 281 280 280 279 279 279 278 279 279 278
285 284 284 284 283 283 281 281 281 281 280 280 280 280 280 280 279 279 279 279 277 277 277 277 275 273 276 276 276 275 275 275 275 274 275 275 275 275 276 276 275 275 275 276
285 285 283 281 281 281 280 279 279 279 278 278 278 279 279 279 278 277 277 276 276 275 275 275 274 273 273 273 272 272 272 271 270 270 271 271 272 272 272 272 272 272 273 273
281 281 282 281 280 279 278 277 277 276 278 276 275 278 278 277 276 275 275 275 274 274 273 273 273 272 271 271 271 270 270 270 269 268 269 268 269 269 269 269 270 270 271 271

GFSNGP_sfc_thetae_012.txt.gz
Theta_e
299 300 300 299 298 298 296 297 292 296 295 299 301 303 305 307 308 307 308 311 312 312 313 311 310 310 308 306 305 304 301 299 300 300 300 299 298 298 297 296 295 295 295 295
299 300 300 297 299 299 298 298 298 297 297 303 305 305 304 304 305 306 306 307 311 313 313 311 311 310 307 305 304 302 300 300 300 299 299 297 297 297 297 296 295 294 293 294
293 296 296 290 297 298 299 300 299 294 300 304 303 303 304 305 306 306 307 308 309 311 312 311 311 309 306 304 303 300 299 299 299 298 296 296 296 296 295 294 294 294 293 292
294 290 285 296 302 301 298 300 301 301 302 302 303 304 304 306 306 306 309 308 310 310 311 311 310 308 306 305 301 299 298 297 297 297 296 296 295 294 294 294 293 293 292 292
290 290 293 295 298 297 296 296 301 300 301 302 303 304 304 308 309 309 308 308 309 310 310 310 309 308 305 303 300 298 296 295 296 296 294 294 293 293 293 293 292 292 293 291
293 290 286 297 300 303 302 292 301 302 301 301 302 299 301 308 309 308 308 308 308 310 310 309 309 306 302 299 297 296 297 296 295 294 293 292 292 292 293 292 292 292 291 290
293 291 295 301 302 302 291 295 304 304 304 304 302 304 307 309 309 309 308 309 310 310 308 306 306 303 299 297 295 295 295 295 295 294 292 293 292 292 292 291 291 288 287 287
296 288 286 302 300 296 304 308 305 305 306 306 306 307 307 307 307 308 306 307 308 299 296 296 298 298 296 294 295 294 294 294 293 293 293 292 291 290 291 290 288 288 286 286
297 297 306 304 304 307 308 307 306 306 306 307 306 306 307 307 308 306 304 301 296 295 293 294 294 295 291 293 294 295 294 292 292 292 291 291 288 288 288 289 287 286 285 284
301 300 302 304 305 307 306 307 307 308 308 308 307 307 306 307 303 295 295 295 294 293 293 293 294 294 293 294 293 291 290 290 290 290 289 289 290 289 287 287 286 285 284 283
299 302 303 303 306 307 307 308 309 309 308 304 305 305 305 299 295 293 294 294 294 292 291 291 291 291 292 292 291 290 289 289 289 288 289 289 290 288 286 287 285 284 284 284
299 304 304 304 307 308 306 304 304 303 301 300 300 298 296 295 294 293 292 292 291 291 291 291 291 291 291 292 291 289 288 288 288 288 288 288 288 288 288 287 287 287 286 284
303 307 306 306 304 303 301 301 301 300 299 296 296 294 294 292 291 290 291 291 291 291 292 292 291 290 291 292 291 288 287 287 287 286 287 287 286 285 284 286 288 287 286 285
305 306 302 302 298 301 299 298 296 296 295 293 292 292 291 290 291 291 291 292 293 292 291 291 290 290 292 293 291 288 288 286 287 287 288 287 286 286 287 286 285 286 286 285
302 302 300 300 300 297 296 295 292 292 292 292 293 293 293 292 292 292 293 292 292 291 290 291 290 290 292 293 291 288 288 288 288 287 287 285 286 286 285 285 286 285 286 285
300 300 299 296 295 294 293 293 292 291 292 293 292 292 292 292 292 292 292 291 287 287 289 285 285 289 292 292 291 291 290 287 287 288 288 287 286 285 285 285 284 285 286 285
296 294 294 293 292 291 292 292 292 291 291 289 287 286 287 286 287 288 288 288 286 285 285 286 286 291 289 292 292 291 290 290 287 288 288 287 286 286 285 285 284 284 285 286
298 297 295 293 291 292 291 291 289 289 286 286 284 284 284 283 283 284 285 286 285 285 286 288 288 288 290 291 290 289 288 289 289 288 288 287 287 287 287 286 285 284 285 285
295 294 294 293 292 290 288 287 286 285 284 284 284 283 284 284 283 284 284 284 285 286 286 286 284 285 286 286 285 287 286 287 287 287 287 287 287 287 286 285 285 285 285 284
292 291 290 289 289 287 285 285 287 287 285 284 284 283 282 280 282 279 281 282 285 284 284 284 283 283 283 284 283 283 283 283 283 284 284 285 286 286 285 285 285 285 285 284
289 288 286 284 284 285 284 285 284 283 283 282 280 279 278 281 282 280 282 282 283 282 282 281 281 280 280 279 279 281 282 282 282 283 283 283 285 285 285 284 284 284 284 284
288 286 285 285 284 283 283 284 283 281 281 279 277 276 277 280 280 281 279 280 281 279 278 279 278 274 274 275 279 279 279 278 278 281 283 284 284 284 283 282 283 284 284 284
288 286 285 284 284 283 283 283 281 280 278 278 277 278 279 279 280 278 277 280 279 277 278 278 274 271 272 276 275 275 275 274 273 274 276 277 277 278 278 277 278 278 278 278
286 285 284 284 284 284 282 281 282 282 278 280 278 276 278 278 278 280 279 277 275 275 275 276 273 271 272 273 273 272 272 270 270 271 272 272 273 273 274 273 273 274 273 274
284 284 284 284 284 282 281 281 281 281 279 279 279 279 279 279 277 277 277 276 275 275 275 274 273 270 272 271 271 270 270 270 268 268 269 268 269 269 270 269 270 270 270 270
286 283 281 281 280 280 279 279 278 278 277 277 277 278 279 278 277 276 275 275 274 273 273 273 273 272 271 270 270 269 268 268 268 267 267 267 267 267 267 267 267 268 268 269
281 283 282 280 279 278 277 277 276 275 277 275 274 276 277 276 276 274 273 273 273 272 272 271 271 270 269 269 268 268 267 267 266 265 265 265 265 265 265 265 266 267 267 268

GFSNGP_sfc_thetae_015.txt.gz
Theta_e
295 298 298 296 296 296 292 293 286 290 292 295 295 296 297 300 300 301 301 304 306 305 305 308 308 307 306 304 301 300 298 297 298 299 299 297 296 295 294 295 293 293 293 293
290 297 296 293 295 295 295 295 293 293 292 296 298 298 298 299 300 300 301 302 303 307 307 307 307 306 306 303 301 299 297 297 299 298 297 295 295 295 295 294 294 293 292 292
285 291 290 283 290 294 295 296 294 288 293 297 297 298 297 297 299 300 301 302 304 305 307 306 306 307 303 301 300 297 296 298 297 295 295 294 294 295 294 294 293 292 292 292
283 283 275 291 298 296 295 296 295 296 296 297 296 298 301 301 300 300 302 303 303 303 305 306 305 304 301 300 298 296 296 294 294 294 294 294 294 294 292 292 291 291 291 291
281 281 287 291 295 294 292 291 296 295 296 297 299 297 299 303 303 301 301 301 301 302 304 304 303 303 300 297 295 294 293 294 295 294 293 294 292 291 291 291 290 289 290 290
282 279 275 289 296 299 298 285 298 298 297 297 297 286 294 302 303 303 303 302 300 298 297 301 301 299 297 294 293 293 292 293 293 294 293 292 291 291 291 290 290 290 289 288
278 277 284 298 298 299 284 286 298 299 298 298 295 297 300 302 303 303 298 295 294 294 293 294 297 295 292 292 292 294 295 294 294 294 293 292 291 290 289 288 288 286 285 284
284 282 280 299 297 289 295 298 299 298 298 298 299 301 303 303 301 297 293 292 292 291 291 292 293 293 292 292 293 293 293 293 293 293 292 292 289 288 288 287 285 285 282 282
289 287 297 298 297 301 300 298 298 299 301 302 302 302 301 293 293 292 291 291 293 291 291 292 293 293 291 291 292 293 293 293 292 291 291 290 288 286 285 285 282 284 283 282
291 295 297 298 299 301 302 302 304 302 301 302 300 299 292 291 291 291 291 291 291 290 289 289 291 292 292 293 292 291 289 289 289 288 288 288 288 287 285 281 280 282 281 281
293 296 300 302 303 304 302 303 299 297 296 297 294 293 292 291 290 290 290 290 291 290 289 289 290 290 290 290 289 288 287 287 287 285 286 286 287 286 284 284 283 281 280 281
285 300 298 298 300 301 298 297 298 295 294 294 294 292 291 290 290 290 291 290 289 289 288 289 290 289 289 289 288 286 286 285 283 283 283 285 284 284 286 286 286 287 286 283
299 302 299 298 297 297 295 295 295 294 293 291 291 291 290 288 288 289 288 289 289 289 289 288 287 287 288 288 287 285 283 283 282 283 282 282 282 282 280 283 286 287 287 287
302 299 296 297 294 295 293 293 293 292 292 291 290 289 288 287 288 289 289 290 290 288 288 287 287 286 288 288 288 285 284 284 283 282 282 283 283 282 279 278 280 282 284 286
297 298 296 295 294 293 293 292 290 289 290 290 291 290 290 290 290 289 288 288 288 287 287 286 285 285 287 288 288 286 284 283 283 284 284 283 283 283 285 285 282 282 282 280
297 296 294 293 292 292 291 289 289 289 289 289 287 286 287 287 287 287 287 285 282 281 283 282 283 285 288 288 288 287 286 283 283 284 284 284 286 286 286 285 283 281 281 282
291 290 291 291 290 290 290 291 290 287 286 283 283 283 283 283 283 284 284 284 283 283 284 284 283 285 286 288 287 286 284 284 283 285 285 285 286 286 285 284 283 282 282 282
296 294 293 291 290 289 287 286 284 283 282 284 283 284 283 282 281 281 280 280 282 283 283 282 282 282 283 283 282 282 281 281 281 280 282 282 283 284 284 285 285 285 285 285
293 292 292 291 289 286 284 284 283 283 283 283 283 281 278 276 278 278 279 275 277 278 279 280 280 279 278 278 277 276 277 277 278 279 279 280 280 281 282 283 284 285 285 284
289 289 288 286 286 285 284 285 283 283 283 281 277 275 276 274 273 272 274 277 278 278 278 278 276 274 274 275 273 276 276 276 275 275 276 276 279 281 282 283 283 284 285 284
285 284 284 283 283 283 283 283 280 279 281 277 275 271 270 273 273 269 274 275 277 276 276 275 273 272 273 272 274 273 273 271 271 271 272 273 273 274 277 279 281 283 282 280
285 283 283 282 282 282 281 280 280 278 277 274 269 269 269 275 271 273 270 274 276 269 273 274 272 267 270 270 272 270 270 268 267 268 269 270 270 271 271 271 272 273 274 275
285 284 283 282 280 280 280 278 276 275 272 271 269 270 271 275 275 272 271 275 274 271 273 272 266 264 264 268 268 267 267 266 265 266 267 267 268 268 268 268 269 269 270 271
284 284 283 283 280 279 279 279 279 277 272 275 269 267 274 268 266 274 272 269 265 265 266 269 268 265 262 262 266 266 265 266 265 264 265 265 266 266 266 266 266 267 268 268
283 283 281 280 279 278 278 278 278 277 277 276 276 277 275 274 267 268 265 265 268 266 263 263 264 263 260 259 262 265 265 263 265 262 263 262 264 263 264 265 265 266 266 267
282 279 279 278 277 276 276 276 274 274 273 269 268 265 268 268 268 268 265 265 266 265 262 260 260 262 262 260 260 257 262 262 262 261 259 260 261 261 262 262 263 264 264 265
280 279 277 276 276 276 274 273 269 267 267 263 263 263 270 266 262 265 261 260 260 260 259 259 258 260 264 260 257 257 256 258 260 260 254 258 259 259 260 260 261 262 263 263

GFSNGP_sfc_thetae_018.txt.gz
Theta_e
293 295 295 294 293 293 291 290 285 289 289 293 295 294 295 297 298 301 304 304 304 303 302 305 305 306 306 300 300 300 299 298 298 299 299 297 293 292 292 292 292 293 292 293
289 293 293 291 293 293 293 293 291 291 290 293 295 295 296 297 298 298 298 300 302 304 303 305 305 304 305 301 301 299 298 297 299 299 296 294 292 292 292 293 294 292 292 292
284 288 288 283 289 292 293 294 294 287 291 294 295 296 295 295 298 298 299 300 301 304 304 303 304 305 304 302 300 298 296 298 298 296 294 294 293 292 293 293 293 293 292 291
281 282 276 291 295 295 293 292 293 293 293 296 297 297 298 298 297 298 298 299 299 299 304 304 304 305 303 300 297 294 295 295 295 294 293 294 293 292 293 292 290 289 289 290
280 280 286 291 293 291 290 289 294 293 294 296 298 297 297 300 300 299 299 298 295 294 295 300 302 301 297 295 293 293 293 294 294 294 292 292 291 292 291 291 290 288 289 289
281 278 276 287 294 297 295 285 296 296 295 295 294 285 293 300 300 296 293 293 292 293 294 294 294 296 293 293 292 291 292 292 293 292 292 292 292 291 291 289 289 289 288 288
276 276 282 292 297 296 282 284 297 297 296 295 293 294 298 296 292 292 292 292 292 292 291 291 293 293 292 292 291 293 293 294 294 294 293 293 292 291 289 287 286 285 285 285
283 278 279 298 295 288 291 296 297 296 297 297 298 296 293 292 291 290 290 291 291 290 290 291 292 291 291 290 293 293 294 294 294 294 293 292 289 288 287 286 284 284 282 283
287 286 295 296 297 299 298 297 296 299 299 301 297 291 291 289 290 291 290 290 291 291 291 290 291 292 291 290 292 294 293 292 292 291 290 289 286 285 284 284 281 281 280 278
290 294 295 296 300 300 301 300 299 299 300 298 292 291 290 290 290 290 290 289 289 289 288 289 291 291 290 291 291 289 288 287 287 286 286 286 286 286 283 280 279 281 281 280
291 295 299 300 299 299 296 296 294 295 294 292 291 290 290 289 289 288 288 289 288 287 287 287 289 288 289 288 288 286 286 286 285 283 284 284 284 284 283 283 282 282 281 280
286 296 295 295 297 297 295 294 294 292 291 292 291 290 290 289 289 289 288 288 287 287 287 287 287 287 287 288 287 285 285 284 282 281 281 282 283 283 286 286 286 286 286 283
298 299 296 294 295 295 293 292 292 291 291 289 290 289 289 288 287 288 287 287 287 287 287 286 286 285 286 286 286 285 283 283 282 281 281 281 282 281 281 285 285 286 287 287
298 297 294 294 290 292 292 291 292 291 290 290 289 288 286 286 287 286 286 287 287 286 285 284 284 284 285 287 286 284 283 282 282 282 282 282 282 282 283 283 284 285 284 286
295 296 294 292 292 290 291 290 289 288 288 287 287 287 287 286 285 285 285 285 285 284 284 284 283 283 286 287 286 284 284 283 283 282 284 285 285 285 285 285 285 285 285 281
293 293 292 290 289 289 289 288 287 286 285 284 284 284 285 285 284 284 284 283 283 282 283 281 281 282 284 283 282 281 281 279 279 280 279 280 281 282 282 284 285 285 285 283
289 288 289 289 289 289 289 288 287 285 283 282 282 283 283 283 281 281 281 282 283 282 280 279 278 281 281 279 277 276 276 277 276 278 277 278 278 278 278 279 279 281 282 284
294 292 291 290 289 287 285 284 283 283 283 284 283 279 277 277 278 278 278 278 280 277 278 278 277 276 276 276 276 276 275 275 276 275 275 275 275 276 276 277 279 279 280 282
292 290 290 289 287 285 283 282 283 283 283 281 278 277 276 275 277 277 277 274 273 274 276 276 275 274 274 274 274 274 273 271 271 271 271 272 272 272 273 273 273 275 278 280
288 288 287 285 285 284 283 283 283 282 281 278 275 275 276 273 272 273 275 273 274 274 277 274 273 272 272 273 270 271 270 267 267 268 268 268 268 268 270 269 270 270 271 273
284 283 283 283 283 283 282 280 280 279 278 275 274 271 271 273 272 269 272 274 274 274 275 273 271 271 271 269 270 264 266 263 264 264 265 265 265 266 266 267 268 268 269 269
283 282 282 282 281 280 279 280 279 277 275 273 269 269 271 274 271 272 269 272 274 266 271 272 270 263 267 264 268 261 265 266 261 263 263 263 264 264 264 264 265 266 267 267
283 283 282 280 280 279 278 277 276 275 272 270 269 270 273 274 273 268 268 273 273 267 271 267 263 261 260 258 257 257 256 258 259 260 261 261 262 262 262 263 263 264 265 266
283 283 281 280 279 278 277 278 278 276 273 274 270 267 273 268 264 272 271 265 261 260 260 261 260 260 258 255 255 255 255 255 258 254 259 257 260 259 260 261 261 263 263 264
283 283 280 279 278 277 279 278 277 277 276 275 274 275 274 272 266 266 262 262 265 263 259 257 259 259 254 253 252 252 253 252 255 255 252 255 257 257 257 258 259 260 261 262
280 278 277 277 277 277 276 275 273 273 272 268 267 261 266 268 266 265 261 260 262 261 258 254 253 254 254 255 253 251 252 254 254 256 250 252 255 256 257 257 257 258 258 260
278 277 276 275 275 275 274 273 269 268 266 263 263 262 265 260 258 260 256 256 256 255 253 254 252 254 254 256 256 253 252 251 252 253 248 249 252 254 256 256 256 257 257 259

GFSNGP_sfc_thetae_021.txt.gz
Theta_e
290 292 294 292 292 291 290 289 285 288 288 292 292 293 293 295 296 301 302 304 303 303 304 305 306 306 305 302 300 301 299 298 297 298 297 297 295 294 293 293 292 292 292 293
287 291 291 290 292 292 291 291 290 289 288 292 293 293 294 295 296 296 297 300 301 302 303 303 304 304 303 301 300 300 298 297 298 297 298 296 294 293 293 293 293 292 293 292
283 286 287 282 288 291 291 292 292 287 291 293 293 294 294 295 296 296 297 298 298 300 303 302 302 303 302 300 300 298 297 297 298 298 295 293 293 293 293 293 294 294 292 291
280 282 275 289 294 293 291 290 291 291 293 294 294 294 295 295 296 296 297 296 295 294 296 299 302 301 301 298 296 294 295 294 295 294 292 292 293 292 292 292 291 290 290 289
281 280 285 290 291 291 289 288 292 292 294 295 296 295 295 299 297 295 293 292 292 292 292 293 297 296 294 292 292 292 292 292 293 293 292 293 292 292 292 292 291 289 288 288
280 280 277 288 292 295 294 284 293 293 294 294 292 284 291 296 293 291 291 291 290 291 291 291 291 292 291 291 291 290 291 292 293 294 293 293 292 292 292 291 289 288 287 286
277 277 282 290 295 294 283 285 295 295 295 293 292 292 292 291 290 290 290 290 291 290 290 290 292 292 290 290 290 292 294 294 294 295 294 293 293 292 291 288 286 284 283 283
278 276 279 294 293 287 290 293 296 295 295 295 294 292 290 290 290 290 289 290 290 289 289 290 291 291 290 290 292 294 294 294 295 294 294 293 291 289 287 285 283 283 281 282
287 285 293 295 293 295 296 296 295 296 297 296 291 289 289 289 289 289 289 289 289 289 289 289 290 290 289 290 292 292 292 293 292 292 290 289 286 285 284 283 281 281 281 280
289 292 294 294 297 298 297 297 298 299 299 293 289 289 289 289 289 288 287 286 287 288 287 287 288 289 289 289 290 288 287 286 286 285 285 285 285 285 283 281 280 281 281 281
289 294 296 296 296 294 294 294 293 292 291 290 290 289 289 288 287 287 287 287 287 287 286 286 287 286 286 286 286 285 285 284 284 282 283 283 283 283 283 283 283 283 282 282
286 296 294 295 295 295 293 292 292 291 290 290 290 288 288 287 288 287 286 286 286 285 285 285 285 284 285 286 285 284 283 283 281 281 281 282 282 283 286 286 286 286 286 285
295 296 295 293 293 293 292 291 291 290 290 288 289 289 288 287 286 287 285 285 284 284 284 284 283 283 284 284 284 283 282 282 282 282 282 281 282 281 280 284 286 286 286 286
295 294 291 291 289 291 291 291 291 290 289 289 287 287 285 285 284 284 283 284 284 284 283 282 282 282 283 284 282 282 281 281 279 279 279 280 279 281 282 282 281 283 286 286
292 294 293 291 290 289 289 289 287 286 286 285 287 287 286 284 282 282 284 284 284 283 280 280 280 280 281 280 279 279 278 278 278 276 276 276 277 277 277 277 277 278 279 281
291 291 290 288 288 288 287 287 285 284 285 285 285 285 284 284 283 283 284 284 281 278 278 275 277 277 279 277 276 276 275 275 274 275 275 275 275 275 275 275 275 275 276 277
288 286 287 286 286 287 287 288 286 284 283 283 283 282 282 281 281 281 282 280 277 276 277 275 274 276 276 276 275 274 274 274 273 274 273 272 272 271 273 272 273 272 272 273
293 291 290 289 287 285 284 284 283 283 283 283 279 278 277 278 277 278 279 277 275 275 275 275 274 274 275 274 274 273 272 270 270 269 270 269 269 270 269 270 269 269 270 271
291 290 289 288 286 284 283 283 283 283 281 279 279 277 276 275 277 275 274 271 270 273 274 274 274 272 272 273 271 270 270 265 265 267 267 265 265 266 267 266 266 267 268 268
289 288 286 284 284 283 282 283 282 280 280 278 276 275 274 273 273 272 272 272 273 274 275 273 272 271 271 271 267 268 266 261 264 264 263 263 262 263 264 263 264 264 265 266
285 284 283 282 282 282 282 280 278 278 278 275 275 273 273 273 271 269 272 272 273 273 274 271 270 269 270 267 268 259 260 258 258 260 258 260 260 261 261 261 261 262 263 264
284 283 282 282 280 279 279 278 277 276 274 272 270 271 271 272 270 271 268 272 273 267 271 270 269 262 265 262 265 257 260 259 258 255 256 257 257 259 258 259 259 260 261 262
283 283 282 280 279 279 278 276 275 274 272 271 271 272 273 273 272 269 269 272 272 266 269 264 261 259 257 254 254 252 253 252 254 253 252 251 253 255 256 257 258 258 259 259
282 281 280 279 278 278 277 276 276 274 272 273 269 268 273 268 267 271 270 265 261 258 259 257 257 257 255 252 251 251 251 249 250 250 251 251 249 251 252 254 256 256 257 257
281 280 279 279 278 277 277 277 276 275 274 275 275 274 273 272 267 266 262 262 263 261 258 254 256 255 251 250 250 249 249 248 248 249 246 247 250 250 251 253 254 255 255 256
280 278 277 277 277 276 276 275 274 273 271 266 267 265 265 266 266 264 261 259 260 259 256 251 251 250 250 252 252 250 249 250 248 249 247 247 248 250 250 253 252 253 254 254
277 276 276 275 275 274 273 272 271 270 267 265 266 266 265 263 261 261 255 254 254 252 252 250 250 251 251 250 251 253 251 249 248 249 245 245 246 246 248 251 252 252 252 253

GFSNGP_sfc_thetae_027.txt.gz
Theta_e
292 292 294 294 293 292 292 293 291 293 291 296 299 299 299 298 301 304 305 306 308 310 312 313 313 313 312 312 309 308 307 307 307 306 305 303 299 297 296 296 295 295 295 296
290 292 292 292 294 293 293 292 292 292 292 298 298 297 297 298 301 300 300 301 302 304 305 305 307 310 310 309 308 306 305 305 305 304 301 299 297 296 295 295 294 296 294 296
287 289 291 287 291 293 294 294 296 291 297 297 296 297 297 299 299 297 297 297 297 298 300 303 304 306 307 306 304 304 303 303 302 300 298 296 296 295 293 294 295 296 297 297
286 286 283 294 296 296 295 295 296 295 296 297 297 297 298 299 299 296 295 295 295 296 297 298 299 300 301 302 301 300 299 298 298 298 297 295 295 294 295 296 296 296 295 296
286 286 289 291 293 294 293 294 297 296 296 296 297 298 295 295 296 295 294 294 294 295 295 296 296 297 297 296 297 296 296 296 296 297 296 296 296 295 295 295 295 296 297 294
284 285 283 293 296 297 297 289 297 296 296 296 297 295 297 294 294 293 293 294 294 294 295 295 295 296 295 294 294 294 295 296 297 297 297 296 297 296 297 297 296 294 291 291
283 287 289 295 296 297 289 293 298 298 298 299 296 298 297 293 292 293 293 292 293 294 293 294 295 295 294 294 294 296 297 298 298 298 298 298 296 294 293 292 291 290 291 292
286 286 286 296 294 293 299 297 299 300 300 299 294 292 293 292 291 291 291 292 293 292 292 294 295 295 294 293 296 297 297 295 294 294 293 292 292 292 292 291 290 290 289 289
293 294 300 297 300 300 299 299 298 301 299 296 293 292 292 290 290 291 291 291 292 292 291 291 292 293 291 290 292 291 290 289 289 289 289 289 289 289 289 289 288 288 288 288
295 297 296 298 299 300 299 300 299 302 300 296 293 292 290 290 290 290 290 290 290 289 288 287 288 289 289 289 290 289 288 287 287 287 287 287 287 287 286 286 285 285 285 285
293 295 298 299 300 300 298 299 297 297 297 295 293 291 290 289 289 290 289 289 289 287 287 286 287 286 287 287 287 285 285 284 283 284 283 283 283 283 283 284 284 283 283 283
293 299 300 299 301 298 297 296 296 294 292 293 293 290 290 289 289 289 287 287 287 286 285 284 284 283 283 284 284 283 282 282 281 281 281 281 280 280 281 280 281 281 280 280
299 299 295 294 295 295 294 294 293 293 292 290 291 290 289 288 288 287 287 286 285 283 282 282 281 280 281 281 281 280 279 279 279 279 279 278 278 277 277 279 279 278 278 278
296 297 294 294 294 293 293 292 292 291 291 290 290 289 288 287 286 286 285 284 283 282 282 281 279 277 279 280 279 278 278 276 278 277 277 276 276 276 276 275 274 275 276 275
294 294 296 292 291 290 290 290 288 288 288 288 289 288 287 285 285 284 283 282 281 281 279 279 277 277 278 279 277 276 276 275 276 276 275 274 274 274 274 273 273 273 273 274
291 291 291 290 289 289 289 288 287 286 287 287 286 286 286 285 284 282 281 281 280 277 276 274 275 276 277 277 276 275 274 273 273 274 273 272 272 272 272 271 271 270 270 270
288 287 287 287 287 287 288 288 288 287 286 286 284 285 284 282 281 279 279 277 276 275 275 275 275 276 276 275 275 274 273 272 270 272 271 270 270 269 269 269 268 268 269 269
294 291 291 290 288 286 286 287 287 286 285 284 283 283 281 280 278 278 277 275 274 274 274 274 274 275 274 273 273 272 270 269 270 269 269 268 267 268 267 267 266 266 267 267
291 289 289 288 287 286 285 285 283 282 282 282 282 281 280 279 278 277 276 275 273 273 273 274 273 273 272 271 271 270 268 267 268 267 266 265 265 265 265 265 265 265 265 264
286 286 286 285 285 284 282 281 282 281 281 280 279 278 277 276 275 274 275 275 275 275 274 273 272 271 270 270 269 269 267 266 266 266 264 263 263 262 263 262 262 263 263 263
284 283 283 282 281 282 282 282 281 280 280 280 278 277 276 274 274 273 273 272 274 274 273 272 271 270 270 269 269 267 266 265 265 264 262 261 261 261 261 261 261 261 261 261
282 281 281 281 280 280 280 280 279 278 277 276 276 275 274 273 273 272 273 274 274 272 272 271 270 266 268 267 268 267 266 264 264 263 262 261 261 260 259 260 259 260 260 260
282 282 281 280 278 278 278 277 277 276 275 275 274 275 275 274 274 273 271 273 273 271 271 270 266 263 262 267 266 265 264 263 262 262 261 260 259 259 258 258 258 258 259 259
280 279 278 278 278 277 276 276 276 276 275 275 274 274 274 272 272 273 273 269 268 269 269 267 266 263 261 265 264 264 263 262 261 261 261 256 259 258 258 257 256 257 257 257
280 279 279 278 276 276 276 276 276 276 275 275 274 274 273 273 273 271 271 270 268 268 268 262 261 260 264 264 263 262 262 262 261 260 260 259 258 257 257 256 255 256 256 256
277 276 276 277 277 277 276 276 274 274 274 272 271 271 271 271 270 270 269 267 267 265 267 264 263 263 263 263 262 261 261 261 261 260 258 258 257 256 256 255 254 254 255 255
274 274 274 273 273 273 273 274 273 272 272 272 271 270 269 268 268 268 265 266 266 264 264 263 263 262 262 261 261 261 261 261 258 259 259 257 256 256 254 254 253 253 253 254

GFSNGP_sfc_thetae_033.txt.gz
Theta_e
298 300 299 298 298 299 298 299 295 298 298 302 304 306 307 310 310 309 310 313 316 319 322 324 324 325 326 326 325 325 324 323 322 321 321 318 317 315 312 309 306 303 299 298
296 299 298 296 298 299 299 300 300 300 299 306 307 308 307 308 308 309 311 314 317 320 321 321 322 322 321 320 319 320 318 317 317 317 315 314 313 310 308 307 304 301 299 300
292 297 297 293 297 298 299 301 300 296 301 305 305 306 307 308 309 310 311 313 314 314 314 315 316 316 315 315 316 315 313 313 312 311 309 308 307 304 303 301 300 298 298 297
294 295 287 297 304 303 301 302 303 302 303 305 307 308 309 310 311 310 310 311 311 311 311 312 313 313 313 312 311 310 309 309 309 308 306 305 304 302 300 299 298 299 299 299
293 291 295 297 301 301 300 299 305 304 305 307 308 308 307 310 312 310 309 310 310 311 310 310 310 310 309 308 308 307 306 306 306 306 304 303 302 302 302 301 301 300 300 299
295 290 287 298 304 307 306 296 306 306 306 306 307 301 305 309 310 309 309 308 308 308 309 308 308 309 307 306 305 304 304 304 305 305 304 302 300 300 300 300 299 300 298 297
295 293 296 303 306 308 295 298 307 308 308 307 305 307 310 309 307 308 307 307 307 307 307 307 308 307 305 304 303 304 304 304 303 302 301 300 300 299 298 298 298 297 296 297
296 293 290 306 305 300 305 310 310 310 309 308 309 309 307 306 305 305 305 305 306 305 305 306 306 305 303 302 303 302 302 300 300 299 298 298 298 297 296 295 295 295 294 294
299 299 308 309 308 311 311 311 312 311 310 310 310 307 306 305 304 304 304 305 305 304 303 304 305 304 301 301 301 300 298 296 295 295 295 295 295 294 294 293 292 291 289 289
301 305 306 309 311 312 313 312 313 312 311 311 309 307 305 304 304 304 304 304 304 302 301 300 301 301 300 299 298 297 295 294 293 293 292 292 292 290 289 289 287 286 286 285
301 304 307 309 310 312 311 311 310 310 311 311 309 306 305 304 303 304 303 303 302 300 298 297 298 297 297 296 296 293 292 291 290 290 289 288 287 286 286 284 282 283 283 283
300 305 308 308 311 313 311 310 309 309 309 310 309 306 306 304 304 303 302 301 299 298 297 296 295 294 294 294 293 291 289 288 288 288 287 287 286 285 280 281 280 279 278 278
304 309 309 311 310 310 311 311 311 309 310 308 308 307 305 303 303 299 300 299 297 296 295 293 292 291 291 291 291 289 287 286 284 285 285 284 285 284 284 280 280 279 278 276
309 307 304 306 306 308 309 310 307 309 310 309 307 306 304 302 300 299 297 297 296 293 291 290 288 286 287 287 286 285 284 281 285 284 284 284 283 282 282 281 280 281 279 277
307 306 305 305 305 304 306 306 305 306 306 305 305 303 302 299 297 297 297 294 292 290 288 285 283 282 284 285 284 283 283 283 283 283 281 280 281 281 280 280 279 278 279 279
304 303 302 302 302 301 301 302 302 302 303 302 301 300 299 298 296 292 291 290 286 283 281 280 280 282 283 283 282 281 278 277 279 281 280 279 279 279 278 277 277 277 277 277
301 301 300 300 300 299 299 300 300 299 300 299 298 297 295 290 286 282 280 281 280 279 279 279 279 280 280 281 280 280 280 278 275 279 278 278 277 276 276 276 275 275 275 275
302 302 302 302 300 298 297 298 298 297 295 293 287 286 283 280 279 278 277 277 277 276 277 278 277 277 277 278 278 278 278 277 277 276 276 276 274 275 275 274 274 274 274 275
299 299 299 298 298 297 294 290 287 285 285 284 283 280 279 278 277 277 277 276 275 275 275 276 276 276 275 275 276 276 275 275 275 274 274 272 274 274 273 273 273 272 272 272
286 287 286 285 286 285 283 284 284 282 282 281 281 279 277 277 278 278 279 277 278 276 276 275 275 274 273 272 273 274 274 274 273 273 273 271 272 271 272 271 271 271 272 271
283 283 282 282 282 283 284 284 283 282 282 281 280 279 278 279 278 278 276 273 275 275 275 275 275 274 274 274 273 275 274 273 272 272 272 271 271 271 271 271 271 270 270 270
281 281 280 281 280 280 281 282 281 280 279 278 278 277 277 276 276 276 278 275 275 276 276 275 274 271 272 271 274 274 273 272 271 271 271 271 270 269 269 269 269 269 268 268
281 281 280 279 279 278 279 279 279 279 278 278 278 278 278 278 278 276 274 276 276 275 275 274 270 269 268 273 273 272 272 271 270 270 270 270 269 268 268 268 267 267 267 267
281 280 280 280 280 279 277 278 278 277 277 277 278 278 278 276 275 276 276 274 274 275 274 272 271 268 268 272 272 271 270 270 270 270 270 268 268 268 267 267 266 267 266 265
280 280 280 280 279 278 279 279 278 278 277 277 277 277 278 278 278 277 276 274 272 274 274 269 268 267 271 271 271 270 270 269 269 268 267 267 267 267 267 266 266 265 264 263
278 277 278 278 278 279 279 278 277 278 278 277 277 277 277 277 276 276 274 273 273 272 272 272 271 270 270 270 270 269 269 269 268 268 267 266 266 266 266 265 265 264 264 263
277 277 277 276 276 276 276 276 276 274 275 277 276 276 276 276 274 274 273 273 273 272 272 272 271 270 269 268 268 268 268 268 267 267 266 265 265 265 265 264 264 263 262 261

GFSNGP_sfc_thetae_036.txt.gz
Theta_e
298 299 299 298 297 298 297 299 295 297 298 302 305 304 306 309 310 309 310 311 313 318 320 322 323 324 325 326 326 326 324 323 320 320 320 318 315 312 308 305 302 301 300 300
295 299 298 296 298 299 298 298 298 299 299 306 308 307 306 306 308 308 309 311 314 317 321 322 323 323 323 322 322 322 320 318 319 319 317 315 312 310 308 305 304 300 299 297
291 297 295 290 296 298 299 300 300 295 301 306 305 305 306 308 308 308 311 313 316 319 320 321 321 320 317 317 317 315 314 314 313 312 309 308 306 304 302 301 300 297 297 297
292 292 284 296 303 301 299 300 302 302 303 304 305 306 310 310 310 310 312 313 315 315 315 316 316 314 314 314 312 311 310 310 309 308 306 304 302 299 298 297 296 296 296 297
290 290 294 296 300 299 299 298 303 302 304 305 306 307 308 311 313 312 312 313 313 313 312 312 311 311 310 309 308 307 306 306 306 305 303 301 300 299 299 298 298 298 298 297
294 288 285 297 302 305 304 293 305 305 305 305 307 301 305 310 313 311 312 311 310 310 310 309 308 308 306 305 305 304 304 304 305 304 303 301 300 299 299 299 298 298 296 295
291 290 295 302 304 305 293 296 308 308 307 308 307 309 311 311 310 310 310 309 309 308 307 307 308 307 304 304 302 304 304 304 303 301 300 299 299 299 297 296 296 293 293 294
294 289 287 306 303 298 304 311 311 310 311 313 311 310 309 309 308 308 307 307 307 306 306 306 307 305 303 301 303 302 302 301 300 300 299 298 297 297 296 294 292 290 289 288
294 296 306 306 305 310 313 312 312 312 312 312 311 309 308 307 306 306 306 305 307 305 304 305 305 304 301 301 301 301 299 298 297 296 296 295 293 292 291 291 288 285 284 284
294 301 303 308 310 311 312 312 311 313 313 312 310 309 307 306 306 305 305 305 305 304 303 302 303 303 302 301 300 297 295 294 293 292 291 291 290 289 288 284 283 283 283 281
297 299 299 303 307 310 312 313 313 312 312 311 311 308 307 305 305 304 304 304 304 302 301 301 301 299 299 298 297 294 293 291 290 289 288 286 283 283 282 280 280 281 280 280
294 303 304 305 308 311 310 308 311 310 309 311 312 308 307 305 305 304 304 303 302 301 299 298 297 296 296 296 294 291 289 288 286 286 285 286 283 281 282 280 280 279 279 278
302 307 309 309 309 311 309 309 311 311 310 310 311 309 307 305 304 301 303 301 299 298 296 295 294 292 293 292 291 289 286 286 284 284 284 283 282 282 278 279 280 279 279 277
307 306 305 307 305 309 308 309 310 310 310 311 309 308 306 304 302 301 300 299 298 295 293 291 288 286 287 286 285 283 283 284 284 283 283 283 281 281 281 280 278 278 278 278
306 308 307 305 305 305 306 307 307 306 307 308 308 306 304 301 299 299 298 296 294 291 288 285 284 283 285 285 284 283 283 282 282 281 279 279 281 280 280 279 279 278 278 277
303 304 304 303 303 304 303 302 302 305 306 305 303 302 301 299 297 294 292 291 286 283 281 279 280 282 283 282 280 278 278 279 280 280 279 279 279 278 278 277 277 277 276 276
298 298 299 300 302 302 300 302 302 302 302 300 298 295 286 282 281 280 280 280 279 279 279 278 278 279 280 281 281 280 278 276 275 279 278 277 276 276 276 275 275 275 274 271
298 299 298 300 301 299 297 293 290 289 286 284 283 282 280 279 277 277 277 277 277 276 277 277 277 277 277 278 278 278 277 277 276 275 275 275 273 274 274 274 274 273 273 273
290 289 289 289 289 288 286 285 284 283 282 281 279 278 277 277 277 276 276 275 275 273 275 277 276 275 274 275 276 276 275 275 274 274 274 272 273 274 273 272 272 271 271 271
283 284 284 283 283 283 281 281 281 280 280 279 278 277 276 277 277 277 276 274 275 275 276 275 275 273 273 273 274 274 274 274 273 273 273 271 272 271 271 271 271 271 270 270
280 281 280 279 279 280 281 281 279 278 279 279 278 276 276 276 276 275 273 272 274 275 275 275 274 274 273 273 274 274 274 273 272 272 271 271 271 270 270 270 270 269 268 268
280 279 278 278 278 278 279 279 278 278 277 277 277 276 276 275 275 275 275 273 275 275 275 274 272 271 271 271 274 274 273 272 271 271 271 270 270 269 268 268 267 267 267 265
280 279 278 277 277 277 277 277 277 277 276 276 276 276 276 277 277 274 272 276 276 275 273 271 270 270 269 272 273 272 272 270 270 270 270 269 269 268 267 266 266 265 265 265
280 280 279 279 279 278 276 277 277 277 277 277 277 278 277 275 274 275 275 274 274 273 272 271 269 269 267 272 271 271 270 269 269 269 269 267 267 267 267 266 265 265 264 263
278 279 279 279 278 278 278 278 278 278 277 277 276 277 276 277 275 275 274 273 273 273 270 268 268 267 271 271 270 269 269 268 268 266 267 266 266 266 265 265 264 264 263 260
277 276 276 276 276 277 278 277 275 276 277 275 276 276 276 276 276 274 274 273 272 272 272 272 270 269 270 269 267 267 268 268 267 267 266 265 265 264 264 264 263 263 262 261
275 275 275 274 275 275 274 274 274 272 274 275 274 275 275 275 274 273 273 272 272 272 271 270 270 269 269 267 267 267 267 267 266 265 264 264 263 263 263 263 262 261 260 259

GFSNGP_sfc_thetae_039.txt.gz
Theta_e
294 296 297 296 296 296 294 295 291 294 295 298 302 303 304 304 305 306 306 305 309 311 312 315 317 318 319 319 320 323 321 319 316 316 316 313 311 308 305 305 303 302 301 301
291 295 296 294 296 297 296 295 297 297 296 303 305 303 303 303 304 303 304 305 307 314 315 317 317 317 317 317 317 318 316 316 317 316 315 313 310 307 304 302 301 300 299 299
286 293 292 286 293 295 296 298 297 292 298 303 302 303 303 303 305 303 304 306 309 315 316 317 317 316 314 313 312 312 312 311 309 308 306 304 305 305 303 300 296 294 294 293
284 289 282 293 299 298 296 297 298 297 298 299 300 302 303 306 304 303 307 309 313 313 312 313 313 312 310 310 309 308 307 306 306 304 302 299 297 295 294 294 293 293 293 294
285 286 291 294 296 296 294 294 299 298 298 299 300 300 300 304 305 306 308 309 308 308 309 308 309 308 308 306 306 305 304 304 303 301 298 297 295 294 293 293 293 292 294 293
286 284 281 292 299 301 300 288 300 301 300 299 299 291 296 303 307 307 308 308 307 307 306 306 304 305 304 302 302 302 302 301 301 300 298 297 295 294 294 294 294 296 294 295
283 282 287 298 301 303 289 289 302 302 302 302 298 299 302 305 305 307 306 306 305 305 303 302 302 302 300 299 299 301 302 300 299 298 297 296 296 294 293 292 292 289 290 290
287 283 282 299 300 294 296 301 304 303 302 302 303 304 305 305 304 304 303 304 303 302 301 301 301 301 298 298 299 299 299 298 297 297 297 296 294 293 294 292 289 286 284 283
291 289 298 300 301 303 305 304 305 302 305 305 304 303 304 303 303 303 303 302 302 301 300 300 300 300 297 297 299 298 297 296 296 296 296 295 292 289 288 287 283 282 283 282
291 294 297 299 303 305 307 307 308 307 307 306 304 303 302 302 301 301 301 300 301 301 299 298 299 299 298 298 298 296 294 291 290 288 287 286 287 285 282 280 280 280 280 279
293 296 299 301 304 306 307 308 308 308 307 305 305 303 303 301 301 300 301 300 301 299 298 296 298 297 297 296 294 291 289 288 286 284 282 281 281 280 278 279 280 278 277 278
289 298 299 300 305 306 304 308 308 308 306 305 305 303 302 300 300 300 299 299 298 297 295 294 294 293 293 293 291 288 286 285 282 281 281 280 279 279 281 281 281 280 280 278
297 301 300 301 305 307 306 306 307 306 307 305 305 303 302 300 299 296 298 298 296 294 292 290 286 285 287 288 287 285 283 283 282 281 281 281 280 278 276 279 280 280 279 279
302 302 300 302 301 303 303 304 305 305 306 306 304 302 301 299 298 298 296 294 293 288 285 284 283 282 283 284 283 283 282 282 281 281 280 280 279 280 279 278 276 277 279 278
299 301 300 301 302 301 301 301 300 300 302 301 301 300 299 296 295 293 292 288 285 283 281 280 280 280 281 281 281 281 281 280 279 278 278 279 279 279 279 278 278 277 277 276
297 298 298 298 299 299 298 297 298 296 297 297 293 289 288 286 285 285 284 282 278 277 278 277 279 280 281 280 279 279 279 279 279 279 278 278 278 277 277 276 276 276 275 274
291 289 291 291 295 289 288 288 287 286 285 283 282 282 281 279 278 277 277 277 276 276 277 276 277 279 280 280 279 277 276 277 277 277 276 276 275 275 275 275 274 274 273 270
291 290 289 289 288 286 284 283 282 282 280 280 279 278 277 276 275 275 275 276 275 275 275 275 276 277 277 277 277 277 276 276 275 274 275 273 273 273 274 273 273 272 271 271
285 284 285 284 284 282 281 280 279 279 278 278 277 275 276 276 276 275 275 274 273 272 273 275 275 275 275 276 276 275 275 274 274 274 273 272 272 272 271 271 270 270 270 270
280 280 280 280 280 280 279 279 279 278 278 278 276 274 273 274 274 273 273 272 273 274 275 275 274 273 273 274 274 274 274 273 273 272 271 270 269 268 268 269 269 268 266 266
278 278 278 277 277 277 277 277 277 276 277 277 275 274 274 274 274 274 272 271 274 275 274 273 273 272 272 272 274 273 272 271 271 270 268 267 267 267 267 266 266 264 264 263
276 276 276 276 276 276 277 277 277 277 276 276 275 275 274 273 273 273 274 273 275 273 272 271 270 270 270 272 273 271 271 270 269 268 266 265 263 262 261 260 260 260 258 255
277 277 277 276 275 275 276 276 276 276 275 275 274 274 274 275 275 272 271 275 273 271 270 269 269 268 268 271 270 269 267 266 266 265 266 265 265 263 260 260 261 256 255 258
278 278 277 277 277 276 275 276 276 276 275 275 275 275 274 272 272 273 273 272 270 270 269 268 268 267 266 266 265 264 264 262 262 261 260 259 256 255 258 256 257 259 258 256
275 275 275 276 275 275 276 276 276 275 274 274 274 275 274 274 272 272 271 271 271 268 266 265 265 265 265 263 262 261 261 263 263 261 261 258 256 254 253 255 259 258 257 256
274 273 273 273 272 273 273 273 271 273 273 272 272 272 272 272 272 271 270 268 269 268 269 264 264 265 261 259 257 256 256 257 260 260 256 254 252 253 255 257 257 256 253 251
272 272 272 272 272 271 270 269 269 268 270 270 269 270 270 270 269 268 266 266 268 265 262 262 264 264 262 259 260 259 255 254 255 256 254 251 250 250 254 254 252 249 249 249

GFSNGP_sfc_thetae_042.txt.gz
Theta_e
293 295 294 293 294 294 292 292 288 290 292 297 298 300 301 302 301 303 302 302 307 308 309 311 314 316 318 318 320 321 319 319 318 320 322 319 315 313 311 311 309 308 306 304
287 294 294 291 293 295 295 294 293 293 293 301 303 303 302 302 303 303 302 302 307 309 310 314 316 315 316 317 317 320 321 321 318 317 316 313 310 307 305 305 304 302 301 300
282 290 291 286 291 294 295 296 296 291 296 301 300 301 301 302 303 303 302 302 303 310 312 315 316 315 314 314 315 315 316 316 315 313 311 309 307 305 303 300 299 298 298 298
282 286 280 292 296 297 295 296 296 295 296 299 302 304 302 303 304 303 302 302 307 311 312 314 312 311 311 312 311 309 309 308 308 307 306 305 302 299 295 296 295 292 292 293
282 282 288 291 295 293 292 293 297 296 298 298 299 296 298 303 305 305 302 305 310 313 311 311 310 309 309 307 306 306 305 304 304 302 300 298 295 294 293 293 292 292 293 292
283 279 280 289 297 301 299 287 297 300 299 298 298 289 293 301 303 303 306 308 308 308 309 307 305 306 305 303 303 302 301 299 299 298 296 294 293 292 292 291 292 293 291 291
282 281 286 296 297 301 289 289 300 301 300 299 295 297 299 303 304 306 307 306 306 307 307 304 304 304 302 301 299 300 299 298 297 296 295 294 293 293 292 291 290 288 287 286
284 282 281 299 298 292 296 301 304 304 300 299 300 301 302 303 303 304 303 303 304 303 301 301 302 302 299 298 298 298 298 297 296 295 296 295 293 293 292 291 286 284 282 281
287 286 298 301 300 302 304 303 303 302 304 302 301 301 302 302 303 303 303 302 303 301 299 298 300 301 297 296 297 297 296 295 295 295 295 294 292 290 289 287 284 282 280 278
291 294 296 299 301 303 303 304 305 305 305 305 302 303 301 302 301 301 300 300 300 299 298 296 297 298 297 297 297 296 294 293 290 286 285 285 284 285 283 281 281 282 280 278
292 295 297 299 302 303 302 305 306 305 306 304 303 303 302 301 301 300 299 299 300 298 296 295 296 296 296 295 294 290 288 285 283 282 282 279 278 279 280 280 281 280 279 279
288 295 294 296 301 303 302 304 305 304 305 306 306 304 302 300 299 299 298 298 296 295 294 293 293 292 292 291 289 286 284 282 280 280 280 279 278 278 282 282 282 281 280 278
294 298 299 301 301 304 303 303 307 306 305 304 307 305 302 298 298 295 297 295 294 288 286 286 286 285 287 287 286 283 281 281 281 280 279 279 279 279 277 279 281 280 280 279
295 299 298 298 297 300 301 301 303 303 303 302 303 301 300 297 296 294 291 287 285 284 282 282 282 282 284 284 283 282 281 282 281 280 280 280 280 279 278 278 276 277 279 278
292 295 295 298 297 295 297 298 295 292 292 292 297 297 295 291 286 284 283 282 281 280 280 280 279 280 282 282 281 280 279 279 279 279 279 279 279 279 279 278 277 277 277 276
292 292 292 290 289 288 289 288 286 284 284 284 283 282 282 281 280 279 279 280 278 277 279 278 278 279 280 281 280 279 279 279 279 278 278 278 278 277 276 276 276 275 275 273
288 287 288 288 286 284 283 283 282 281 280 279 279 279 278 277 276 276 276 277 277 277 277 277 277 279 279 278 278 277 277 277 277 277 276 276 275 274 275 274 274 273 272 271
287 286 286 285 284 282 280 280 279 279 278 278 278 277 276 275 275 275 274 274 274 273 274 275 276 276 276 277 277 276 276 275 275 275 274 273 273 274 273 273 272 271 271 271
282 281 281 281 281 279 279 278 278 278 278 277 276 275 274 274 274 274 274 273 272 271 272 274 276 275 275 276 275 275 274 273 274 273 273 271 271 271 270 270 270 270 270 269
278 278 278 277 278 278 277 277 277 276 276 275 274 273 272 272 273 272 272 271 272 273 274 273 273 273 273 274 274 274 273 272 272 271 271 270 270 268 269 269 268 267 266 266
276 276 276 276 276 276 276 276 275 274 275 275 273 272 272 273 273 273 271 269 271 272 272 272 272 272 273 274 273 272 271 270 270 269 268 267 266 266 265 264 263 262 261 260
275 275 275 275 275 275 276 276 276 275 275 274 274 273 273 272 273 272 272 270 271 271 270 270 270 270 272 271 271 270 269 268 268 267 266 265 264 263 262 261 260 258 255 252
276 276 275 275 274 274 275 274 274 274 273 272 272 272 272 272 272 270 268 271 271 269 269 269 269 269 269 268 267 266 265 264 263 262 260 260 259 258 258 257 258 257 254 255
275 276 275 276 276 274 272 273 274 274 273 274 273 273 272 270 270 271 270 269 268 268 268 267 267 267 266 265 263 262 262 261 259 257 258 254 250 250 252 250 253 252 255 255
273 273 272 273 272 271 273 274 273 273 272 272 272 272 272 272 269 269 269 269 269 267 265 265 264 261 259 258 258 257 255 254 254 252 251 249 248 248 248 249 251 252 251 251
272 271 270 270 270 270 270 270 270 271 270 268 269 268 268 270 270 269 268 267 266 265 265 264 263 260 258 258 255 253 252 252 254 254 250 248 247 248 249 249 249 248 247 246
269 269 269 268 268 267 267 267 266 266 266 264 264 265 265 264 264 265 261 262 260 259 257 254 255 255 254 252 252 251 252 251 253 252 248 246 247 248 248 246 245 244 244 245

GFSNGP_sfc_thetae_045.txt.gz
Theta_e
290 291 292 291 292 293 290 291 287 289 290 294 297 298 299 301 299 300 299 301 303 304 305 307 309 312 313 315 317 318 318 318 319 320 321 320 320 320 320 319 318 313 311 308
285 292 290 288 291 292 293 292 290 291 290 297 300 299 299 300 300 300 300 301 303 305 306 308 311 313 314 313 313 317 317 318 319 316 317 317 316 313 311 309 308 309 306 303
281 286 288 282 288 291 293 294 294 290 294 298 298 299 299 301 301 301 301 301 301 304 308 310 314 315 314 313 315 316 316 316 316 315 315 312 310 308 306 304 302 301 301 301
281 283 276 287 293 293 293 295 296 296 297 299 299 300 301 303 303 302 302 301 301 302 307 311 312 311 311 313 314 316 316 315 314 312 308 306 305 303 300 300 299 298 297 298
278 279 284 286 291 292 289 290 297 296 297 298 299 297 295 300 302 303 304 304 304 303 308 311 311 310 310 308 310 311 309 309 308 307 305 303 300 298 296 296 295 294 295 295
283 276 274 285 293 298 298 288 297 300 296 297 298 291 294 299 301 301 302 301 305 307 309 310 308 309 307 305 305 306 306 304 305 304 302 299 295 294 291 292 291 292 289 288
283 281 282 292 296 300 286 287 299 302 300 299 293 298 300 299 299 301 302 305 307 308 308 308 307 307 304 303 302 301 300 299 299 299 297 294 292 292 290 290 289 288 285 285
284 281 279 296 298 291 295 299 301 303 301 299 300 299 300 300 301 303 303 304 306 305 302 304 305 304 301 298 298 298 297 295 295 295 294 293 291 291 290 289 286 284 282 280
285 284 294 300 299 301 301 301 302 302 303 302 300 299 300 300 301 302 302 302 303 301 298 299 300 302 297 296 297 296 295 294 293 293 292 292 290 289 287 286 285 283 281 279
288 292 294 297 300 301 303 303 304 304 303 303 301 300 299 299 299 299 299 299 299 299 297 296 297 297 297 297 296 295 293 290 289 286 284 285 285 286 284 284 284 282 280 278
289 293 296 298 299 301 303 304 303 305 303 304 303 301 299 299 299 299 298 298 298 297 295 294 295 295 295 295 294 289 286 285 283 281 281 281 281 282 281 281 283 281 279 277
285 294 294 296 299 301 301 301 304 303 303 303 304 304 301 299 299 298 297 297 294 294 293 292 292 290 290 291 289 285 283 282 280 280 279 279 278 279 282 282 282 282 281 279
292 293 295 297 301 299 300 300 303 303 301 300 302 304 300 297 298 293 291 288 288 287 287 286 285 284 285 286 285 283 281 281 280 280 279 278 278 278 276 279 281 280 280 279
292 293 295 296 293 293 293 295 292 290 289 291 297 299 296 291 287 286 285 284 284 283 282 282 282 281 283 283 283 282 282 282 281 281 280 279 279 279 279 277 276 277 279 279
290 293 292 293 290 287 288 288 285 284 283 282 283 285 284 281 280 280 281 281 281 280 280 280 279 280 281 282 281 280 280 279 279 279 279 279 279 279 279 278 278 277 277 277
288 291 291 288 286 284 283 282 281 280 280 279 278 278 278 278 278 278 278 279 278 277 278 278 278 279 281 281 280 279 279 279 278 278 278 277 277 277 277 276 276 275 275 274
285 285 284 285 284 282 281 281 280 279 278 278 277 278 277 276 276 275 275 276 275 275 276 276 276 278 278 278 278 277 277 277 276 276 275 275 274 274 274 274 273 272 271 271
284 283 282 282 281 279 279 279 278 278 277 277 276 275 275 274 273 273 273 274 273 273 274 275 275 276 276 276 276 276 275 275 274 273 273 273 273 273 272 272 271 271 271 271
279 279 279 279 278 277 277 276 276 276 276 275 274 273 273 273 272 272 272 271 271 270 271 274 276 275 274 275 274 274 273 273 272 272 272 271 270 270 270 270 269 269 268 267
277 277 277 276 277 277 276 276 276 275 275 274 273 272 271 271 271 270 270 268 270 271 272 273 273 273 273 273 273 272 271 271 271 270 270 269 268 268 268 267 267 265 263 263
275 275 275 274 274 275 275 275 274 273 273 273 272 271 271 271 271 271 269 268 269 271 271 272 272 272 272 272 271 270 269 269 268 267 265 265 264 263 262 262 262 261 258 257
274 274 273 273 273 273 274 274 273 273 273 273 273 272 270 269 269 269 269 268 269 270 270 270 270 269 269 269 269 267 267 266 265 264 263 263 261 259 258 257 256 255 253 252
275 274 274 273 273 273 273 273 273 272 271 271 270 270 270 271 270 268 266 269 270 269 269 267 267 266 265 265 264 263 262 261 261 260 258 256 255 253 252 252 252 250 251 254
273 273 273 274 274 273 271 272 272 272 271 271 270 270 270 267 267 268 268 266 265 265 264 263 262 261 260 260 259 257 256 254 252 250 252 249 246 246 246 246 248 248 248 249
271 271 271 271 270 271 271 271 270 270 269 269 269 270 270 269 266 266 266 265 265 263 262 259 258 256 254 253 252 250 249 248 248 247 246 246 245 245 245 246 246 246 245 245
270 268 268 268 268 268 269 269 266 266 266 265 265 264 264 266 266 265 263 261 261 259 257 253 253 253 252 251 248 247 248 251 249 248 246 245 245 246 245 246 244 244 243 242
267 267 267 266 266 265 265 264 264 262 259 257 260 261 262 263 261 260 256 255 254 252 250 249 248 250 249 247 248 248 248 248 247 248 244 244 245 245 245 244 242 242 241 241

GFSNGP_sfc_thetae_048.txt.gz
Theta_e
292 292 291 290 288 289 287 288 284 287 288 291 294 296 298 299 299 298 299 298 301 301 304 307 309 311 313 314 315 315 313 312 313 314 315 315 316 316 318 318 318 319 318 315
285 291 290 287 289 289 290 290 289 290 289 294 298 297 296 298 299 299 299 300 300 303 303 304 307 309 312 313 314 315 315 314 315 315 316 316 316 317 318 318 318 318 314 309
280 286 286 281 285 289 289 290 290 286 291 296 296 297 297 298 299 299 300 300 300 301 305 305 306 308 309 311 310 314 315 315 315 316 315 316 318 318 317 315 311 309 306 305
280 282 276 284 291 291 289 291 293 292 293 296 298 299 299 300 300 300 301 301 300 300 301 305 307 309 309 311 311 311 312 312 313 314 315 315 312 310 305 305 306 302 301 301
276 278 282 285 287 288 289 287 293 291 295 299 299 296 296 298 300 301 302 302 303 304 302 304 309 309 311 312 311 311 312 313 314 313 308 307 305 303 301 301 300 299 298 297
282 275 271 282 291 297 295 283 295 297 297 298 299 289 295 299 299 299 300 300 300 300 304 307 308 310 309 311 314 311 310 309 308 307 305 303 299 297 296 295 293 292 290 291
282 280 281 289 293 297 282 283 296 296 296 297 295 297 300 303 302 300 300 299 304 306 306 306 307 309 306 308 308 305 304 304 303 302 299 296 294 294 293 290 288 286 285 285
283 280 276 292 295 288 292 297 296 297 299 298 300 301 302 300 299 299 300 301 302 304 302 303 306 306 302 299 299 300 299 298 296 296 295 294 293 292 290 287 285 283 282 281
283 283 290 296 297 300 299 296 298 298 300 300 300 300 301 299 299 299 299 300 301 299 298 299 301 301 296 295 297 298 297 294 293 292 292 292 290 289 287 286 284 283 281 279
286 289 291 293 295 297 300 300 302 301 301 302 301 301 301 298 298 297 297 297 298 298 296 296 298 297 297 298 296 295 291 289 288 287 286 286 286 287 286 285 283 283 281 279
287 290 292 294 296 298 299 301 302 302 302 301 302 302 301 299 297 296 295 296 296 294 294 293 295 295 296 295 292 288 286 285 284 283 283 281 281 282 283 284 285 283 281 279
282 290 291 292 296 294 296 296 298 301 301 302 299 298 300 296 296 296 294 293 291 290 289 289 289 289 289 290 288 286 283 283 282 282 281 281 281 280 283 283 283 282 281 279
290 291 291 292 295 292 291 291 292 291 289 288 293 295 294 290 288 288 288 287 286 284 284 283 283 283 284 286 285 284 281 281 280 281 280 279 279 278 276 279 281 281 281 280
292 291 291 292 289 289 288 288 289 286 284 283 284 285 283 283 282 281 281 282 282 282 281 281 280 280 282 283 282 282 281 281 280 280 280 279 279 278 278 277 276 277 279 279
288 289 291 290 287 285 285 285 282 280 280 279 280 280 280 278 279 279 280 281 280 280 280 280 280 280 282 282 281 281 280 280 280 279 280 279 279 279 279 278 276 276 276 276
285 288 288 287 283 282 281 281 279 278 279 278 278 277 277 277 277 277 277 278 277 276 277 277 277 279 280 280 279 278 278 278 278 277 277 277 277 276 276 276 275 275 274 273
282 282 282 282 281 279 279 280 279 278 278 277 277 277 277 276 275 274 274 275 274 274 274 274 275 277 277 277 277 276 275 275 275 275 274 274 274 274 274 273 272 271 270 271
281 280 280 279 278 278 277 277 277 276 275 275 274 274 272 272 271 271 272 273 272 272 273 274 275 275 275 275 275 275 274 273 273 273 272 272 271 272 271 271 271 270 269 268
278 277 278 278 277 276 276 275 275 274 274 273 272 270 270 270 270 270 271 270 270 270 271 273 275 273 273 274 273 273 272 271 271 271 270 270 269 269 268 268 267 267 266 266
276 276 276 275 275 275 273 274 274 273 273 272 271 270 269 269 270 269 269 268 269 270 272 272 272 271 271 272 272 271 270 270 269 268 268 267 265 264 265 264 264 261 258 258
273 274 273 273 272 273 273 273 273 271 271 271 269 268 268 268 269 269 268 267 269 271 270 270 270 270 270 270 269 268 267 266 265 264 263 262 260 259 257 254 254 252 251 252
273 273 272 272 272 271 272 272 272 271 271 271 270 269 268 268 268 267 268 267 269 269 268 268 267 267 267 267 266 265 264 263 261 260 258 256 253 251 248 248 248 248 248 249
273 273 273 272 271 271 271 271 270 270 269 269 268 268 268 268 268 266 265 268 267 266 265 263 262 261 260 260 259 257 257 256 255 253 251 248 246 246 247 247 246 246 247 248
272 273 273 273 273 271 269 270 270 270 269 269 267 268 267 265 265 267 265 263 261 260 259 258 257 257 255 255 254 253 251 250 248 246 247 246 243 243 244 244 246 244 245 245
271 270 271 270 270 269 269 269 268 268 267 267 267 268 268 267 264 264 263 262 262 259 256 254 254 252 250 248 248 247 247 246 245 245 244 244 243 243 243 243 243 243 243 242
269 268 267 268 267 267 267 266 264 264 265 263 263 262 262 263 263 261 259 258 257 255 252 248 247 247 246 247 245 245 246 248 246 246 244 244 244 245 244 244 242 242 241 241
266 266 266 265 264 264 263 263 261 258 255 255 257 259 260 258 255 256 251 250 249 248 246 245 246 247 246 246 246 246 246 246 245 245 242 243 243 242 242 241 240 240 239 240

GFSNGP_sfc_thetae_051.txt.gz
Theta_e
291 292 292 291 290 290 289 290 286 290 291 295 298 300 302 304 304 304 305 305 304 306 310 313 315 317 318 318 317 316 314 314 314 315 316 317 318 319 319 319 319 320 320 321
287 292 291 288 290 290 290 291 291 292 291 299 301 301 300 301 303 303 304 306 306 305 307 309 312 315 317 318 318 317 316 314 315 316 316 316 317 318 319 319 319 320 320 320
282 287 287 283 288 289 290 292 292 288 293 298 298 299 302 302 303 303 305 306 306 306 306 308 310 313 315 317 319 318 317 317 317 317 317 318 318 317 318 319 320 320 320 318
282 284 276 287 292 292 291 292 294 294 296 297 298 302 304 305 303 303 305 306 307 307 308 309 311 312 314 316 317 317 317 318 318 318 317 318 318 318 319 319 317 315 311 308
281 281 284 287 289 289 288 288 294 295 299 300 301 302 303 304 303 304 305 306 307 309 309 309 309 312 312 313 314 315 316 317 318 319 318 318 317 310 306 304 301 300 300 300
283 279 276 285 294 299 297 285 298 299 298 298 300 294 300 306 306 306 308 308 306 306 307 307 309 313 313 313 313 313 314 316 317 317 312 309 304 301 298 297 294 292 291 292
283 281 284 291 294 298 285 288 297 299 300 299 298 300 303 305 306 307 305 305 305 306 306 309 311 313 313 315 315 312 311 310 310 309 305 300 296 296 293 290 288 286 285 286
284 281 278 294 297 290 295 300 300 300 301 301 302 302 303 305 305 304 303 304 307 308 308 308 311 312 311 307 305 304 302 300 299 298 298 296 293 291 290 288 285 284 283 282
287 287 294 296 298 302 300 300 301 301 302 303 301 301 303 304 304 302 302 302 303 304 304 305 307 305 300 299 301 299 297 296 296 296 293 293 290 288 287 287 285 284 282 280
287 292 294 296 297 298 298 299 300 302 303 303 302 302 302 303 302 300 300 300 301 301 299 298 300 302 301 300 299 296 292 290 290 288 288 288 289 288 286 285 284 283 282 280
289 292 294 296 297 295 295 296 296 297 300 295 295 296 298 299 295 296 296 296 296 295 293 293 294 294 296 296 294 290 288 287 287 286 284 283 283 285 285 286 288 286 284 282
287 290 290 292 296 294 292 291 292 291 292 290 289 289 292 288 288 287 288 290 289 288 289 288 289 289 289 291 291 290 288 287 286 286 285 284 282 281 283 283 282 282 281 280
290 292 293 294 295 290 289 288 289 287 286 284 286 285 286 284 284 284 284 284 283 282 283 283 285 284 285 286 287 286 284 284 283 283 283 281 280 279 278 280 282 281 281 281
291 290 292 292 288 288 287 287 286 284 283 282 283 283 282 282 282 281 280 281 282 282 281 281 281 281 283 283 283 282 281 281 281 281 280 280 279 279 280 279 278 279 280 280
286 288 288 290 287 284 285 284 282 280 280 279 280 280 279 278 278 278 279 279 279 279 279 279 279 279 281 282 281 281 280 280 280 280 280 281 281 281 280 279 278 277 276 276
283 286 287 285 282 281 281 281 280 279 279 279 278 277 277 276 276 276 276 276 275 274 276 276 276 277 279 279 278 278 278 278 278 279 278 278 278 278 278 277 277 276 275 274
280 281 280 280 279 278 278 279 278 278 277 276 275 276 275 274 273 273 273 274 273 273 274 274 274 276 277 277 277 277 277 276 276 275 275 275 275 275 275 274 274 273 272 272
280 279 279 279 278 277 276 276 276 275 274 274 274 273 272 271 270 271 272 273 272 272 273 274 275 275 275 276 276 276 275 275 274 274 274 274 274 274 273 273 272 271 270 269
278 277 277 277 277 276 275 274 274 273 273 272 271 270 270 270 270 270 271 271 270 270 271 273 274 273 274 274 275 275 274 273 273 272 272 271 271 271 270 270 269 269 269 268
275 275 275 274 275 274 273 273 273 272 272 271 271 270 269 269 270 270 269 268 269 270 271 271 271 271 271 271 272 272 272 271 270 269 269 269 268 268 267 266 267 267 267 266
273 273 273 272 272 272 272 272 271 270 270 270 268 268 268 268 269 270 268 266 268 269 269 269 270 269 269 270 270 269 269 268 267 266 266 266 265 265 264 265 264 264 264 264
273 272 271 271 270 270 271 272 271 271 270 270 270 269 269 268 267 266 267 266 267 267 267 267 267 265 266 267 267 266 266 265 265 265 264 264 264 263 262 262 262 262 262 262
273 272 272 271 270 270 271 270 270 269 268 268 267 267 267 267 268 266 264 266 267 266 266 265 263 262 263 265 264 264 263 263 262 262 262 262 262 261 261 261 260 261 260 260
272 272 272 272 272 271 269 270 270 270 269 268 267 268 268 266 266 267 266 263 262 263 262 262 260 259 261 262 262 261 262 262 261 261 260 258 260 259 260 259 259 259 259 258
271 271 271 270 270 269 269 269 268 268 267 267 267 267 267 267 265 265 264 263 263 262 261 257 257 257 261 261 261 260 260 261 260 260 259 259 259 258 258 258 257 257 257 256
269 268 268 268 268 268 268 267 266 266 266 264 264 264 264 264 264 263 262 261 261 259 260 259 258 259 260 260 259 259 260 260 260 259 258 258 258 258 257 256 256 255 255 254
267 267 267 266 265 265 265 265 264 262 262 263 262 263 262 262 261 261 258 260 260 259 259 258 258 258 259 260 260 259 259 259 255 258 257 257 257 256 255 254 254 254 253 253

GFSNGP_sfc_thetae_054.txt.gz
Theta_e
292 292 292 292 293 293 292 293 290 293 293 297 299 300 304 307 307 308 309 310 312 313 314 317 321 323 323 324 324 324 322 321 322 324 323 322 322 322 322 322 322 321 322 322
288 291 292 290 292 293 293 293 293 294 294 301 302 303 302 303 304 306 308 309 311 313 313 313 316 320 322 323 323 323 321 321 322 322 322 322 321 322 321 322 321 322 321 321
284 290 289 285 290 292 294 296 294 290 295 299 298 299 301 302 305 306 308 309 310 311 313 314 315 317 319 322 325 323 322 321 321 321 321 321 321 321 320 321 322 321 321 321
286 287 279 290 295 294 293 294 296 295 296 299 301 304 306 308 307 307 308 310 312 313 313 314 316 316 318 320 322 323 321 321 321 321 320 321 320 320 320 321 322 322 321 321
284 284 287 289 292 292 291 290 296 297 298 300 302 304 304 309 308 309 310 311 312 314 315 316 314 315 314 317 320 322 321 321 322 322 320 321 320 321 322 321 320 314 312 310
286 280 278 289 295 299 298 288 299 299 300 300 302 296 301 307 309 310 311 311 310 311 313 313 313 314 314 314 316 318 320 321 323 322 322 321 322 321 311 306 296 294 292 293
285 284 287 294 296 298 288 291 300 301 301 301 300 303 306 308 309 310 310 309 310 311 312 314 314 314 313 314 314 317 318 319 321 322 321 317 309 302 296 292 289 287 286 287
286 282 280 297 296 291 299 302 301 302 302 303 305 306 306 307 307 308 307 307 308 309 310 313 314 316 315 315 315 316 314 310 307 305 302 300 296 294 293 290 287 285 284 283
289 289 297 300 300 302 303 301 302 303 304 306 305 305 304 305 306 305 305 304 304 304 304 303 306 312 312 306 306 304 301 298 296 295 294 294 295 292 289 288 286 284 282 281
292 295 297 298 301 301 301 301 301 302 303 304 304 305 303 304 301 300 296 298 296 295 294 293 294 296 300 300 299 296 293 292 291 291 291 291 290 289 287 286 284 283 282 280
292 295 297 298 300 300 299 300 299 300 298 298 297 299 297 298 294 293 288 288 290 289 288 289 291 291 293 293 293 290 289 288 287 286 284 283 283 285 284 286 286 283 282 281
289 296 296 296 299 297 297 296 296 295 295 295 294 293 293 291 290 287 285 285 285 285 284 284 284 287 289 292 291 288 286 286 285 284 283 282 281 280 283 283 282 282 282 281
294 296 296 298 299 294 294 293 292 291 291 289 290 290 289 287 285 284 283 282 282 282 282 283 283 283 284 286 286 285 284 284 283 282 282 281 281 280 278 280 282 282 282 282
292 290 293 291 291 290 289 289 289 289 288 287 287 287 285 283 282 281 279 279 279 279 279 280 280 280 283 284 283 282 282 282 281 281 281 281 280 280 280 279 278 279 281 281
287 288 287 289 287 285 286 286 287 284 284 283 282 282 280 278 278 277 278 279 278 277 277 278 278 278 281 281 280 281 282 282 282 282 282 283 282 281 281 279 278 277 277 277
286 288 287 285 283 282 282 282 283 280 280 279 278 278 276 276 276 275 275 276 274 273 275 275 275 277 279 281 280 280 280 280 280 280 280 280 280 279 279 278 277 276 276 276
283 284 283 282 281 279 278 279 278 277 276 276 276 277 276 275 275 274 274 274 273 274 275 275 275 278 279 280 281 279 279 278 279 279 279 279 279 278 278 277 275 274 273 274
281 281 281 281 280 278 277 277 276 276 275 275 274 274 273 273 272 273 273 274 273 272 274 275 277 277 278 279 280 280 279 278 278 277 277 277 277 277 276 275 275 273 273 272
279 279 279 279 279 277 276 275 274 274 274 274 273 272 272 271 271 271 272 272 272 271 272 274 275 275 275 277 278 278 277 277 276 275 275 274 274 274 274 273 273 272 272 272
276 276 276 276 276 275 273 274 274 273 273 273 272 272 271 271 271 271 270 269 269 270 272 273 274 273 273 274 275 275 275 274 273 273 273 273 273 272 271 270 271 271 271 270
274 274 273 273 273 273 273 273 272 271 271 272 270 269 268 269 270 271 270 268 269 270 271 270 271 272 272 273 273 273 273 272 271 271 271 270 270 270 270 270 269 269 269 269
274 273 272 272 272 271 272 272 272 271 271 271 271 270 269 269 268 268 268 268 269 268 269 269 268 267 269 270 271 270 270 270 270 270 269 269 269 268 267 267 267 267 267 267
273 273 272 272 271 272 272 271 271 271 270 269 269 269 269 270 271 269 267 268 269 268 268 267 265 266 267 269 269 268 268 267 267 267 267 267 267 267 266 266 266 266 265 265
274 274 273 274 274 273 271 272 272 271 270 270 269 270 271 270 269 270 269 266 265 266 265 265 265 265 266 268 267 267 267 267 266 266 265 264 266 265 265 264 264 265 264 263
273 274 274 273 273 272 272 271 271 270 270 270 269 269 269 270 269 268 268 266 265 266 266 263 263 264 267 266 266 265 266 265 265 265 265 265 264 264 264 264 262 262 261 262
272 272 272 272 272 272 272 272 271 271 270 269 269 269 269 269 268 268 266 265 265 265 265 265 264 266 266 265 265 264 265 265 265 264 263 264 263 263 262 261 261 261 260 260
272 272 272 271 271 270 271 270 270 269 269 269 267 268 268 268 267 267 265 266 266 265 265 265 265 264 264 265 264 264 264 265 260 263 263 263 262 262 260 260 260 260 259 258

GFSNGP_sfc_thetae_057.txt.gz
Theta_e
294 295 295 295 296 296 295 296 292 295 296 300 302 303 304 305 305 305 308 311 312 313 315 316 320 324 325 326 328 328 326 325 325 327 328 328 328 328 328 328 327 327 326 326
291 293 293 292 295 296 296 295 295 296 295 302 304 305 303 303 303 303 305 309 311 313 314 314 316 318 323 325 327 328 327 327 327 327 326 327 327 327 327 327 327 327 325 325
284 291 291 287 292 294 295 297 297 293 298 301 300 300 301 303 305 305 308 309 311 313 314 315 316 318 318 322 326 326 327 327 327 328 326 327 327 326 325 326 326 325 325 325
286 288 279 292 297 296 296 297 299 297 298 299 301 303 304 306 308 308 309 310 312 313 314 315 316 317 319 318 321 324 325 325 326 326 326 326 326 325 325 325 325 325 325 325
285 285 289 291 293 293 292 292 297 296 299 301 303 304 304 308 309 309 311 311 312 313 313 314 315 317 317 316 317 319 322 325 325 326 325 325 324 324 325 325 325 324 324 323
288 282 280 290 296 300 298 288 300 300 300 300 302 297 301 308 309 310 310 311 310 311 312 313 315 316 317 315 315 316 320 324 326 325 324 323 324 324 325 324 318 303 295 295
286 284 288 295 298 298 288 291 301 301 301 301 299 301 306 308 309 310 310 309 309 308 308 307 307 308 311 316 316 316 318 320 324 325 324 325 325 324 311 301 294 290 288 288
286 283 281 298 297 291 299 302 302 302 303 303 305 306 306 308 308 308 307 306 306 304 302 300 298 298 302 310 316 319 320 319 314 314 311 308 303 299 296 292 288 286 285 285
289 289 298 301 302 303 303 302 302 302 303 304 303 304 306 307 307 305 304 302 301 300 297 293 290 292 293 298 304 306 307 302 299 297 297 296 294 292 290 289 287 285 284 281
292 296 297 299 303 303 303 302 303 303 302 302 302 303 303 302 302 300 299 297 296 294 292 287 286 287 289 294 295 294 292 292 291 290 289 289 290 290 289 287 286 284 282 280
293 296 298 299 302 302 301 302 301 301 301 300 299 299 299 299 296 293 292 291 291 288 288 284 285 285 286 290 291 288 287 286 285 284 283 282 283 284 284 285 285 282 281 280
291 298 298 299 300 301 298 298 298 297 297 297 297 295 295 293 289 286 286 284 284 283 284 282 282 283 284 286 287 286 284 284 283 282 282 281 280 280 283 283 283 282 282 281
296 297 298 299 300 298 296 295 294 294 293 292 293 292 290 286 284 283 283 281 280 280 280 281 280 280 283 284 284 284 283 283 282 282 281 280 279 278 277 280 282 282 282 282
295 294 295 294 293 293 293 293 293 291 290 288 287 287 285 282 281 280 279 279 279 278 278 279 279 279 281 283 283 283 283 282 282 281 281 281 280 279 279 278 276 277 280 280
291 292 292 293 290 288 288 288 287 285 283 282 281 280 279 278 277 277 278 278 278 277 277 278 278 279 281 282 281 281 282 282 283 283 282 281 280 279 278 277 276 276 277 277
289 291 289 287 286 286 286 285 283 281 280 279 278 277 276 276 276 276 276 276 275 275 276 276 277 280 282 282 281 281 281 281 281 281 281 281 280 279 278 277 277 277 276 278
284 286 284 284 283 282 281 281 280 279 278 277 277 278 278 277 276 275 275 275 274 275 275 275 276 278 280 282 281 281 280 280 280 281 281 280 280 278 277 276 274 273 274 275
282 282 282 282 282 281 279 279 278 278 276 276 276 275 274 273 273 273 274 275 274 273 274 275 276 277 278 279 280 280 279 278 278 278 278 278 278 277 277 275 274 273 273 273
280 280 280 280 280 278 277 276 276 276 275 275 273 272 272 272 272 272 272 272 272 271 272 275 275 275 276 277 278 278 277 277 277 276 276 275 275 275 274 274 274 273 273 272
277 277 277 276 277 275 274 275 275 274 275 274 273 272 271 272 273 272 271 269 270 271 271 272 274 274 274 275 276 276 276 275 274 273 274 274 274 273 272 272 272 272 271 271
275 275 274 274 274 274 274 274 273 272 272 272 270 269 269 269 269 272 272 269 270 271 271 271 271 273 273 274 274 274 274 273 273 273 272 272 272 271 271 271 271 271 271 270
275 274 273 273 273 272 273 273 273 272 272 272 272 272 272 271 270 269 269 270 270 270 270 270 270 269 271 272 272 272 271 271 271 271 271 271 270 270 269 270 269 269 269 269
275 274 274 273 272 272 272 272 272 272 271 271 270 270 270 270 271 270 267 269 269 268 269 268 267 268 269 272 271 271 270 270 269 269 269 269 269 269 268 267 268 268 267 266
276 276 275 276 276 275 273 273 273 272 271 271 270 271 273 272 271 271 270 268 267 267 266 266 267 268 269 270 270 269 269 269 269 269 269 267 268 267 267 266 266 267 266 265
276 276 276 276 275 274 273 273 273 272 272 272 271 271 271 271 270 269 270 269 266 269 269 265 266 267 269 269 268 268 268 267 266 268 267 267 267 266 266 266 265 264 264 264
275 274 274 274 275 275 275 275 274 274 273 272 271 271 271 271 271 271 269 268 268 268 268 268 267 268 268 267 267 267 267 267 267 266 265 266 265 265 264 264 263 263 263 263
275 275 274 274 273 273 273 273 273 272 272 272 270 271 271 270 269 270 268 269 269 268 268 268 268 266 266 266 267 267 267 267 263 264 265 265 264 264 263 262 263 262 262 261

GFSNGP_sfc_thetae_060.txt.gz
Theta_e
293 295 294 294 294 295 294 294 290 294 295 299 301 303 304 305 304 303 305 308 310 311 313 314 315 316 322 325 327 326 324 323 322 324 325 325 324 324 324 324 325 324 323 322
289 294 294 291 295 295 295 296 295 296 294 303 304 304 303 303 303 304 306 308 310 311 313 313 314 314 316 318 325 328 325 324 324 323 324 324 324 324 325 324 324 325 324 323
285 291 291 287 291 294 294 296 296 291 297 301 300 300 301 303 304 306 307 308 309 310 311 312 313 315 314 316 317 322 325 325 325 325 323 323 324 324 323 323 324 323 322 322
284 287 279 291 297 297 295 296 298 298 299 299 300 302 303 307 306 306 306 308 308 309 309 312 314 314 315 316 318 316 319 324 326 325 325 324 323 323 322 323 322 322 321 321
283 283 288 291 293 293 292 292 298 296 298 300 302 302 304 307 308 307 307 308 307 308 308 309 308 307 307 310 313 316 317 316 323 325 324 324 323 322 323 322 321 321 321 320
286 281 279 290 296 299 297 288 299 300 300 299 300 296 299 306 307 308 308 307 305 305 306 304 301 301 301 304 307 311 313 318 319 321 324 323 323 322 322 322 320 313 296 295
284 283 287 294 297 298 286 290 300 301 301 300 298 301 304 307 307 308 307 305 303 302 301 299 295 295 296 297 299 300 305 312 310 311 320 322 322 321 320 306 294 289 287 287
285 282 280 297 297 291 298 301 301 301 302 302 302 303 303 305 305 304 302 301 299 297 297 295 292 291 291 291 294 296 300 305 302 301 303 304 303 298 297 293 289 286 285 284
288 287 298 301 301 302 303 300 300 300 301 301 301 301 302 301 301 299 297 295 294 293 292 291 290 289 287 289 292 293 293 293 292 292 293 294 294 292 290 289 287 285 283 282
291 294 296 300 302 302 302 300 300 300 300 300 298 299 298 298 294 292 291 288 288 287 286 285 286 286 286 288 290 288 286 286 285 284 284 286 289 290 288 286 284 283 282 280
293 295 296 297 300 299 299 299 297 298 297 296 296 295 294 291 289 287 286 285 284 283 283 282 283 283 285 286 287 285 284 284 283 282 282 281 282 282 282 283 284 282 280 281
290 295 296 294 297 298 296 295 295 294 293 294 293 291 290 286 284 283 282 282 281 280 280 280 282 282 284 285 285 284 282 282 281 281 281 281 280 280 283 283 283 283 283 282
293 295 297 297 295 295 294 294 294 292 290 288 288 287 286 282 281 281 280 279 279 278 279 280 281 281 282 284 284 283 282 282 281 280 280 279 278 278 276 279 282 282 282 282
293 294 295 293 290 291 291 292 292 288 286 284 283 283 282 280 279 278 277 278 278 278 278 279 280 280 282 282 282 282 282 282 281 280 279 278 278 277 277 275 274 276 280 280
290 292 291 291 290 289 289 289 285 283 282 281 280 279 278 276 276 275 277 278 278 277 276 277 278 279 281 282 280 280 280 280 281 280 280 279 278 278 277 276 275 275 276 276
288 290 289 287 286 285 285 284 282 280 280 279 278 277 277 276 276 275 275 275 274 273 274 275 275 278 281 281 280 280 279 279 280 279 278 277 277 275 274 274 274 274 275 275
283 282 283 283 283 281 280 280 280 278 278 278 278 278 277 276 275 274 274 274 273 273 274 274 274 276 279 280 279 278 278 278 278 278 277 277 276 274 274 273 272 272 273 274
282 281 281 281 281 279 278 277 277 276 275 275 274 274 272 271 271 271 272 272 272 270 272 273 275 275 276 277 278 278 277 277 276 275 275 275 275 275 274 273 273 272 272 272
280 279 279 279 279 277 276 275 275 275 274 274 273 272 272 271 271 270 270 269 269 268 269 273 275 275 275 276 277 276 275 274 274 275 274 272 271 273 273 272 271 271 271 270
276 276 276 275 276 275 274 274 274 273 273 273 272 270 269 269 272 270 269 268 269 270 271 271 273 273 273 274 275 274 274 273 273 272 271 271 271 271 271 270 270 270 269 269
274 274 274 273 272 273 273 273 272 271 271 272 270 269 268 269 269 270 270 267 269 270 270 270 270 271 272 272 272 272 272 271 271 271 270 270 269 269 269 269 268 268 268 267
274 273 273 272 272 272 273 273 272 272 271 271 271 272 271 270 268 267 267 268 269 268 268 269 269 269 271 271 271 270 270 269 269 269 268 268 268 267 267 267 266 266 266 266
275 274 273 273 272 272 272 272 272 272 271 270 270 270 270 269 269 267 265 268 268 267 267 267 267 268 268 270 270 269 269 268 268 267 267 267 266 266 265 264 265 265 264 263
276 275 275 275 276 274 272 273 273 272 271 271 269 269 271 270 269 270 268 267 267 265 265 266 265 266 268 268 268 267 266 266 267 267 267 265 266 266 265 263 263 264 262 262
276 276 276 276 274 273 273 273 273 273 272 272 271 271 271 270 269 268 269 268 266 268 268 263 265 266 268 267 266 266 267 265 264 265 265 265 264 264 264 263 262 261 261 261
275 274 274 275 275 275 275 275 274 273 273 271 271 271 271 271 270 270 269 267 268 267 268 268 266 266 267 267 266 266 266 266 264 264 264 264 263 263 262 261 261 261 260 259
275 275 274 273 273 272 272 272 273 271 271 271 270 271 270 270 269 269 268 269 269 268 268 268 268 265 265 265 266 265 265 265 261 262 262 263 262 262 261 260 259 259 258 258

GFSNGP_sfc_thetae_066.txt.gz
Theta_e
289 290 290 291 291 291 290 290 287 290 292 298 301 299 302 303 303 303 302 304 305 305 304 303 302 303 304 305 308 311 318 317 316 317 317 317 317 317 318 318 318 318 317 317
285 289 289 287 292 292 291 293 292 293 293 302 303 303 302 303 302 301 301 302 303 302 300 298 298 298 300 302 304 307 307 306 316 319 319 317 317 316 316 317 317 318 317 317
280 287 286 283 289 292 293 296 295 290 296 301 299 300 300 300 300 299 299 300 300 298 296 294 294 295 296 298 300 300 300 301 303 305 310 317 319 318 316 316 317 317 317 318
279 283 275 289 293 294 294 295 297 297 298 301 300 301 303 301 298 297 298 298 296 294 292 291 292 292 294 295 295 295 295 296 299 301 304 304 306 310 318 318 317 316 316 317
277 278 283 286 292 292 292 290 297 295 299 302 301 298 295 298 297 295 295 295 293 291 290 289 289 290 291 291 290 291 292 293 295 297 297 298 299 301 303 304 316 318 318 318
278 277 274 287 294 297 296 287 297 299 298 299 298 288 290 294 292 291 291 292 290 289 287 286 287 288 289 288 288 288 290 291 291 291 291 292 294 295 298 299 301 312 319 318
278 276 281 292 296 298 284 287 297 297 298 297 293 293 291 291 289 289 288 288 289 286 284 284 284 286 286 286 286 289 289 289 287 287 287 289 289 292 295 295 295 295 293 289
279 277 276 294 295 289 294 298 297 296 296 293 292 291 289 287 286 285 284 285 285 284 282 283 284 285 284 284 287 287 286 285 284 284 284 285 286 286 289 290 289 287 285 284
282 281 292 293 293 297 299 296 296 296 295 293 290 288 287 285 284 283 282 282 282 281 281 281 283 283 283 284 285 284 283 282 282 282 282 283 283 283 284 286 285 284 283 281
288 291 291 292 293 294 294 292 292 294 293 291 288 287 285 284 282 280 280 279 281 280 279 279 281 281 283 283 283 281 281 280 280 280 280 281 282 282 282 282 282 282 281 279
289 291 292 292 292 293 292 291 289 288 289 287 285 283 282 280 279 279 278 279 279 279 279 279 280 280 281 282 283 281 280 279 279 279 279 279 279 281 281 282 282 280 280 281
284 291 288 290 292 293 289 286 286 285 283 284 283 281 280 279 278 277 277 277 277 277 278 278 278 279 279 281 280 279 278 277 276 276 276 277 277 277 280 281 283 283 283 282
286 289 286 288 290 289 286 284 283 282 282 280 280 280 279 278 278 277 276 275 274 274 274 276 276 277 278 278 280 279 277 277 276 276 276 275 275 274 273 276 278 280 280 281
291 291 285 286 284 286 283 282 281 279 279 278 277 277 277 276 276 274 273 274 274 273 273 273 274 275 277 276 276 275 275 275 274 274 274 273 274 275 274 273 272 272 275 277
286 286 284 283 283 283 283 281 278 277 276 276 277 276 275 273 272 273 274 274 273 272 271 272 272 273 276 275 273 275 276 274 273 273 273 273 274 274 273 273 272 271 272 272
284 284 282 280 279 280 279 279 277 276 276 275 274 273 273 272 271 270 270 271 270 269 271 270 272 273 274 274 271 273 273 274 273 273 272 272 273 272 272 271 270 269 269 269
280 279 279 277 277 277 277 276 276 275 276 275 273 273 272 271 270 269 268 268 268 267 267 269 270 272 273 273 273 274 272 272 271 273 273 272 271 271 271 270 269 268 268 269
278 277 279 278 276 275 274 274 274 273 272 271 270 268 266 266 265 266 266 266 267 266 266 267 269 270 270 271 270 271 270 271 271 270 270 270 270 270 269 269 268 267 267 267
276 276 276 275 274 273 273 272 271 271 270 269 267 265 266 266 266 265 265 265 264 264 265 267 272 269 269 272 271 270 269 268 268 269 269 268 267 268 267 266 266 265 266 265
272 273 273 272 272 271 269 269 269 268 267 266 264 263 264 260 260 261 261 261 260 262 265 267 268 269 269 269 268 268 267 266 267 266 265 265 265 264 265 264 264 263 263 263
269 269 268 268 268 268 266 265 266 264 263 262 263 261 261 261 260 259 261 262 263 265 266 266 267 268 268 267 267 264 264 263 263 263 261 259 259 261 260 258 260 260 260 259
267 267 266 266 267 266 266 265 265 265 265 264 262 262 262 262 262 263 260 263 265 261 264 265 266 262 264 264 264 262 263 261 260 260 258 257 257 257 255 253 252 251 252 251
269 269 269 268 268 267 267 266 265 265 264 264 263 263 264 265 265 261 260 265 265 261 264 260 258 259 258 257 256 257 258 258 257 255 253 251 250 249 251 251 249 249 250 252
271 271 270 270 270 270 268 269 270 268 265 267 266 266 267 262 259 265 264 260 257 254 256 257 258 256 255 255 253 252 252 252 253 252 253 252 249 248 247 247 248 248 249 249
274 273 273 272 272 270 271 271 270 270 269 269 268 268 267 266 260 261 258 259 261 260 255 254 256 255 253 250 252 253 251 249 248 251 250 250 251 248 247 247 248 249 248 247
273 271 270 270 269 270 271 272 269 269 268 262 261 257 256 260 262 264 262 262 264 262 258 253 251 250 250 251 250 251 251 252 250 250 250 249 249 249 248 247 247 247 247 247
271 270 270 269 269 268 269 268 265 264 264 261 260 259 259 258 258 259 255 255 254 253 252 256 255 255 254 253 253 251 251 251 250 251 248 249 248 250 248 247 246 246 245 245

GFSNGP_sfc_thetae_072.txt.gz
Theta_e
285 286 287 287 287 288 287 288 285 288 290 294 297 299 300 299 299 296 293 293 294 294 295 297 297 298 297 298 299 302 304 304 305 309 317 317 317 317 317 316 315 314 313 312
282 286 284 283 283 285 287 291 290 290 290 298 302 302 301 299 297 295 293 292 291 291 291 291 292 292 293 294 295 297 296 297 298 300 303 303 304 306 314 317 317 316 315 314
279 282 282 278 283 284 287 293 292 286 292 299 299 299 299 298 296 294 292 291 289 288 288 288 290 290 289 291 293 292 292 292 292 294 295 296 299 300 299 301 303 305 311 315
278 280 271 281 288 290 290 292 295 295 298 298 297 300 300 300 296 292 290 289 287 287 286 287 289 289 289 290 290 289 288 288 288 289 290 292 292 292 293 296 299 300 301 301
275 275 279 282 289 288 288 287 294 295 297 294 292 293 289 293 293 290 288 287 286 285 285 286 286 287 288 287 286 285 284 284 284 286 287 288 288 289 291 292 295 295 291 290
278 274 270 281 289 293 293 282 293 294 295 292 296 288 287 290 290 288 287 286 284 284 285 285 285 287 286 284 283 283 283 282 283 285 285 285 286 287 289 291 291 290 286 285
277 274 279 286 290 293 280 282 291 292 297 295 293 292 289 287 285 285 285 284 284 283 282 283 285 285 283 282 281 282 282 282 282 283 284 284 285 286 287 287 286 284 283 283
280 277 274 289 290 284 289 292 290 290 291 287 287 286 285 284 283 282 281 281 282 281 281 282 283 283 280 280 282 282 281 280 280 281 282 282 282 283 283 284 283 282 282 281
282 280 289 289 288 290 295 293 291 289 288 287 285 284 283 281 280 280 280 280 281 281 280 281 281 282 280 280 281 280 280 280 279 279 280 280 280 280 281 281 280 280 280 280
285 288 288 289 289 288 288 287 290 289 288 286 283 282 280 279 279 279 279 279 280 279 278 278 280 280 279 280 280 279 278 278 279 278 278 279 279 280 279 279 278 278 277 277
286 289 290 290 289 288 286 285 285 285 284 283 281 280 279 278 277 277 277 278 278 278 277 277 278 278 280 279 279 278 277 277 277 277 278 277 278 278 278 279 279 276 277 277
282 286 287 284 286 286 283 283 283 281 280 281 280 278 277 276 276 275 274 275 275 275 275 275 276 276 276 278 279 278 276 275 274 275 275 275 276 275 278 279 279 280 280 278
285 286 284 283 283 283 281 280 280 280 280 278 278 277 276 275 275 275 274 273 272 272 273 273 273 273 273 275 275 275 274 274 273 273 273 272 271 271 269 272 275 277 278 278
285 288 283 282 279 280 279 278 278 277 277 277 276 276 275 274 273 273 272 273 273 272 271 271 271 271 272 271 272 271 269 270 269 270 269 268 266 266 266 266 265 266 272 274
282 283 282 281 280 279 279 277 276 274 274 274 275 274 273 271 270 270 272 272 272 270 269 269 269 269 270 269 268 268 268 267 265 264 265 265 264 265 265 265 264 264 265 266
281 281 280 279 278 278 277 276 274 273 273 273 272 271 271 270 269 269 269 269 268 267 267 266 268 267 268 267 266 265 265 269 267 266 265 266 266 265 265 264 263 263 263 263
280 279 278 277 276 275 275 276 275 273 273 272 271 271 270 269 268 267 265 265 264 263 263 264 264 264 266 265 265 264 264 266 266 267 267 266 266 265 265 264 263 262 261 261
276 276 276 276 275 274 274 273 272 271 269 269 267 266 265 264 263 262 262 263 262 261 262 262 262 264 265 265 266 266 266 267 267 266 266 265 265 264 263 263 262 261 261 260
275 275 274 274 273 272 271 270 269 268 267 265 264 262 263 262 261 259 257 259 259 259 262 263 270 266 266 269 267 266 264 263 264 264 264 261 261 262 260 259 258 257 259 258
271 271 270 269 269 269 267 266 266 264 263 263 261 260 259 256 255 256 257 259 259 262 264 264 266 266 266 265 264 264 262 260 263 260 259 259 255 253 256 257 257 254 251 252
267 267 266 266 265 264 262 261 264 263 263 262 261 258 257 256 255 255 259 261 262 263 264 264 264 264 264 263 263 258 258 257 256 256 254 251 252 252 250 248 249 248 249 249
265 267 266 266 266 266 266 266 266 264 262 260 259 258 259 259 258 259 257 262 264 259 262 262 262 256 260 260 260 257 259 257 254 254 252 251 249 247 245 245 246 245 245 244
267 267 267 267 266 266 266 265 265 264 263 262 260 261 262 264 263 260 259 263 264 260 262 258 255 254 253 253 252 251 252 251 250 250 248 245 245 245 246 247 246 246 246 246
269 270 269 269 269 269 267 268 269 267 264 266 262 260 265 260 259 264 262 258 255 254 255 254 254 253 252 249 248 248 247 247 247 247 248 246 243 243 244 244 246 244 244 244
271 271 270 270 270 269 269 269 268 268 267 267 267 267 266 265 260 261 258 258 260 258 254 251 252 251 247 247 247 246 246 245 246 246 246 245 245 244 243 243 244 244 243 243
272 271 271 270 269 268 269 269 266 266 266 262 262 256 256 257 260 260 258 257 258 257 254 250 248 247 247 248 247 247 247 249 247 246 245 246 245 246 244 245 244 244 243 243
268 267 267 267 267 267 268 268 266 265 265 262 259 255 255 253 252 256 255 254 252 250 249 248 249 252 250 248 248 249 249 249 248 248 245 245 244 244 245 246 245 243 241 241

GFSNGP_sfc_thetae_075.txt.gz
Theta_e
287 288 288 286 286 287 285 288 284 288 288 293 297 298 299 297 294 292 291 291 291 291 292 294 295 298 299 299 300 302 302 302 302 304 306 308 312 315 318 318 318 318 318 318
283 287 285 283 285 286 287 287 289 291 290 298 300 303 299 296 294 291 290 289 289 289 289 290 291 292 295 294 294 295 293 293 295 297 299 300 302 303 304 304 305 312 314 314
279 284 283 279 284 285 287 291 292 288 293 300 299 300 298 296 294 291 290 289 288 287 288 289 290 291 291 291 292 291 290 291 291 293 294 294 296 297 297 299 301 302 300 300
280 282 273 283 289 290 291 293 294 294 297 297 294 293 296 296 293 290 288 287 286 287 288 288 289 289 289 289 288 288 288 288 289 291 291 292 294 295 295 298 297 293 292 290
278 278 281 283 288 287 288 288 294 294 296 295 294 293 289 290 290 287 286 286 286 286 286 287 288 288 287 287 287 285 285 286 288 289 289 290 290 291 293 294 292 288 287 286
280 276 273 283 290 293 293 282 293 292 294 295 295 290 287 288 286 285 284 285 285 285 285 285 286 286 285 284 284 283 283 284 286 286 287 287 287 289 289 289 287 286 285 285
280 278 281 287 290 293 280 283 291 291 294 297 293 289 285 285 283 283 283 284 284 284 283 284 284 284 283 283 282 282 283 283 284 284 285 286 286 287 287 286 285 284 284 284
280 278 275 289 291 284 288 291 289 289 288 286 284 283 282 282 281 281 281 282 283 282 281 283 284 283 281 280 282 283 282 282 282 282 283 283 284 284 285 285 284 283 283 282
283 283 289 290 288 288 293 291 289 288 287 285 283 281 280 280 279 280 280 281 282 281 281 281 282 282 280 280 281 282 281 281 281 281 281 282 282 282 281 281 281 281 280 280
285 288 288 288 287 287 287 287 287 287 285 283 279 279 278 278 278 278 279 279 280 280 279 279 280 280 281 281 281 281 280 280 280 279 280 280 281 281 280 280 280 280 279 279
285 287 287 286 286 286 285 285 284 284 283 282 281 279 278 277 277 277 276 277 278 278 277 277 278 278 279 281 281 279 279 279 279 279 278 278 279 279 279 280 280 279 279 279
280 285 283 282 283 284 283 282 282 281 280 280 279 277 277 275 276 275 275 276 276 276 276 276 276 277 278 279 280 279 278 278 277 278 278 278 277 276 278 279 279 279 279 280
284 284 282 282 282 282 280 280 280 280 279 278 278 277 276 275 275 276 275 274 273 273 274 274 274 274 275 276 277 277 277 277 277 277 277 276 275 275 274 274 275 276 277 277
285 285 281 282 278 280 279 278 279 278 278 277 277 277 276 275 275 274 273 274 274 273 272 272 272 271 273 274 274 273 274 272 275 275 274 274 273 272 272 272 271 270 272 272
282 282 281 281 280 279 279 278 276 275 275 275 276 275 274 273 272 272 273 273 273 272 271 271 270 270 271 272 273 274 274 273 273 273 272 272 272 272 271 270 269 269 270 270
282 281 280 278 278 277 277 276 275 274 274 273 273 272 272 271 270 270 270 271 270 268 269 268 269 269 270 271 273 273 273 271 272 273 273 272 272 271 270 269 268 267 267 267
280 279 278 277 276 276 275 275 275 274 273 272 272 272 271 270 269 268 267 267 267 267 268 268 267 268 269 270 273 274 274 273 271 273 272 271 271 270 269 268 267 266 266 264
276 276 277 278 276 275 274 273 273 272 270 270 269 268 267 266 266 265 265 266 266 266 266 267 268 268 269 270 272 273 273 272 272 271 270 270 269 269 268 267 267 266 266 264
276 275 275 274 274 273 272 271 270 269 268 267 266 264 264 264 264 263 264 264 264 266 265 267 270 269 269 270 270 271 271 270 270 269 269 266 268 267 267 266 266 265 265 264
271 271 271 270 271 270 268 268 268 267 266 265 264 263 262 261 262 262 264 264 265 266 267 268 268 268 268 267 267 269 269 269 268 267 267 266 266 266 265 263 265 264 264 263
269 269 268 267 267 267 267 267 267 265 265 265 264 263 262 262 262 263 265 265 265 266 266 266 267 267 267 267 267 267 267 266 266 266 265 265 265 264 264 264 264 264 264 264
268 268 267 267 267 267 268 268 267 265 264 263 262 262 263 263 263 264 263 265 267 264 266 266 266 261 264 265 266 266 266 265 265 265 264 264 264 264 263 263 263 262 262 262
268 269 268 268 268 267 267 266 265 265 264 263 264 265 266 266 267 265 264 266 267 265 266 265 260 258 259 264 264 264 264 263 263 263 263 263 263 263 263 263 262 262 262 262
270 270 270 270 270 270 268 269 269 268 267 267 265 265 267 266 265 266 266 262 261 263 264 263 262 259 260 263 263 263 263 263 263 262 262 256 262 261 262 261 261 262 260 259
271 271 271 271 271 270 270 270 269 269 269 268 268 268 268 267 267 267 267 266 265 264 265 258 258 257 263 263 263 262 263 263 263 262 263 262 262 261 261 261 260 261 260 260
272 272 272 271 272 272 271 270 269 269 269 267 267 266 265 266 267 267 266 263 265 263 266 264 263 263 263 263 263 262 262 263 262 262 260 261 261 261 260 260 260 260 260 260
271 270 270 270 270 270 270 270 270 269 269 268 268 267 266 266 265 265 261 266 266 265 264 264 263 262 264 263 263 263 263 263 260 262 262 261 260 261 260 260 260 260 259 257

GFSNGP_sfc_thetae_078.txt.gz
Theta_e
288 287 289 288 288 289 289 289 286 287 289 294 298 299 299 297 293 291 289 289 290 290 291 292 294 295 297 298 301 302 301 301 301 302 304 306 307 308 314 318 320 322 322 322
286 287 289 287 289 288 289 290 290 291 291 299 303 304 298 296 293 291 289 288 288 289 289 290 291 293 294 294 295 297 295 295 297 299 298 299 300 301 303 304 305 304 301 299
281 287 286 282 287 288 289 291 293 289 294 301 300 299 297 295 294 291 287 287 287 287 288 289 289 290 291 292 293 293 293 294 296 297 296 296 298 299 300 299 297 295 295 294
282 284 275 287 292 292 291 293 296 295 298 299 295 293 293 294 292 290 289 287 287 287 288 288 288 289 290 290 291 291 293 292 293 293 295 298 298 298 297 295 292 290 290 290
281 281 283 285 290 290 290 290 296 295 297 296 292 290 286 288 287 285 285 286 287 289 288 288 288 289 288 288 289 288 287 288 290 292 292 294 294 294 295 293 291 289 289 288
283 277 274 288 292 295 294 286 295 295 295 295 295 290 284 286 285 284 284 285 285 286 288 287 287 288 287 286 285 285 287 288 289 289 290 290 291 291 291 291 289 289 288 289
283 281 284 291 294 296 282 285 294 293 290 292 292 285 282 282 282 284 284 284 285 285 285 286 287 288 285 285 285 285 286 286 286 288 288 288 289 290 290 289 289 288 287 287
283 280 277 293 294 288 290 293 292 289 287 283 282 282 281 282 281 282 283 284 285 285 284 286 287 287 285 283 284 285 286 285 285 285 287 287 287 287 288 287 287 287 286 285
287 286 291 291 290 290 291 290 290 288 287 285 282 280 280 280 280 281 282 284 286 284 283 284 285 286 283 284 285 285 284 284 284 285 284 285 286 286 287 287 287 286 285 284
287 285 286 287 288 287 287 286 286 286 284 283 280 280 279 279 279 280 281 282 284 283 282 281 283 284 284 284 285 285 283 283 283 283 283 283 284 284 284 284 284 283 283 282
284 285 285 285 286 287 286 285 284 285 285 283 282 281 281 279 278 278 279 280 281 281 281 281 282 282 284 284 285 283 283 283 283 282 281 280 280 281 280 281 282 281 281 281
283 285 284 282 285 286 285 284 285 284 283 283 281 279 279 278 279 279 278 279 279 280 280 280 280 281 282 283 284 284 282 282 282 283 283 282 280 277 278 278 279 279 279 280
283 284 284 283 284 285 283 282 282 282 282 281 281 281 280 279 278 278 277 277 276 276 277 277 277 277 279 280 281 282 282 282 282 282 282 281 281 281 277 276 275 276 277 277
287 286 283 284 281 283 283 282 282 282 282 281 281 281 280 279 278 277 275 276 276 276 275 276 275 275 277 279 279 279 279 278 281 281 281 280 279 279 279 278 277 276 273 273
284 285 284 283 283 282 282 282 280 280 280 279 280 279 279 277 276 276 276 276 276 275 274 274 273 274 276 277 278 279 280 279 279 279 278 278 278 277 277 276 276 276 276 275
283 283 283 281 280 280 281 280 279 278 278 277 276 276 276 276 275 274 274 275 274 272 273 272 272 272 274 277 279 279 277 276 278 279 278 278 277 276 275 275 274 273 272 272
282 280 281 280 279 279 279 279 278 277 277 276 275 275 275 274 273 272 271 271 271 271 272 272 272 272 274 275 278 279 279 277 276 278 277 276 276 275 274 274 273 272 270 268
281 281 282 281 279 278 277 277 276 276 275 274 272 271 270 271 270 269 269 270 270 269 271 272 272 273 273 274 276 278 278 277 276 276 276 275 274 274 274 273 272 271 271 269
279 278 278 278 278 276 275 274 273 272 272 271 270 268 268 268 268 268 269 269 270 271 269 271 272 273 273 272 275 276 276 275 275 274 274 272 273 273 273 272 271 271 271 270
275 276 276 275 275 274 272 272 272 270 270 269 268 267 266 266 267 267 269 268 268 270 271 271 272 272 272 271 272 275 275 274 273 273 273 273 273 272 270 268 270 271 271 270
273 272 271 271 270 270 271 270 270 269 268 269 268 267 266 267 266 267 270 271 269 269 269 269 270 272 271 271 273 274 273 273 272 272 272 271 271 271 270 270 270 270 270 270
272 271 271 271 271 270 271 271 270 268 268 266 266 266 266 267 267 267 267 270 271 267 270 271 270 266 268 269 272 272 271 271 271 271 271 271 271 270 270 269 268 269 269 268
272 272 272 271 271 271 270 270 269 269 268 267 267 269 270 271 272 271 270 269 271 268 270 269 265 264 266 270 270 270 269 269 269 269 269 269 269 269 268 268 267 267 267 267
273 273 273 272 272 272 271 271 271 271 269 269 268 268 271 271 270 271 270 267 266 268 268 268 266 263 265 270 269 268 269 269 269 269 269 261 269 267 267 267 266 267 266 264
274 273 273 273 274 274 273 273 272 272 271 271 271 271 270 272 273 271 271 270 267 268 270 263 263 263 269 270 269 268 268 269 268 268 268 268 267 267 267 266 265 265 265 265
275 276 276 275 275 277 276 275 275 274 273 272 273 273 273 272 271 271 271 269 269 268 270 270 269 269 269 269 268 268 267 268 267 267 266 266 266 266 266 265 265 265 265 265
276 275 275 275 275 275 275 275 274 274 273 273 273 273 273 272 272 271 268 271 271 271 270 270 270 268 269 268 268 268 268 268 266 266 266 267 266 266 266 265 265 265 265 264

GFSNGP_sfc_thetae_081.txt.gz
Theta_e
289 291 291 289 289 292 291 291 287 289 290 294 299 302 301 298 295 291 289 288 288 289 290 292 293 294 295 297 299 302 303 302 302 303 304 305 306 311 315 311 310 310 316 305
283 291 291 287 291 291 291 290 290 291 291 300 303 305 301 296 294 290 289 287 287 288 289 289 290 291 292 293 294 297 297 297 298 299 300 300 301 303 300 299 299 300 295 294
279 290 288 282 288 290 290 292 292 289 295 301 299 301 298 294 292 290 288 287 287 288 287 287 288 289 290 292 295 294 294 295 297 298 298 299 299 297 295 293 293 292 292 290
279 287 277 288 293 293 290 293 296 296 297 298 293 290 290 292 290 287 288 287 286 286 286 287 288 289 290 290 290 292 292 293 295 297 297 298 297 294 293 291 290 290 290 289
280 283 284 287 291 291 290 291 296 294 296 296 292 290 285 287 287 286 285 286 285 287 287 287 287 288 287 287 289 288 288 289 293 294 295 295 294 293 293 292 290 289 289 289
282 279 277 288 294 296 295 287 294 295 295 295 294 289 283 285 285 284 285 285 286 285 286 286 287 288 286 286 285 285 287 289 290 291 292 291 292 292 292 292 290 290 288 288
282 282 286 293 295 297 283 285 294 294 291 288 286 283 282 283 283 284 285 285 285 286 286 286 287 286 284 285 284 285 287 288 288 289 289 290 291 292 291 291 290 289 287 287
284 281 277 294 295 289 289 294 293 291 287 283 282 282 282 282 283 284 285 286 287 285 286 288 289 288 286 285 285 285 286 286 286 287 288 289 290 290 289 290 289 287 286 286
286 285 289 290 289 289 292 290 290 288 286 284 282 281 282 282 282 283 285 286 287 286 286 287 288 288 286 286 287 287 287 286 285 285 286 286 286 287 287 288 287 286 285 284
288 284 285 287 288 288 288 286 286 287 286 285 282 282 281 281 281 281 282 284 286 285 284 283 286 287 287 288 288 286 285 284 285 285 285 285 284 283 282 284 284 284 284 283
284 285 287 286 288 288 287 286 286 287 286 284 283 282 282 281 280 280 282 283 284 283 283 283 284 285 286 287 287 285 285 284 283 282 281 279 279 280 280 280 280 281 281 280
282 286 285 283 286 287 286 286 287 285 284 283 282 280 281 280 281 280 280 281 280 280 280 280 281 281 282 285 286 285 283 284 284 284 283 281 279 277 278 279 279 279 279 280
284 286 284 285 286 287 285 284 284 284 284 283 283 282 281 279 280 279 279 278 277 278 279 279 278 279 280 281 282 283 283 283 283 283 282 282 282 280 276 276 276 277 277 277
287 288 285 286 283 285 286 285 285 285 284 283 283 282 281 280 279 278 278 278 278 277 277 277 277 277 279 281 281 281 281 281 281 281 281 281 280 280 280 280 278 275 274 275
285 287 286 286 285 285 285 285 283 282 282 281 282 281 280 279 278 278 279 279 278 277 276 275 275 275 278 280 279 280 280 280 280 280 280 280 280 280 280 279 278 278 278 277
285 285 286 284 284 284 284 283 282 281 280 279 278 278 278 278 277 276 275 276 276 274 274 273 273 274 277 280 281 281 279 279 280 281 280 280 280 279 278 278 277 275 273 273
284 282 282 282 282 282 281 282 281 280 279 278 277 278 278 276 275 274 273 273 273 273 274 273 273 274 276 277 280 281 281 280 278 280 279 279 278 277 277 276 275 274 271 271
284 284 283 283 281 280 279 279 279 278 276 275 274 273 272 273 272 271 272 272 272 271 272 273 274 275 274 276 278 279 279 279 278 277 278 277 277 277 276 275 275 274 273 271
282 280 280 280 280 279 277 276 275 274 274 273 272 271 271 270 271 271 272 273 273 272 271 273 274 274 274 274 277 279 278 277 277 276 276 275 276 275 275 275 274 273 273 272
278 278 278 277 277 276 274 274 274 272 272 271 270 270 269 268 270 270 271 269 270 271 272 272 274 274 274 273 274 277 277 276 275 275 274 275 275 274 273 270 272 273 272 272
275 275 274 273 273 273 273 273 272 270 270 271 270 268 268 269 269 270 273 274 271 271 271 272 271 272 273 272 275 276 275 275 274 274 274 274 274 273 273 272 272 272 271 271
274 273 273 273 273 273 273 273 271 270 269 268 268 268 269 270 269 270 270 271 273 269 272 272 271 267 270 270 274 274 273 273 273 273 273 273 272 272 272 271 271 271 271 270
275 274 274 274 274 273 272 272 271 271 270 269 270 271 272 273 273 273 273 271 273 269 273 271 267 266 267 272 272 272 271 271 271 271 271 271 271 270 270 270 269 269 269 269
275 275 275 274 273 274 273 273 273 272 271 271 270 270 272 274 274 274 272 269 268 269 270 269 268 266 265 271 271 271 271 271 271 271 271 263 270 269 269 269 268 268 268 267
276 275 275 275 275 276 275 275 274 273 273 274 273 273 272 274 273 274 274 272 267 268 272 266 266 266 269 271 270 270 270 270 270 269 269 269 269 269 269 269 268 267 267 267
277 278 278 277 278 278 278 277 276 277 276 275 275 276 275 274 274 273 272 270 271 270 271 272 271 270 271 271 270 269 269 269 269 269 268 268 268 268 268 268 267 267 267 267
277 277 277 277 278 277 277 276 276 276 276 276 275 276 274 274 274 271 270 273 273 272 272 272 272 270 270 270 270 270 270 270 269 269 269 268 268 268 268 268 268 268 267 267

GFSNGP_sfc_thetae_084.txt.gz
Theta_e
286 288 288 287 288 289 288 290 287 289 289 295 299 301 298 297 294 291 289 288 288 288 288 289 290 292 294 296 298 302 304 303 304 305 306 308 306 306 305 305 303 304 299 297
282 286 287 286 289 290 290 290 290 291 290 299 300 301 298 295 293 290 288 288 287 287 287 287 287 290 291 294 295 297 298 298 300 301 301 299 299 297 297 296 295 293 291 291
278 285 285 283 288 289 290 292 292 288 294 297 293 292 292 291 290 288 287 287 287 286 286 286 287 288 288 290 293 294 295 297 298 299 297 295 294 293 292 292 291 290 289 289
279 282 274 287 294 293 291 294 294 294 295 294 290 287 287 288 287 286 286 285 286 287 286 286 287 287 288 289 289 290 292 294 296 296 295 294 293 291 290 290 290 289 288 287
278 278 282 288 291 291 290 288 293 292 294 294 290 288 284 285 285 284 285 286 284 286 287 286 286 287 286 286 287 288 287 289 292 294 294 292 291 291 290 289 288 287 287 286
279 275 276 286 292 296 294 285 292 293 291 289 293 287 281 284 284 284 284 285 286 285 285 285 285 286 286 285 285 285 286 287 290 291 291 291 291 291 290 289 287 286 284 285
279 277 283 287 292 296 283 283 291 290 287 284 282 281 282 284 283 284 285 285 286 287 285 285 285 285 284 284 284 286 286 287 287 288 289 289 289 290 289 288 287 285 284 283
281 280 277 289 290 285 287 290 290 287 285 282 281 282 282 283 283 284 285 286 287 286 286 287 287 287 285 283 285 285 285 285 285 286 288 287 288 288 288 287 286 285 284 283
282 281 287 288 287 288 289 287 287 286 285 284 282 281 281 281 282 282 285 286 286 285 285 286 287 287 285 285 286 286 285 285 284 284 284 284 282 285 285 286 285 283 282 281
285 284 284 286 287 287 286 286 287 286 285 284 281 281 280 281 281 282 283 284 285 284 283 284 286 286 286 287 286 285 283 282 281 279 280 281 281 280 279 281 281 282 281 279
283 285 286 285 287 287 287 287 286 286 285 284 283 282 281 280 280 281 281 282 283 281 281 280 281 282 285 286 286 285 283 282 280 279 278 277 278 278 278 278 280 279 277 278
280 284 284 283 286 286 285 286 287 285 283 283 282 280 280 279 279 279 279 280 279 279 279 279 280 281 282 284 286 284 283 283 283 281 280 278 276 275 279 279 279 279 279 278
283 286 285 285 286 287 285 284 285 284 284 282 282 281 280 279 279 279 278 278 277 277 278 278 278 278 281 282 282 282 282 282 282 282 282 281 279 277 273 275 277 277 277 277
288 287 285 285 283 286 285 285 285 285 284 283 282 282 280 279 279 278 277 278 277 277 276 276 276 276 280 280 281 281 280 280 280 280 280 280 280 280 279 278 274 272 275 275
286 287 286 286 286 286 286 285 283 281 281 280 281 280 279 278 277 277 278 278 277 275 274 274 274 274 277 279 278 278 280 280 280 280 280 280 279 279 278 277 276 274 274 274
286 287 286 285 284 284 285 284 281 279 279 279 278 278 277 277 275 274 274 275 274 272 273 272 272 273 275 276 281 279 278 279 279 280 279 278 278 277 276 275 273 271 269 270
286 283 283 282 282 281 281 281 280 279 278 277 277 278 277 275 274 272 272 272 272 272 272 272 272 272 273 275 278 280 280 279 276 278 277 277 276 275 275 274 272 270 268 267
283 283 283 282 281 279 278 277 276 276 274 274 274 273 272 271 271 271 271 271 270 270 271 272 272 273 272 273 274 279 278 277 277 276 276 275 275 275 274 273 273 272 270 268
281 280 280 280 279 278 276 274 274 274 273 273 271 269 269 269 270 271 272 272 271 270 270 272 275 274 273 273 274 278 277 276 276 275 275 273 274 274 273 273 272 271 271 270
278 278 277 276 276 275 274 274 273 272 272 270 268 268 268 267 268 268 269 268 268 270 272 272 274 273 273 273 273 276 276 275 274 273 272 273 273 272 269 267 270 270 269 269
275 274 273 273 272 273 273 273 271 269 269 268 268 267 267 268 268 268 272 271 270 270 272 271 269 269 271 269 272 274 274 274 273 273 272 272 272 271 270 269 270 268 269 268
274 273 273 273 273 273 273 272 270 269 268 267 265 266 267 269 268 269 268 271 271 267 272 270 268 265 267 266 273 272 272 272 272 272 271 271 270 270 270 269 268 268 267 268
274 274 274 274 273 272 272 271 270 270 268 268 268 270 271 272 272 271 271 271 272 268 271 268 264 263 263 270 272 271 270 270 270 269 270 269 269 268 268 267 265 265 266 266
276 276 275 274 273 274 273 273 274 272 270 271 269 267 271 273 274 273 271 266 266 265 268 267 265 263 261 270 270 270 269 270 270 269 269 261 267 267 267 266 264 266 265 262
275 275 275 275 276 276 275 275 275 274 273 274 273 273 273 274 273 273 273 270 267 267 271 264 263 262 267 270 270 268 268 269 268 266 266 267 267 266 267 267 265 265 264 262
277 277 278 277 277 278 278 277 276 277 276 275 276 276 275 275 274 272 273 269 271 269 270 269 270 267 269 269 270 268 268 268 268 268 267 267 265 266 266 265 264 264 263 264
278 277 277 277 277 277 275 274 275 275 276 275 275 276 275 275 274 271 269 272 272 272 272 272 272 270 270 269 268 268 269 269 268 267 267 266 265 266 265 264 265 265 264 262

GFSNGP_sfc_thetae_087.txt.gz
Theta_e
282 283 284 283 284 286 285 286 284 288 288 294 295 294 293 292 291 289 288 287 287 287 287 288 288 290 291 294 296 301 304 305 305 307 306 304 303 302 301 301 300 300 297 296
278 282 283 282 284 286 287 289 290 289 288 296 297 296 292 291 289 287 286 286 286 287 286 286 287 288 289 290 293 297 298 299 300 299 298 298 296 296 295 294 293 292 291 291
275 282 282 278 284 286 289 291 290 285 291 294 289 288 288 288 287 285 285 285 285 285 286 286 286 287 287 289 291 292 295 296 296 296 294 293 293 293 291 290 289 289 289 289
275 279 270 282 291 291 290 290 291 292 290 289 286 285 285 286 285 284 284 284 285 285 286 286 287 287 287 288 289 289 290 293 294 294 292 292 291 289 289 288 287 287 286 287
275 273 280 285 287 286 287 286 290 288 289 289 286 284 282 284 284 283 285 285 284 286 286 285 285 287 287 286 287 287 286 288 291 292 291 290 289 288 288 287 285 285 285 285
279 274 271 283 287 289 289 282 288 287 285 284 289 285 279 283 284 284 284 285 285 285 285 285 284 285 285 285 285 285 285 286 288 289 290 289 288 287 286 285 284 284 283 284
278 274 280 285 286 290 280 280 287 285 283 281 279 280 282 284 284 284 285 285 286 287 285 285 285 285 283 283 283 285 285 285 286 286 286 287 288 287 286 284 283 282 282 282
280 276 275 286 286 281 286 287 286 284 282 280 281 281 281 281 281 284 284 286 286 285 286 288 287 286 283 282 284 285 285 284 284 284 284 285 285 285 285 284 283 282 282 281
280 279 285 286 284 286 287 286 285 284 283 282 280 279 280 280 280 281 284 284 285 284 284 285 286 286 283 284 285 283 281 280 280 281 281 281 281 282 284 284 282 280 279 278
283 282 282 285 286 286 287 285 284 284 283 280 277 278 277 278 279 278 281 282 282 281 280 280 283 284 285 285 284 282 280 279 279 279 279 279 279 279 279 280 279 279 278 276
282 283 283 284 286 287 286 285 284 284 283 282 280 279 279 278 278 278 279 279 280 279 279 279 280 281 283 285 285 282 280 279 278 278 277 277 278 277 278 279 278 276 276 276
277 283 282 283 285 285 284 285 284 282 281 281 280 278 278 277 277 277 277 278 277 277 277 278 279 280 281 282 283 283 282 281 279 278 277 276 275 275 279 279 280 280 279 277
281 285 283 285 286 285 283 283 283 282 281 280 280 279 278 277 278 278 277 276 275 275 275 276 276 277 279 281 281 280 280 281 280 280 279 276 275 273 272 275 278 278 279 280
286 286 282 284 282 285 284 284 284 283 282 281 280 280 278 277 278 277 276 276 275 274 274 274 274 274 276 279 279 279 278 279 279 279 278 278 277 274 273 271 270 269 276 277
285 286 285 285 285 284 285 283 280 278 279 278 279 277 276 274 273 273 276 276 275 273 272 272 272 272 274 276 277 276 277 274 274 273 274 274 274 274 274 272 270 269 269 270
285 285 285 283 282 282 282 280 278 277 277 277 277 276 275 274 273 273 273 273 272 270 271 270 271 271 272 273 275 272 273 275 274 274 273 272 272 273 271 269 267 265 265 265
284 280 282 279 278 278 277 278 277 276 274 274 274 276 275 273 272 270 270 270 269 268 268 268 266 269 270 271 272 274 272 273 272 273 273 272 271 271 271 268 266 264 263 262
281 280 280 279 277 276 275 274 274 273 272 272 270 269 268 268 267 267 267 267 266 267 268 268 269 270 270 271 273 274 273 273 273 271 272 270 272 272 270 269 268 266 264 266
278 277 278 277 276 274 273 272 271 270 268 266 265 263 262 261 262 262 265 267 265 265 266 268 273 271 271 272 272 274 273 272 273 271 272 269 268 268 268 266 265 264 266 266
275 274 274 273 273 272 271 268 269 267 263 264 260 261 260 259 258 260 260 260 261 263 266 269 270 269 270 270 268 273 272 271 271 268 269 269 266 261 260 263 265 262 260 259
270 271 269 267 267 267 266 264 264 261 260 259 261 258 259 259 260 260 265 266 263 266 268 267 266 266 268 266 269 266 267 266 264 265 264 262 261 262 261 260 260 260 261 261
267 268 268 268 269 267 263 262 262 260 259 259 258 258 259 261 260 262 260 265 266 263 267 265 265 260 264 262 268 263 264 264 264 265 263 262 263 264 262 259 258 259 259 259
268 269 268 267 265 263 262 262 261 261 259 259 259 260 262 266 267 266 264 268 268 264 267 262 259 258 258 261 259 259 262 260 259 258 259 256 257 256 257 257 257 257 256 256
271 270 267 267 268 270 268 268 270 269 263 266 263 261 267 264 268 269 266 262 259 258 259 258 257 258 257 262 260 258 258 257 262 258 259 257 258 258 257 256 255 254 254 256
271 270 270 270 272 273 273 273 273 272 271 272 271 270 271 271 264 265 265 262 263 261 262 260 259 258 255 256 259 256 256 257 258 254 254 254 256 257 258 259 259 258 255 253
274 274 274 275 273 274 274 274 270 272 273 269 268 267 266 265 265 264 262 263 263 263 259 260 257 259 256 256 261 261 258 259 257 259 260 257 257 258 257 259 258 256 255 254
275 272 273 273 273 273 270 269 267 265 264 264 266 270 268 265 262 263 261 260 259 263 261 259 262 264 261 257 257 257 257 258 260 259 255 255 254 253 253 255 257 257 258 257

GFSNGP_sfc_thetae_090.txt.gz
Theta_e
281 282 282 281 281 282 281 283 280 285 286 291 293 292 291 290 289 287 286 286 286 285 286 287 288 289 290 292 295 300 303 304 305 304 304 304 303 301 300 299 299 299 298 297
276 280 281 279 282 283 283 284 286 286 288 290 291 292 289 288 287 285 285 285 285 285 285 285 286 287 289 290 291 296 296 297 299 300 298 296 296 295 294 293 293 293 292 293
272 279 279 276 281 283 284 288 289 285 290 290 286 285 284 285 285 284 284 284 284 284 284 285 285 287 287 289 291 291 294 295 294 294 293 293 292 291 290 289 289 289 290 290
274 277 269 282 289 289 287 288 289 288 289 287 284 283 283 284 283 283 283 284 284 284 284 285 286 286 288 289 289 289 289 291 292 291 290 290 289 288 287 287 287 287 288 289
272 274 279 282 287 284 281 283 286 286 288 286 283 283 281 284 284 283 284 285 284 285 285 285 285 285 286 286 287 286 286 287 289 288 287 287 285 285 286 285 285 285 286 287
277 273 268 280 284 288 287 279 286 285 283 285 285 283 278 283 284 284 284 285 285 285 284 283 284 285 284 284 284 284 285 285 286 287 286 285 285 284 284 284 283 284 283 284
275 274 278 282 285 287 279 278 283 282 281 282 279 280 282 284 283 284 285 285 286 286 284 285 285 284 283 283 282 283 284 284 284 285 285 285 285 285 284 283 282 282 282 282
279 275 273 284 284 279 284 285 283 282 281 279 280 281 281 281 283 283 283 283 284 282 282 285 286 285 283 281 282 282 281 281 281 282 282 283 284 284 284 283 281 281 281 281
279 277 284 285 284 286 286 284 283 282 282 280 279 277 277 277 277 279 282 281 282 281 281 281 283 285 282 283 283 281 280 279 279 279 280 280 280 281 281 281 280 279 279 279
280 281 282 284 286 285 285 282 282 281 280 278 275 276 275 275 275 276 278 279 280 279 279 279 282 283 283 282 282 280 279 278 279 278 278 279 279 280 279 278 278 278 277 277
279 282 282 282 284 285 283 283 282 282 281 279 278 276 276 275 275 275 276 277 277 277 277 278 280 281 282 285 283 280 279 278 278 278 278 278 278 278 278 278 278 277 276 277
274 281 280 281 283 284 284 282 281 280 279 279 277 275 273 274 275 276 275 275 275 275 276 276 277 278 280 282 283 282 280 278 277 276 276 276 276 276 280 280 280 280 280 278
277 283 283 284 283 284 282 281 280 279 279 278 278 277 276 275 276 276 275 274 274 273 274 275 275 275 277 280 280 280 280 280 280 278 276 275 274 274 272 276 280 280 281 281
287 284 281 283 281 284 283 282 282 281 280 279 278 278 277 276 276 274 274 274 274 273 272 273 273 273 274 277 279 278 277 277 277 277 277 275 273 272 271 271 270 270 274 278
284 285 284 285 285 283 281 280 278 277 277 276 276 275 275 273 273 273 274 274 274 272 272 271 271 271 272 273 275 276 277 277 275 273 273 274 274 273 271 270 268 267 269 271
286 285 283 281 281 281 279 278 276 276 276 275 274 274 273 273 272 271 272 272 270 269 270 269 270 270 271 271 273 272 273 274 273 272 272 273 272 270 269 267 266 266 266 264
283 280 279 278 277 277 277 277 276 275 274 275 274 274 273 271 270 269 268 268 267 266 266 266 266 269 270 270 273 272 273 272 271 271 271 271 271 269 268 267 266 267 266 265
280 280 280 278 276 274 274 274 273 273 271 270 268 266 265 264 263 262 263 262 263 264 264 264 265 267 269 271 272 273 272 273 272 271 272 270 271 271 269 268 268 267 266 265
277 276 276 275 275 273 272 271 270 268 266 264 264 261 258 257 258 259 262 260 258 260 262 264 271 268 269 270 271 272 271 270 270 270 269 266 267 268 266 265 265 264 265 264
273 273 273 272 272 271 268 265 266 264 260 261 258 258 258 256 255 257 257 259 259 261 263 265 267 268 268 269 267 270 269 267 269 267 267 265 260 257 261 263 263 260 256 257
269 268 267 266 264 264 263 261 261 259 256 257 259 256 256 256 255 258 260 263 262 264 266 265 265 265 267 264 267 262 264 263 262 262 261 261 260 261 258 257 260 259 258 257
263 264 265 265 264 260 258 258 259 257 257 257 255 254 256 259 258 260 258 263 265 262 265 264 264 259 263 261 265 260 262 262 261 263 261 262 263 261 258 260 260 259 258 256
267 266 265 263 263 262 259 260 258 258 257 256 257 258 261 265 266 263 262 267 267 262 265 260 258 257 256 257 255 255 256 255 255 256 255 254 254 255 257 258 256 255 255 257
267 268 266 265 266 268 267 267 267 267 261 264 262 259 267 263 261 267 265 261 259 259 258 257 256 257 256 256 255 254 254 255 256 254 255 254 253 252 251 251 252 250 250 251
270 268 268 268 270 270 271 271 270 271 269 270 270 270 268 269 264 264 261 261 261 259 258 257 258 257 252 252 255 255 254 253 254 252 252 251 255 256 257 257 256 253 252 251
273 272 271 273 273 273 272 272 270 269 271 268 267 266 265 265 266 264 262 261 262 261 259 256 254 255 253 253 254 255 254 255 255 256 256 254 251 252 252 255 257 258 258 256
274 272 272 271 271 271 269 269 265 263 261 261 263 264 267 267 263 260 260 258 257 257 260 259 260 263 263 259 256 257 254 253 255 259 257 259 259 255 251 252 253 253 257 258

GFSNGP_sfc_thetae_093.txt.gz
Theta_e
279 280 279 278 278 279 278 279 276 279 281 287 289 288 288 288 288 286 285 285 285 284 284 285 286 287 289 291 293 297 298 298 299 305 308 306 304 303 302 301 300 300 299 298
276 278 277 277 280 280 280 281 281 282 281 291 290 289 286 286 285 284 284 284 284 284 284 285 285 286 288 289 291 294 293 293 294 295 296 295 295 295 294 294 294 294 293 292
272 278 278 274 279 282 281 283 284 279 286 289 286 283 282 283 283 283 283 283 283 284 284 285 285 286 286 288 290 290 291 290 290 290 290 290 290 290 290 290 291 290 289 289
272 276 268 279 286 285 285 286 288 289 287 287 283 282 283 283 282 282 283 283 283 283 284 284 285 285 286 286 287 287 287 288 289 288 286 287 287 286 287 287 287 288 287 287
269 271 277 280 283 281 281 281 285 286 285 283 283 283 280 283 283 283 284 284 284 284 284 284 284 285 285 284 284 285 284 285 286 287 286 285 284 284 285 285 285 285 286 286
276 267 267 276 283 286 286 278 283 283 282 285 284 282 278 283 284 284 284 284 284 284 285 284 284 284 283 282 282 281 283 283 285 285 285 285 284 284 284 284 283 283 283 284
274 273 276 280 283 286 277 276 282 281 281 282 279 280 282 284 283 283 283 283 283 282 282 284 284 283 280 279 279 281 282 283 283 283 284 284 284 284 283 283 282 282 282 282
278 275 273 283 283 277 282 283 282 281 280 279 280 280 279 279 280 280 278 280 280 280 281 283 283 282 280 279 280 281 281 280 280 281 282 283 282 282 282 281 281 281 281 281
277 276 283 284 282 284 285 283 282 281 281 279 277 275 275 275 275 276 277 278 279 279 279 281 282 281 279 280 280 279 279 279 279 279 279 280 280 280 280 280 279 279 279 279
280 280 281 283 283 284 283 281 281 281 279 278 274 274 273 273 273 273 275 276 277 277 277 278 280 282 281 281 281 279 278 278 279 279 278 279 279 279 278 278 278 278 278 278
279 281 281 282 283 282 282 282 281 281 280 277 275 274 275 275 274 273 273 274 275 275 275 276 278 279 281 283 281 279 278 278 277 277 277 278 278 278 278 279 279 277 278 278
274 281 280 280 283 284 281 280 280 279 277 277 276 273 272 273 274 274 272 273 273 273 273 274 275 276 278 281 282 280 278 277 277 276 276 276 277 278 281 281 281 281 281 281
279 283 283 283 283 283 280 280 279 278 278 276 276 275 275 273 274 275 273 272 271 271 272 271 272 272 274 278 279 279 279 279 278 277 276 275 274 274 273 275 278 281 281 282
286 283 281 283 280 283 282 281 281 279 278 277 276 276 276 274 274 273 272 273 272 271 270 270 270 269 270 273 276 276 276 276 276 276 274 273 272 272 271 270 270 271 276 278
285 285 282 283 281 280 279 278 277 276 276 275 275 274 274 272 272 272 273 273 272 270 269 269 269 268 269 271 271 272 274 273 272 273 273 273 272 271 270 269 269 269 270 270
284 284 282 282 281 279 277 277 275 275 275 274 273 273 272 272 271 270 270 270 268 266 267 266 268 267 269 269 270 271 271 273 272 272 272 272 271 269 269 268 268 267 267 266
279 278 278 277 277 277 276 276 275 275 275 273 272 272 271 270 269 268 265 264 262 260 260 262 262 265 267 268 271 270 270 271 270 271 271 270 268 267 267 267 267 266 265 264
279 280 280 278 276 275 274 274 274 273 270 270 267 265 263 263 262 260 259 258 260 261 261 261 263 265 266 268 270 270 270 271 271 270 270 269 269 269 267 267 267 266 264 263
279 277 277 276 275 273 272 271 269 267 265 263 263 260 256 255 256 256 258 256 256 259 261 261 270 267 268 269 270 270 269 267 269 269 269 267 267 267 265 264 263 262 263 263
274 274 273 272 271 270 268 264 265 263 258 259 256 257 257 255 253 255 255 258 258 260 261 264 266 267 268 268 266 268 267 265 267 265 264 264 260 260 263 265 265 261 258 259
268 268 266 265 262 261 260 258 260 258 255 254 258 255 255 254 253 253 259 262 261 263 265 264 264 264 266 264 265 260 262 261 262 261 258 258 256 256 256 257 258 255 253 253
261 263 262 262 262 258 256 256 258 255 255 254 252 252 255 258 257 259 257 262 264 261 263 263 262 257 262 261 263 258 260 260 262 263 262 261 259 257 255 256 255 256 256 254
264 263 262 261 262 260 258 258 256 257 256 255 256 257 260 263 264 262 261 266 266 262 264 260 257 256 256 253 253 252 254 254 255 255 256 255 257 258 258 258 256 256 255 255
265 266 264 264 264 267 266 266 266 266 259 262 261 258 264 262 260 266 265 261 259 257 256 255 255 256 254 252 252 251 252 252 252 250 252 252 250 253 254 254 254 250 249 250
269 268 267 267 269 268 270 270 269 269 269 269 269 270 267 268 263 263 260 259 260 259 258 256 257 256 251 251 251 252 251 251 251 250 250 249 250 252 252 251 251 252 249 250
272 271 270 271 271 270 271 271 267 267 268 266 267 267 266 264 267 266 263 259 259 260 258 257 252 252 251 252 251 251 252 253 253 253 251 251 249 250 250 251 251 254 254 252
273 271 271 270 270 270 269 269 264 263 261 258 259 258 260 258 261 264 262 260 259 259 258 259 258 258 259 259 258 258 257 255 253 255 254 255 254 253 254 253 252 251 251 252

GFSNGP_sfc_thetae_096.txt.gz
Theta_e
279 279 279 278 277 276 276 277 272 276 277 282 287 288 287 287 286 285 284 284 284 284 284 285 285 286 287 289 290 293 292 292 293 295 296 302 309 305 303 302 302 302 300 298
275 278 277 275 277 278 278 279 279 279 278 287 290 288 285 284 284 283 283 283 283 284 284 284 285 285 286 287 288 290 291 290 291 291 291 291 294 295 295 295 294 294 292 291
271 277 276 272 277 281 281 284 283 277 281 288 284 282 281 282 282 282 282 282 282 283 283 284 284 285 285 285 287 287 287 289 290 289 288 287 287 290 290 290 290 289 288 288
271 274 264 277 285 284 282 284 283 285 288 289 282 282 282 283 282 282 282 282 283 283 283 283 284 284 285 285 285 285 285 285 287 288 287 287 285 285 286 287 287 287 286 287
267 270 275 278 281 279 279 280 283 283 284 282 282 281 280 283 283 283 283 283 283 284 284 284 283 283 283 282 283 283 283 283 284 285 285 285 285 284 284 284 284 284 285 285
274 267 264 274 281 285 285 276 281 281 282 283 283 280 277 282 283 282 282 282 281 282 283 283 283 282 281 280 280 280 281 282 284 284 284 283 283 283 284 284 283 283 283 284
273 270 273 279 282 285 275 274 281 281 280 283 278 279 281 281 280 280 281 281 281 282 281 281 282 281 279 278 278 280 281 281 281 282 282 282 282 282 282 282 282 282 282 282
276 272 269 282 282 275 279 282 282 280 280 278 278 277 277 277 276 277 278 279 280 280 280 282 281 280 278 277 279 279 279 279 279 280 280 281 281 281 281 281 280 280 280 280
276 274 282 282 281 282 282 281 280 280 279 278 276 274 274 274 274 274 276 277 278 278 278 279 281 281 278 279 279 278 278 278 278 278 278 279 278 278 278 279 280 280 279 279
278 280 280 282 282 282 281 280 280 279 277 276 274 273 272 271 271 272 273 274 276 276 276 276 278 280 282 281 280 279 278 277 277 278 278 278 279 279 278 278 278 278 279 279
278 280 281 281 282 282 281 280 279 278 278 276 274 273 274 272 271 271 271 272 274 274 274 274 276 277 278 280 280 279 278 277 277 277 277 278 278 278 279 280 280 278 279 280
272 280 280 280 283 283 280 279 279 277 276 276 275 273 273 272 273 272 271 272 271 272 272 272 274 274 275 278 280 279 278 277 276 276 276 276 277 275 281 282 282 283 283 282
276 282 281 282 282 281 279 278 278 277 276 275 275 275 274 273 273 274 272 271 270 269 270 269 269 270 272 275 277 277 277 278 276 275 274 274 274 273 273 276 279 281 281 281
283 282 279 281 279 281 280 280 279 277 277 276 275 275 275 273 273 272 272 272 271 270 268 267 267 267 268 270 272 272 271 272 272 272 271 271 270 271 271 270 270 270 275 277
284 283 282 281 280 279 279 278 277 275 275 274 275 274 273 272 270 270 271 272 271 269 267 267 267 267 267 267 268 269 269 267 266 268 269 269 270 270 270 270 270 269 270 270
284 283 282 280 278 278 278 276 275 275 274 274 273 272 271 270 269 268 268 268 267 265 265 263 266 264 266 266 267 267 267 270 268 268 268 268 268 269 268 269 268 267 267 267
278 277 279 278 277 277 276 276 275 275 273 272 271 271 271 269 268 266 263 262 260 258 258 259 261 263 265 266 268 267 267 268 268 269 268 267 266 267 267 267 267 266 265 265
280 279 279 279 277 275 274 274 273 272 270 269 266 264 262 262 260 258 257 257 258 260 260 259 262 264 265 267 269 269 268 269 269 268 269 267 267 268 266 266 267 266 265 264
279 278 278 277 276 273 272 270 268 267 264 263 263 259 255 253 254 254 254 255 256 259 261 261 269 266 267 268 269 269 267 266 267 267 267 265 264 265 263 263 263 263 265 265
274 274 273 271 271 270 267 264 265 262 257 259 257 255 256 254 251 253 254 257 257 259 260 263 265 266 266 266 264 267 265 262 266 264 263 263 258 258 261 263 262 258 257 258
268 267 266 265 261 261 260 257 260 259 254 253 257 255 255 254 252 252 259 262 260 262 264 263 263 263 265 263 264 258 260 258 258 259 257 256 255 261 259 259 259 259 255 255
261 263 261 261 262 258 254 255 259 257 255 254 251 251 253 258 256 257 256 262 263 260 262 262 261 257 260 259 262 257 260 259 257 259 260 261 258 257 256 256 257 257 256 258
262 262 261 260 262 260 258 257 255 256 255 254 255 256 259 263 263 262 261 265 265 261 263 260 256 255 254 252 252 251 252 253 254 254 252 251 252 254 257 257 257 257 253 253
265 266 264 264 264 266 266 265 266 265 258 262 260 257 264 261 261 266 264 261 258 256 256 255 254 256 253 251 251 250 250 250 250 250 252 251 248 249 250 251 252 251 250 250
268 267 266 266 269 267 269 269 268 268 268 269 269 269 266 267 263 263 260 259 259 259 257 255 255 254 250 250 250 250 250 249 249 249 250 248 249 249 252 252 253 257 255 255
271 270 269 270 269 269 269 269 266 266 267 264 263 259 259 264 267 266 264 260 259 261 258 255 252 251 251 252 252 251 252 253 251 251 250 251 248 249 249 250 249 251 256 258
271 269 269 269 269 269 268 267 264 262 259 257 258 256 258 256 255 261 263 260 259 259 261 260 260 261 261 260 261 259 257 258 255 257 253 253 252 254 252 252 252 250 249 253

GFSNGP_sfc_thetae_099.txt.gz
Theta_e
280 281 281 280 279 279 277 278 275 277 278 282 285 288 288 287 287 285 284 284 285 284 285 285 285 285 286 287 287 289 290 291 292 293 293 293 299 299 316 311 308 306 303 300
277 280 280 277 279 279 279 279 279 281 281 288 290 289 286 284 284 283 283 283 284 284 284 284 284 284 285 285 286 288 287 288 291 291 291 289 290 292 294 297 296 295 293 293
272 278 277 273 278 279 281 284 283 279 284 289 285 284 283 283 283 282 282 283 283 283 283 283 283 284 284 284 285 285 286 286 287 289 289 290 288 288 287 288 290 289 289 289
273 275 267 279 285 285 281 284 283 283 286 289 285 283 283 284 283 282 283 282 283 283 283 283 284 283 284 284 284 283 283 284 285 286 287 288 287 286 285 285 286 286 287 288
272 272 276 279 281 279 279 279 281 280 284 282 281 282 281 283 283 282 282 282 282 283 282 283 283 283 283 282 283 282 282 282 283 284 283 284 285 285 285 284 284 284 286 286
275 270 269 276 281 284 284 276 281 280 280 281 282 280 278 281 282 281 281 282 282 283 282 282 282 282 281 281 280 280 281 282 283 283 282 282 282 283 284 284 283 284 283 284
275 274 276 280 282 284 275 275 281 280 279 283 277 278 279 280 279 280 281 281 282 282 281 282 282 281 279 279 278 280 281 281 282 283 282 282 282 283 282 282 282 282 281 281
276 273 271 282 281 276 279 282 281 279 279 277 277 277 277 276 276 277 278 279 280 280 280 281 283 282 280 279 280 280 280 281 280 281 282 283 281 282 283 283 281 281 280 280
277 276 282 282 281 282 282 280 280 279 278 277 276 274 275 274 275 275 277 278 280 279 280 280 281 281 280 281 281 281 280 279 281 281 281 282 282 282 282 283 282 282 281 281
279 280 281 282 282 282 281 279 279 279 278 277 274 274 273 273 273 274 275 276 278 278 278 277 279 280 280 282 282 281 280 280 280 280 280 282 282 282 282 283 282 282 282 281
278 280 281 281 282 281 280 280 279 279 278 277 275 275 275 274 274 274 274 275 276 276 276 276 278 279 280 281 283 280 280 280 280 280 280 279 280 281 282 283 283 282 282 282
277 281 281 280 282 283 280 279 279 277 276 277 276 274 274 274 274 274 273 273 273 273 273 274 276 276 277 280 282 281 280 279 279 279 279 279 279 279 280 282 282 282 282 282
280 283 282 282 282 281 279 278 278 277 277 276 276 276 275 274 275 275 274 273 271 270 270 271 272 272 273 276 279 279 278 278 278 278 278 278 278 277 277 278 278 279 280 280
283 282 280 281 279 281 280 279 279 278 277 277 276 276 276 275 274 273 272 273 272 271 270 271 271 270 271 274 276 275 277 274 277 277 277 277 276 276 276 276 274 274 275 276
283 284 283 282 281 280 280 279 277 276 276 275 276 275 274 272 271 271 272 273 272 271 269 270 269 269 270 271 274 275 278 277 277 276 275 275 276 276 275 274 274 273 274 274
283 282 281 280 279 279 278 277 276 275 275 275 274 273 272 272 270 270 269 269 269 267 267 266 269 268 269 271 275 276 276 274 274 277 276 275 275 275 274 273 273 272 271 272
280 279 280 279 278 278 277 277 277 275 274 273 273 272 272 270 270 268 266 265 264 264 265 266 267 267 268 271 275 276 277 277 273 276 275 274 274 273 273 273 272 271 270 270
283 283 284 281 279 277 276 276 275 274 272 272 269 268 266 267 267 264 263 264 265 266 266 265 267 269 269 271 273 275 275 275 275 275 274 274 274 274 273 272 271 271 270 269
282 280 280 279 278 276 274 273 271 269 268 267 266 264 263 262 264 263 263 265 266 268 267 266 270 270 270 271 272 274 273 274 274 273 274 271 273 273 272 272 271 271 271 270
276 276 275 274 273 273 270 268 268 265 264 264 262 263 264 262 261 263 264 266 266 268 266 267 269 269 270 269 268 272 271 271 271 272 271 271 271 272 272 269 271 271 271 270
272 271 269 267 265 264 264 264 264 264 261 261 265 264 264 262 261 261 268 270 268 267 267 266 267 269 269 268 270 270 270 270 270 269 269 269 269 270 270 271 271 270 270 270
268 266 265 265 264 262 262 264 263 262 262 261 259 260 262 266 264 265 265 269 270 264 267 269 268 262 266 265 269 269 269 268 268 269 269 268 268 268 268 268 269 269 269 269
266 266 265 265 266 265 263 264 263 264 263 263 264 265 268 271 271 271 270 270 270 267 270 270 263 260 260 268 268 268 268 267 267 267 267 267 266 267 267 267 268 268 268 268
267 268 267 266 266 267 267 267 267 267 265 267 265 264 269 271 272 272 272 267 263 265 268 268 266 261 258 267 267 267 267 267 267 267 267 261 266 266 267 267 267 268 266 264
269 268 268 268 270 270 270 270 270 271 270 272 272 271 270 271 271 272 271 271 265 266 270 262 260 259 266 266 266 266 266 267 267 266 266 266 266 266 267 267 266 267 267 266
271 270 271 272 273 273 273 272 272 272 273 272 271 270 270 269 270 271 271 269 269 266 269 268 267 267 267 266 266 266 266 266 265 265 265 266 266 265 265 265 265 266 266 266
273 271 272 272 273 274 274 273 273 272 269 271 270 269 269 268 268 268 267 270 269 268 268 268 267 266 266 266 267 267 267 267 266 266 266 266 265 265 265 265 266 266 265 264

GFSNGP_sfc_thetae_102.txt.gz
Theta_e
282 282 282 282 282 282 281 281 278 281 281 285 289 292 293 292 291 289 287 287 288 289 289 290 289 289 289 286 286 288 287 287 290 292 293 293 293 295 300 309 319 317 312 309
279 282 282 280 282 282 282 282 282 282 283 292 293 293 289 289 288 287 286 286 287 287 287 288 287 286 286 287 286 286 286 286 288 288 291 292 291 290 290 291 294 299 300 300
275 279 279 276 281 282 283 284 285 282 287 290 289 288 287 287 285 285 284 284 284 285 286 286 286 286 286 286 287 285 284 285 285 286 287 288 289 289 287 287 288 289 292 291
277 278 271 282 287 286 283 286 286 285 286 286 285 285 285 285 284 284 283 283 283 284 285 285 285 285 286 286 285 285 284 283 284 284 284 285 287 286 286 286 285 285 286 288
277 277 279 280 282 281 280 280 283 282 284 283 284 285 282 284 283 282 282 284 283 284 285 284 284 285 285 284 285 284 283 284 284 283 283 284 283 284 285 285 284 283 284 286
279 274 272 281 284 287 284 277 282 282 282 284 285 283 280 282 282 282 283 283 284 284 284 284 283 284 284 283 282 282 282 283 284 285 283 283 284 283 283 283 282 282 281 283
278 277 279 280 285 286 276 277 282 281 281 283 280 281 280 281 281 282 283 283 284 284 283 283 285 284 282 282 281 282 284 284 284 284 284 284 285 285 284 284 282 281 280 280
280 277 273 285 285 280 280 283 282 281 280 279 279 279 279 279 278 280 281 282 283 283 282 284 284 285 283 281 283 284 283 283 283 284 285 285 285 285 285 285 284 283 281 281
280 279 283 284 282 283 284 283 282 280 280 279 278 276 277 277 277 278 280 281 283 283 283 283 283 283 282 284 285 285 284 283 283 284 284 285 285 284 286 285 285 284 283 282
282 282 283 283 283 283 283 281 281 281 280 279 276 276 276 277 277 278 278 279 281 282 281 281 282 283 283 285 286 285 284 283 283 283 284 283 285 285 282 284 284 283 283 283
281 282 283 283 283 283 281 282 280 280 280 279 278 278 278 278 278 278 278 278 279 279 279 279 281 281 283 284 285 284 283 283 284 283 283 283 281 281 282 282 282 282 282 282
281 285 284 282 283 284 281 280 280 280 279 280 279 278 278 277 278 278 276 277 276 277 277 278 280 279 281 283 283 283 282 282 282 283 283 283 283 281 280 280 280 281 281 281
283 286 284 284 284 283 281 280 281 280 280 279 279 279 279 278 278 277 277 276 275 274 275 276 276 276 277 280 281 281 280 281 282 281 281 281 281 280 280 280 278 277 279 279
287 285 281 283 280 282 282 282 281 281 280 280 280 280 279 278 278 277 276 276 276 275 275 275 274 274 275 278 279 280 281 279 281 281 281 281 280 280 280 279 278 278 276 276
286 287 286 284 283 282 282 281 280 279 279 279 279 279 278 276 275 274 276 276 275 274 273 273 273 273 275 276 279 279 280 280 281 281 280 279 280 280 279 279 278 278 279 278
285 286 285 283 282 282 281 281 279 279 278 278 277 276 276 275 274 274 273 273 272 271 271 270 272 272 274 276 279 280 280 278 279 280 280 279 279 279 278 278 277 277 276 275
282 281 282 282 282 281 281 281 280 279 278 277 276 276 276 274 273 272 271 270 270 270 270 270 271 272 273 275 278 280 280 280 278 280 279 279 278 278 278 277 276 276 275 272
287 287 286 285 282 281 280 279 279 278 277 276 274 272 271 271 270 269 269 270 270 270 270 270 272 273 273 274 277 278 278 278 278 277 278 277 277 277 277 276 275 275 275 273
287 286 285 284 282 280 279 278 276 274 272 272 271 270 269 269 270 269 270 270 271 272 270 271 272 273 274 273 274 276 276 276 276 276 276 275 276 276 275 275 274 274 274 273
283 283 282 280 279 278 275 273 273 271 271 270 268 269 269 268 268 269 270 270 270 272 271 271 272 273 272 272 272 275 275 275 274 274 274 274 274 274 275 272 273 273 273 273
279 277 275 272 272 272 272 271 270 269 269 269 271 270 270 269 268 269 272 275 272 271 271 270 271 273 273 272 273 274 274 273 273 273 273 272 272 273 273 273 273 273 273 273
274 272 270 270 270 269 270 272 270 268 268 268 267 267 269 271 270 271 271 273 274 268 272 274 273 268 271 269 273 273 272 272 272 272 272 271 271 271 271 271 271 271 271 272
273 272 271 270 270 270 270 270 269 270 269 269 269 271 274 276 277 276 275 273 275 272 274 275 269 266 267 273 273 273 272 271 271 271 271 271 271 270 270 270 270 270 270 270
273 273 272 272 271 271 271 271 272 272 271 272 271 271 274 276 277 277 277 272 271 271 274 274 271 268 265 273 273 273 272 272 272 272 272 268 271 270 270 270 269 270 270 269
274 273 272 272 273 275 274 273 274 273 273 275 275 274 274 277 276 277 276 276 270 271 275 268 266 267 272 273 272 272 272 272 272 272 272 271 271 271 271 270 270 270 269 269
274 274 275 276 277 277 277 276 277 277 277 276 276 277 277 276 276 276 276 273 274 272 274 274 272 272 272 272 271 271 271 271 271 270 270 271 271 271 271 270 270 270 270 270
276 276 276 277 278 278 278 278 278 276 276 277 275 276 276 276 275 274 272 274 274 273 272 272 271 270 269 269 270 270 269 269 268 268 269 269 269 269 269 269 269 270 270 269

GFSNGP_sfc_thetae_105.txt.gz
Theta_e
284 285 285 285 285 285 283 284 280 283 283 286 291 293 294 294 294 292 290 290 290 290 290 291 291 290 291 290 290 287 286 286 286 287 290 292 293 292 294 293 295 308 318 313
282 284 284 281 284 284 284 284 284 284 283 292 294 294 291 290 290 288 287 287 287 288 288 288 288 288 289 288 289 288 285 285 286 287 287 288 289 290 290 290 289 291 294 298
278 281 281 278 282 284 285 286 286 282 288 290 289 286 286 287 287 285 285 285 285 285 286 286 286 287 287 288 288 287 285 285 285 285 285 285 287 287 287 288 288 286 287 289
280 280 273 284 289 287 286 287 289 288 288 287 285 285 285 286 285 284 284 284 284 285 286 286 287 287 288 288 286 285 285 285 285 285 284 285 284 284 285 285 285 285 284 286
279 278 282 283 285 283 281 283 284 284 286 286 286 285 282 284 284 283 284 284 284 285 285 286 285 286 286 285 285 284 284 284 285 285 285 285 284 283 283 282 282 282 283 283
281 277 274 282 286 289 287 280 284 284 284 284 286 282 279 283 284 283 284 284 285 285 284 285 285 285 284 284 283 283 284 284 285 286 285 285 285 285 285 284 281 281 281 281
281 279 280 284 287 289 277 278 283 282 282 284 283 282 282 282 282 283 284 284 285 285 284 284 286 286 284 284 283 284 285 285 285 285 286 286 286 285 285 285 285 283 281 280
282 279 276 287 287 280 281 284 283 282 282 281 281 281 280 280 280 281 282 284 285 284 284 285 285 286 285 284 285 286 286 285 284 284 285 286 285 286 286 285 285 284 284 283
282 281 283 286 283 284 285 284 283 282 282 281 280 279 279 279 279 280 281 283 284 283 283 284 284 284 284 286 288 288 287 285 285 285 284 285 284 283 283 285 284 283 283 281
283 283 283 283 285 285 285 283 283 283 282 281 278 278 278 279 279 279 280 281 283 282 282 281 283 284 284 285 287 286 285 285 286 285 284 283 283 283 281 280 282 281 280 281
281 282 284 283 284 284 283 283 282 282 282 281 280 280 280 279 279 279 279 280 280 280 281 281 282 282 283 284 285 284 284 284 285 285 285 283 281 280 280 280 280 279 280 279
284 287 286 283 284 284 283 282 282 282 281 281 281 279 280 279 280 279 278 279 279 278 279 279 279 279 281 283 284 283 283 283 282 283 284 283 282 281 280 279 279 280 280 279
285 289 287 285 285 285 283 282 283 282 282 281 282 281 281 279 280 279 279 278 277 276 277 277 277 276 279 281 282 282 281 282 283 282 282 282 282 281 280 280 279 278 278 278
288 287 282 284 282 285 284 284 283 283 283 282 282 282 282 281 280 279 278 278 278 277 276 276 275 275 277 280 281 281 282 281 282 282 281 281 281 281 281 280 279 280 278 277
287 289 287 286 285 284 284 284 282 281 281 281 282 282 281 279 278 277 278 278 277 276 274 273 273 273 277 278 281 281 281 281 283 282 282 281 282 281 281 280 279 279 279 279
287 287 286 284 284 283 283 283 282 281 281 281 280 279 279 278 277 276 275 274 274 272 272 271 273 273 275 277 280 282 282 279 280 281 281 281 281 280 280 279 279 278 276 274
284 283 283 283 283 283 283 283 283 282 281 280 279 279 278 277 276 274 272 273 272 272 272 272 272 274 275 276 278 280 281 281 279 280 280 280 279 279 279 278 277 277 276 274
289 288 288 286 285 284 283 283 282 281 280 279 276 275 273 273 272 271 271 272 273 272 272 272 273 275 275 274 276 279 279 279 279 278 278 278 277 278 277 277 276 276 276 275
289 288 288 286 285 284 282 281 280 278 275 274 274 273 272 272 273 272 273 273 274 274 272 273 274 275 275 274 274 278 277 277 277 277 277 276 277 277 276 276 276 276 275 275
288 287 286 284 284 282 280 277 276 275 275 274 272 272 271 270 271 271 273 272 272 273 273 273 275 275 274 274 274 277 276 276 275 275 275 275 275 275 275 275 275 275 275 275
283 282 281 279 278 277 276 275 273 272 272 273 274 273 273 272 271 272 274 277 274 273 273 272 274 274 274 273 275 276 275 275 274 274 273 273 273 273 274 274 274 274 274 274
279 277 276 275 274 274 274 275 274 272 272 273 271 272 272 273 272 273 273 275 276 270 274 276 275 270 272 270 275 275 274 274 273 273 273 273 272 272 272 272 272 272 273 273
277 276 275 273 274 275 274 272 272 272 271 271 271 273 276 278 278 277 276 275 277 273 275 276 271 270 270 273 275 275 274 273 273 273 273 273 272 272 271 271 271 271 272 271
277 276 275 276 274 273 272 273 274 274 274 274 274 274 276 278 279 279 279 274 273 273 276 276 273 270 269 274 274 274 273 273 273 273 273 273 273 272 272 271 271 271 271 271
277 276 275 274 275 276 276 276 276 276 275 277 276 276 276 279 277 278 278 278 274 273 276 272 271 271 274 274 273 272 272 272 272 272 272 272 272 272 273 272 271 271 271 270
277 277 277 278 280 278 278 278 278 278 278 278 278 278 278 278 278 278 277 275 276 274 276 275 274 272 273 272 271 271 271 271 270 270 269 269 270 271 270 270 271 272 271 271
279 278 279 279 280 280 280 280 279 278 279 279 278 278 277 277 277 276 274 276 275 274 274 273 273 271 271 270 270 270 269 269 268 267 267 267 267 267 267 267 267 268 268 269

GFSNGP_sfc_thetae_108.txt.gz
Theta_e
287 286 286 286 285 286 284 285 282 283 283 287 291 292 292 292 292 290 289 288 288 287 287 287 287 288 289 289 289 288 287 286 286 287 287 287 288 288 290 291 292 292 294 297
283 286 285 282 284 285 285 285 284 284 283 291 291 291 289 289 288 287 286 286 286 286 286 286 286 287 288 288 287 287 286 286 286 286 286 286 285 285 286 287 288 289 288 290
278 284 282 278 282 283 285 286 286 281 286 289 286 285 284 286 285 284 284 283 283 284 284 284 285 287 286 287 287 286 285 286 286 286 285 285 285 284 283 283 285 285 286 286
279 280 272 284 289 288 285 287 287 287 287 287 285 284 284 284 283 282 282 283 283 284 284 285 286 286 286 286 285 285 284 285 285 285 285 285 285 284 283 282 281 281 282 284
277 277 282 284 285 283 281 282 285 284 286 287 285 283 281 283 283 282 283 284 283 284 285 286 285 286 285 284 284 284 284 284 285 285 285 285 285 284 284 283 281 281 281 281
281 276 274 282 287 290 287 278 283 283 282 284 286 280 277 281 283 283 284 284 284 284 285 285 285 286 284 284 283 283 283 283 284 285 284 284 285 284 285 285 284 283 281 281
280 279 279 285 288 289 277 277 282 281 281 285 280 280 280 281 281 283 284 284 285 285 284 284 285 285 284 284 283 284 285 284 284 284 284 283 284 284 285 285 284 283 282 283
282 279 276 287 287 282 282 284 282 281 282 280 280 279 279 280 280 281 283 284 284 283 283 284 285 285 284 284 285 286 285 285 283 282 283 283 281 282 282 283 282 282 281 280
280 279 283 285 283 285 287 284 282 281 281 281 279 278 279 278 279 280 281 282 283 283 282 282 283 283 282 284 286 285 285 285 285 283 282 282 280 279 279 280 280 278 278 278
283 282 282 283 284 285 285 283 283 283 282 281 278 279 278 279 279 279 280 280 282 281 280 279 281 282 282 284 285 284 283 283 284 284 282 281 281 279 278 277 277 277 276 276
281 283 283 283 284 283 283 283 282 283 282 280 280 280 279 279 279 279 279 280 280 279 278 278 278 280 281 283 283 283 283 282 282 282 282 281 279 278 278 277 277 276 276 276
284 286 286 283 284 284 282 281 282 282 281 282 281 279 280 279 279 278 278 278 278 277 277 277 277 277 279 281 282 282 280 281 281 281 281 281 281 279 280 280 280 279 279 278
287 289 286 285 285 285 283 283 284 283 283 281 282 281 280 279 279 279 278 277 276 275 275 275 274 274 277 279 281 280 280 280 280 280 280 280 280 279 278 279 280 280 280 279
288 286 282 284 282 285 284 284 284 284 283 283 282 282 281 280 279 278 277 277 276 274 273 273 272 272 275 276 279 277 279 279 281 280 280 280 279 279 279 277 276 276 277 277
287 289 286 287 286 285 284 284 282 281 282 282 283 282 281 279 277 276 277 277 276 274 272 272 270 271 273 274 276 281 280 278 280 280 279 279 279 279 278 277 276 275 273 273
287 287 286 285 284 284 283 283 281 281 281 281 280 279 279 277 276 275 274 273 273 271 271 269 271 272 273 273 274 279 279 277 277 279 279 278 278 277 277 276 276 275 272 271
285 283 284 283 283 283 283 284 283 281 281 280 279 279 278 276 275 273 272 272 270 269 270 269 270 270 271 272 274 278 278 278 275 278 277 277 276 276 276 275 274 274 274 271
289 288 287 286 284 284 283 283 282 282 280 278 275 273 271 271 270 269 270 271 270 268 270 270 271 272 271 272 274 277 277 276 276 276 276 275 275 275 275 274 274 274 274 274
289 288 287 286 285 284 282 281 278 275 274 274 273 271 271 270 271 271 272 270 270 271 271 271 274 274 274 273 274 276 275 275 275 275 274 273 274 274 274 274 273 273 274 273
287 287 286 285 284 282 278 275 276 274 274 272 271 270 270 268 269 269 271 270 270 271 273 273 274 275 274 274 271 275 274 274 273 273 273 272 272 272 272 271 272 272 273 273
284 282 280 278 277 276 276 276 274 272 272 271 272 270 270 270 269 268 274 274 273 272 273 271 273 272 273 271 272 274 274 273 272 272 271 271 271 271 270 270 270 271 271 271
281 279 277 276 276 275 275 275 273 272 272 271 269 269 269 271 270 272 271 274 274 268 273 276 273 267 270 267 274 274 273 273 272 272 272 271 271 269 270 269 269 269 269 270
278 277 276 275 274 275 275 272 272 272 270 269 269 272 275 277 277 276 275 275 277 270 275 274 268 267 266 271 273 274 273 272 271 271 272 271 271 271 270 269 268 268 269 268
277 276 276 277 275 273 272 272 274 273 272 273 273 272 276 277 279 279 277 272 270 272 274 273 270 267 265 272 273 272 271 271 271 270 270 268 269 269 270 270 269 268 268 268
277 276 276 274 275 275 274 275 275 275 275 276 275 275 276 278 277 277 277 276 274 272 274 271 268 267 272 272 270 270 270 270 269 268 267 267 267 267 267 266 266 266 268 268
277 277 277 278 278 277 277 277 276 277 277 277 278 278 278 278 277 277 277 274 275 273 274 274 272 271 271 269 269 269 268 268 267 266 265 265 265 265 264 264 263 264 265 265
279 278 278 279 279 279 278 279 279 278 280 279 277 278 277 277 275 275 273 275 274 273 273 272 272 270 269 268 268 267 267 266 264 264 264 263 262 262 261 261 261 262 263 263

GFSNGP_sfc_thetae_111.txt.gz
Theta_e
287 288 286 285 285 286 285 284 279 282 283 286 287 286 287 288 287 286 285 285 285 284 284 285 285 286 287 286 286 287 286 286 286 287 288 287 286 285 285 285 286 288 289 290
282 286 285 282 284 283 284 284 284 283 282 287 287 287 285 285 285 283 283 283 283 284 283 284 284 285 285 285 285 286 285 285 286 286 287 286 286 284 283 283 283 284 285 286
277 284 283 276 282 284 285 285 286 279 284 285 283 282 282 283 283 282 282 282 282 283 283 283 283 285 284 285 286 285 285 285 286 286 286 286 286 285 283 282 282 282 282 283
278 278 271 282 287 287 284 283 285 285 284 283 281 281 282 282 281 281 282 280 281 282 283 283 285 285 285 285 285 284 284 284 285 284 284 285 285 285 285 283 282 281 281 282
275 276 280 282 285 281 278 279 282 282 284 282 281 280 279 282 282 282 281 283 280 283 284 285 285 286 286 284 284 284 282 283 283 283 282 282 282 284 284 283 282 281 282 282
278 273 270 278 286 288 286 273 281 280 280 283 281 276 275 281 282 281 283 282 283 284 284 284 284 285 285 284 284 283 283 282 283 283 281 280 281 281 283 283 282 281 281 281
277 274 278 285 288 290 272 273 281 282 280 281 276 276 279 281 279 280 283 283 284 284 282 283 284 284 283 284 283 284 285 283 282 282 281 280 280 280 280 280 280 280 279 280
277 274 272 284 285 279 278 282 281 281 279 277 278 278 278 278 277 280 282 283 283 282 281 282 282 282 281 281 283 284 284 283 281 281 281 280 278 278 278 278 278 276 276 277
278 276 282 284 282 285 285 281 281 281 281 280 278 277 276 277 278 279 280 282 281 279 279 279 280 280 279 281 283 282 282 282 281 280 280 280 278 277 276 276 276 276 275 274
279 280 281 282 284 285 284 282 282 282 281 279 277 276 276 277 277 278 278 278 278 278 276 276 278 279 280 281 282 282 280 280 281 281 279 279 278 277 276 275 275 274 274 274
280 281 282 283 283 283 282 282 281 280 279 278 278 277 277 277 276 275 275 276 277 276 275 274 276 276 278 279 281 280 280 279 279 280 279 278 278 277 277 278 278 276 275 275
278 282 282 280 283 283 281 281 282 280 280 280 279 278 278 276 276 276 275 275 274 274 273 273 274 274 275 277 279 279 278 279 278 278 278 279 278 276 281 280 280 279 279 279
282 284 282 284 284 284 282 282 282 281 281 279 280 279 278 277 277 278 275 273 269 269 269 268 269 270 272 275 276 278 277 278 278 278 278 278 277 276 274 276 279 278 278 279
284 283 281 283 281 284 284 284 284 282 282 281 280 280 279 278 277 275 274 273 272 270 268 268 268 268 270 272 272 274 273 274 275 274 274 274 273 272 271 270 269 270 274 277
286 285 284 285 284 284 283 282 281 280 280 280 281 279 277 274 273 272 274 274 273 271 269 268 267 268 269 269 269 272 273 272 271 272 272 272 273 271 271 270 266 264 266 270
286 285 285 283 282 281 282 281 280 279 279 278 277 276 274 273 272 272 271 272 270 268 268 264 268 265 266 266 267 270 272 272 272 273 273 273 273 273 273 272 269 266 266 265
283 281 282 281 281 281 281 281 280 279 278 277 276 275 274 273 272 270 268 266 263 261 261 261 262 264 265 265 269 271 272 273 270 273 272 273 272 272 273 271 270 270 265 264
286 283 283 282 281 281 281 281 280 279 276 275 272 271 269 267 265 261 262 262 260 260 260 261 261 263 264 267 271 273 273 273 273 272 272 271 271 272 271 271 271 270 271 268
287 285 283 283 282 281 279 277 275 274 272 271 270 267 266 265 264 262 260 260 260 260 263 263 273 268 270 271 270 272 271 269 270 271 270 268 267 269 267 265 267 267 268 271
284 283 282 281 281 278 275 274 273 272 271 270 268 266 264 260 259 261 260 261 261 264 264 268 271 271 271 270 268 271 269 266 269 267 264 266 260 259 260 264 264 262 260 262
281 279 277 276 275 275 275 274 272 270 268 268 267 263 264 260 261 263 266 268 266 267 270 269 269 269 270 267 269 265 265 262 262 264 260 260 259 260 258 257 258 258 257 257
277 276 275 274 273 272 272 271 271 270 268 267 264 263 261 261 260 262 262 269 270 264 270 271 269 263 266 263 269 268 266 266 264 264 265 267 266 267 267 266 264 258 256 257
275 276 275 273 272 272 271 270 269 268 266 265 264 264 268 271 272 271 267 272 272 266 272 267 263 262 261 261 269 263 261 261 260 261 261 258 260 265 265 264 263 265 265 261
275 275 274 274 272 272 270 271 272 270 266 268 265 264 271 272 273 274 271 266 264 263 264 265 265 263 261 266 262 262 261 264 263 262 261 258 259 262 263 261 261 262 263 264
275 275 273 273 273 272 272 273 272 272 272 274 273 273 274 275 269 269 270 268 268 266 267 265 265 261 258 257 259 258 259 263 261 256 253 253 256 260 260 258 258 258 261 262
276 274 274 275 274 273 274 274 272 272 273 269 269 269 268 271 272 272 268 267 269 267 266 264 261 260 258 258 256 255 255 260 258 256 253 256 254 257 255 254 255 256 257 259
277 275 275 275 275 275 274 274 272 271 273 273 272 271 271 267 265 268 267 266 265 263 261 259 261 262 260 257 256 256 257 256 254 253 256 252 250 249 249 250 253 254 257 257

GFSNGP_sfc_thetae_114.txt.gz
Theta_e
286 288 287 286 283 286 286 284 279 281 283 286 285 284 284 285 285 283 282 283 283 282 282 283 284 283 284 284 286 285 285 285 285 286 287 287 286 286 285 285 285 285 285 286
282 287 285 281 283 283 283 284 284 284 282 287 286 285 283 283 283 281 281 282 282 282 282 282 283 283 283 283 284 284 284 284 284 285 285 286 286 285 284 284 284 284 283 284
279 284 284 278 280 284 284 284 285 279 283 284 281 281 281 282 282 281 280 281 281 282 282 283 283 284 283 284 284 283 283 283 284 283 283 283 284 284 283 282 281 282 282 283
278 281 273 281 288 288 282 282 285 284 283 283 281 280 281 282 281 281 280 280 281 282 283 284 285 285 285 284 284 282 282 281 282 282 281 282 282 282 281 282 281 280 281 282
275 276 279 282 284 282 280 278 282 283 281 280 280 280 279 282 282 280 281 281 282 283 283 283 283 285 285 284 284 283 281 281 281 280 279 279 279 279 280 280 280 279 280 280
277 274 270 277 286 288 284 272 280 281 283 280 279 274 275 281 282 281 280 283 282 280 278 279 281 283 284 284 283 283 282 281 281 281 279 277 277 278 278 278 277 278 278 279
277 274 277 284 287 288 272 274 280 279 277 280 279 274 278 280 280 281 283 282 281 280 279 279 282 282 280 281 280 282 283 282 280 280 279 278 277 277 277 277 277 276 277 278
278 273 271 283 285 279 276 280 279 276 276 276 277 278 277 277 277 278 280 280 279 278 278 280 280 280 279 279 280 281 281 281 280 279 280 279 277 277 276 276 275 275 276 277
277 274 280 283 280 282 282 279 280 277 277 276 275 276 275 274 271 275 278 278 278 277 277 277 278 278 277 279 282 281 280 279 279 279 278 278 277 276 276 276 276 275 275 275
277 280 280 282 284 284 283 280 282 281 280 278 275 272 273 272 273 274 275 275 276 276 275 275 276 277 278 279 281 280 279 279 279 279 278 278 278 278 276 275 275 275 275 275
279 280 281 282 282 283 282 282 281 280 278 276 275 274 275 275 274 272 272 274 275 274 273 273 275 275 276 277 279 279 279 279 278 279 278 277 278 278 277 276 277 276 276 276
275 282 280 280 282 283 281 280 278 278 277 278 277 276 276 274 275 274 273 273 272 272 271 272 273 273 273 276 278 278 277 278 277 277 277 277 277 276 280 278 278 279 279 278
279 284 282 282 283 283 282 280 280 280 279 277 278 277 276 275 275 275 273 271 268 266 267 267 267 268 270 273 276 276 275 277 276 276 275 275 274 273 271 273 276 277 277 278
283 282 280 282 280 283 282 282 283 281 280 279 278 278 277 276 276 274 272 271 271 269 266 264 264 264 265 268 271 270 271 272 271 271 271 270 269 269 267 267 267 267 272 275
284 284 283 284 283 283 283 281 279 279 279 278 279 278 276 274 273 273 273 273 272 270 267 266 264 265 264 265 268 267 270 267 267 267 270 269 271 270 268 265 262 261 263 267
284 283 283 282 282 282 281 280 279 279 279 278 276 274 274 273 272 271 272 272 270 267 267 261 267 263 265 265 269 270 271 271 270 270 271 270 270 271 271 269 269 269 266 264
280 280 281 281 280 280 280 280 280 278 277 275 274 274 273 272 270 269 265 265 264 261 258 259 260 262 263 265 271 270 270 271 268 270 270 270 269 269 270 269 268 269 270 269
284 282 282 281 280 279 279 280 279 278 276 275 273 271 268 267 266 264 261 260 261 261 259 258 258 262 266 267 270 271 270 271 271 270 270 268 269 270 267 267 267 267 266 268
284 282 281 281 281 281 281 279 277 274 273 272 270 267 266 265 263 261 261 262 259 260 262 261 272 267 269 270 270 271 269 267 269 269 268 266 264 266 263 261 261 259 262 264
281 281 281 280 281 280 276 275 274 272 271 269 267 266 264 260 260 261 261 263 263 263 263 266 270 270 269 269 267 270 267 265 268 267 265 265 262 263 264 265 264 260 254 256
279 278 279 279 276 276 275 274 273 271 270 270 268 266 266 263 261 263 264 267 265 265 269 267 268 267 268 266 269 262 263 262 262 262 258 258 258 262 263 262 262 263 263 261
277 276 276 275 275 273 274 274 272 270 269 267 265 264 265 264 263 263 262 267 269 263 269 268 268 261 264 265 267 262 264 262 261 261 260 259 258 257 257 258 260 262 262 263
276 276 275 274 273 272 272 272 271 271 269 268 266 265 267 269 270 269 267 270 271 266 269 265 262 260 261 263 261 259 258 258 255 255 253 252 253 258 257 256 257 258 260 261
275 275 274 273 272 272 270 271 271 270 269 268 266 266 271 270 267 272 270 265 262 266 265 262 262 261 259 258 257 257 256 254 252 250 253 252 252 253 253 251 252 253 255 257
275 274 273 273 273 273 273 273 272 271 271 273 273 272 274 274 269 268 267 266 268 266 262 260 260 258 255 254 255 255 252 250 249 249 249 248 247 247 246 248 248 250 252 255
275 274 274 275 274 273 273 272 270 271 272 267 266 267 266 269 269 269 267 268 267 265 265 263 259 255 254 255 253 252 251 251 250 249 247 246 246 246 244 247 247 249 252 252
276 275 275 274 273 273 273 272 270 270 268 268 269 263 267 266 269 269 266 265 263 261 261 259 257 255 255 253 253 250 249 248 249 249 244 244 243 242 243 243 245 245 247 249

GFSNGP_sfc_thetae_117.txt.gz
Theta_e
286 286 286 285 286 287 285 285 280 281 282 287 286 284 284 283 283 282 282 282 282 281 282 283 283 283 284 284 284 285 284 284 284 284 284 285 284 284 283 283 284 284 284 285
281 286 287 283 285 283 286 287 286 284 284 288 286 285 283 282 282 281 280 281 281 281 282 282 283 283 284 284 283 284 283 283 283 283 282 282 283 282 282 281 281 282 282 283
279 284 285 280 282 283 283 283 284 280 283 285 283 283 282 281 281 279 280 280 280 281 282 283 283 284 283 284 283 282 281 281 280 280 279 279 280 280 279 280 280 279 279 280
278 280 274 280 287 287 283 282 284 283 284 284 281 281 281 280 281 279 279 280 280 281 281 282 283 285 285 285 283 282 281 281 280 279 278 277 277 277 277 277 277 277 278 279
274 276 279 281 283 281 281 279 282 282 281 280 280 279 278 282 281 279 277 278 279 281 281 279 280 282 285 284 284 282 280 280 280 279 277 276 274 274 275 276 276 276 278 278
278 273 271 276 285 288 284 272 281 281 279 278 278 271 275 281 280 278 277 281 280 277 275 278 280 281 281 281 281 281 280 279 279 280 277 275 274 274 274 274 275 277 277 278
276 274 276 283 287 287 271 274 280 281 280 278 275 273 279 281 278 280 282 278 279 278 277 279 281 281 278 278 278 280 282 280 279 279 278 277 276 276 275 275 275 275 276 278
277 273 270 284 285 278 277 279 278 275 276 280 278 278 278 279 279 280 278 278 278 277 277 278 278 279 278 277 277 279 280 279 278 278 278 278 276 275 276 276 275 276 275 276
278 275 281 283 280 280 280 279 276 275 277 278 277 276 277 275 274 275 276 276 277 276 276 276 277 277 277 278 280 280 279 277 277 277 278 277 276 274 275 275 275 275 274 274
278 279 280 281 282 282 281 279 277 277 277 277 274 275 272 273 272 271 272 273 274 275 274 275 276 277 277 278 280 280 278 278 278 278 278 278 277 275 274 275 275 275 273 272
278 280 281 282 281 281 280 280 279 279 277 275 274 273 274 273 271 271 269 272 274 274 274 273 274 275 275 277 278 278 278 277 277 277 276 276 277 275 274 275 275 274 274 272
276 281 280 280 281 282 280 280 279 277 276 276 276 274 274 272 273 273 271 272 271 271 271 271 272 272 273 275 277 277 276 276 275 275 275 275 274 273 276 277 277 277 277 275
281 283 281 282 282 283 281 279 279 278 277 276 276 276 275 274 273 274 271 269 266 265 266 266 267 268 269 273 275 275 274 275 274 274 273 272 271 270 267 270 275 276 276 276
283 282 280 280 279 282 280 279 281 279 278 278 277 277 276 275 274 272 271 270 270 268 266 264 264 265 265 267 269 267 267 269 268 268 266 266 263 264 262 262 258 263 269 273
282 283 282 282 283 282 281 280 278 277 277 277 278 277 276 274 272 271 272 272 272 269 267 265 265 263 262 261 266 265 268 265 262 261 262 264 266 265 267 266 266 265 262 266
282 282 282 281 281 280 280 278 277 277 277 277 276 275 274 273 272 272 271 271 270 267 266 261 265 260 261 263 265 268 267 268 267 268 267 268 268 268 268 267 266 266 267 267
279 279 280 280 280 279 279 279 279 279 278 276 274 274 273 272 270 268 266 266 263 259 259 259 259 258 262 265 269 269 268 269 266 269 268 268 267 267 267 266 265 265 264 262
282 282 282 282 281 279 279 280 280 279 276 275 273 270 267 267 266 264 262 259 259 261 259 258 258 262 265 266 269 270 269 270 270 269 269 267 267 268 266 265 265 264 263 264
283 281 280 281 280 280 280 279 277 275 273 272 270 267 265 265 265 262 259 261 260 262 263 261 271 267 268 270 269 269 268 266 268 267 267 264 263 265 263 263 263 262 261 262
280 281 281 280 281 280 278 276 274 273 272 270 268 266 264 262 263 263 260 263 263 264 263 266 269 269 269 268 267 268 266 263 266 263 261 262 258 257 259 259 260 260 261 262
277 278 278 279 278 278 276 274 273 271 270 270 268 267 266 263 263 262 263 267 266 265 269 267 267 266 267 267 266 260 261 259 258 257 254 253 253 255 254 255 255 256 259 260
277 277 276 276 276 274 275 274 273 271 271 270 269 268 266 264 263 263 263 268 269 265 268 268 266 261 264 264 264 259 260 259 257 256 255 253 253 251 250 251 251 254 256 258
276 277 277 275 274 273 273 273 272 271 270 269 268 268 269 269 270 269 268 270 270 265 269 266 261 259 259 259 257 254 255 254 253 251 250 250 248 247 247 247 249 248 250 254
275 276 274 273 273 273 271 272 272 271 270 269 269 269 270 269 267 272 270 267 266 265 265 263 259 258 256 255 253 253 252 249 247 247 250 248 244 244 244 243 246 247 248 250
274 274 273 274 274 273 273 273 272 271 271 271 271 271 272 273 269 268 268 265 267 266 262 258 257 255 254 252 253 250 247 246 245 245 244 243 243 242 241 241 242 243 247 246
275 275 275 276 275 274 273 273 271 271 272 270 269 269 268 270 269 267 265 265 266 263 263 258 255 253 252 252 250 248 247 249 246 245 243 243 242 243 241 242 241 242 243 244
276 275 275 274 274 274 274 273 271 271 271 270 268 262 267 266 266 267 266 266 264 263 261 256 255 253 252 250 249 247 246 245 245 245 241 241 240 239 239 239 239 240 240 241

GFSNGP_sfc_thetae_120.txt.gz
Theta_e
285 286 287 285 285 286 286 286 281 283 282 286 288 286 282 282 282 281 281 281 280 281 282 282 283 283 283 283 283 283 282 281 281 282 282 282 282 281 282 281 281 282 282 284
281 285 286 283 285 285 286 287 286 285 283 289 287 284 282 281 281 280 280 281 281 282 282 282 283 283 283 282 282 282 281 280 280 280 280 279 279 279 279 279 279 280 281 281
278 282 281 280 283 284 283 283 285 282 285 284 282 282 281 281 281 280 280 280 281 281 281 282 283 283 283 282 282 281 281 280 280 279 278 277 277 277 276 276 277 279 279 280
279 280 274 280 284 286 283 284 285 284 284 284 283 282 282 282 280 279 279 280 281 281 281 282 282 284 283 283 282 281 280 280 279 278 277 276 276 275 275 275 275 277 278 278
276 276 279 280 282 279 279 279 282 283 283 280 280 280 279 282 280 277 277 280 280 281 280 278 280 282 282 282 282 280 279 278 279 278 276 275 273 273 274 274 274 275 278 277
277 271 269 275 283 286 283 274 281 282 280 279 280 275 272 279 279 278 277 278 277 277 277 278 280 281 280 279 280 279 278 278 279 278 276 274 274 274 274 269 273 275 275 277
276 274 276 281 285 286 272 275 283 283 281 279 275 274 276 278 276 277 278 278 278 277 276 277 279 278 275 276 277 279 280 279 278 278 277 276 274 274 274 272 274 273 273 274
278 274 269 284 284 278 278 279 279 279 280 277 278 279 277 276 278 277 276 277 277 275 276 277 278 279 276 274 275 278 278 279 278 277 278 277 274 274 275 275 273 272 272 272
277 274 278 282 281 281 281 278 276 277 278 279 277 277 277 277 275 273 273 275 276 275 276 276 276 276 276 278 280 280 278 277 277 277 278 276 274 273 273 274 273 271 271 270
276 277 279 281 281 281 280 278 277 278 279 279 276 273 272 272 272 268 270 273 274 274 274 274 276 276 277 278 278 279 277 277 277 277 276 275 275 274 273 273 272 272 270 269
277 280 281 282 282 280 278 278 277 277 278 276 274 273 273 272 271 270 268 270 274 274 273 273 274 274 275 276 277 277 276 276 276 275 275 274 273 273 273 274 274 272 270 270
277 282 281 280 281 281 278 277 277 276 275 276 275 274 273 272 273 272 269 271 271 271 271 271 272 272 273 275 277 276 275 275 274 274 273 273 272 271 275 276 276 276 276 274
280 283 282 282 281 281 279 278 278 277 276 275 275 274 274 273 272 273 270 268 266 265 266 267 266 267 268 273 275 274 273 273 272 272 271 270 269 268 266 269 274 274 275 275
282 282 280 281 280 281 279 279 280 277 277 276 275 275 275 273 272 271 269 269 269 267 265 263 265 263 263 266 268 266 266 267 266 266 265 264 259 260 258 260 258 262 268 272
282 282 282 281 281 280 279 278 277 276 276 276 276 275 274 272 271 270 271 272 271 268 267 266 266 262 262 264 265 262 263 261 260 262 262 262 263 263 262 262 262 263 264 267
281 281 281 280 279 279 278 278 277 276 276 276 276 275 274 272 271 271 271 271 269 267 266 264 266 261 261 261 263 264 264 266 266 266 266 266 265 265 266 265 265 264 264 264
279 278 279 279 278 278 278 278 278 278 277 276 275 274 273 271 270 268 266 266 264 262 259 263 261 259 261 262 267 266 266 268 266 268 267 266 265 266 265 265 264 264 263 261
282 282 282 281 279 279 278 279 279 278 277 275 273 271 269 268 266 264 262 261 262 262 260 258 259 261 262 263 266 268 268 269 268 267 267 264 265 265 263 263 262 261 261 262
281 281 281 281 280 280 279 279 279 277 273 272 270 269 267 265 264 262 259 263 263 263 262 260 271 267 268 268 268 268 267 265 266 264 264 261 260 261 260 259 259 258 260 261
279 280 280 280 280 279 278 277 275 273 272 271 267 266 265 263 263 260 260 263 263 263 264 266 269 269 269 267 266 266 264 262 264 262 259 259 254 253 255 256 257 256 254 257
276 276 276 278 277 277 276 275 273 271 271 271 269 267 266 264 264 262 264 266 264 265 268 267 268 267 267 265 264 259 259 257 256 255 252 249 249 251 249 248 249 250 252 254
272 273 274 276 276 274 275 274 273 271 271 270 268 268 266 265 264 264 263 268 268 265 268 268 267 263 264 263 263 258 259 258 255 254 251 250 247 245 244 244 245 247 247 248
271 273 274 275 275 274 274 273 273 272 270 270 269 268 268 268 269 268 267 270 270 266 268 266 261 259 258 257 255 253 253 251 250 250 247 244 243 242 243 243 243 243 245 248
272 274 273 274 273 273 272 272 273 272 271 271 271 270 270 269 269 272 271 268 267 267 265 261 259 258 256 254 252 250 249 247 246 245 246 244 240 240 241 240 242 243 243 244
273 273 273 274 274 274 273 273 272 271 271 271 271 271 272 273 270 269 269 267 267 265 261 258 257 255 254 252 250 249 245 244 243 243 242 242 241 240 239 239 239 240 240 242
275 274 275 276 275 274 273 273 271 271 271 270 270 269 270 270 269 268 267 266 265 262 259 254 254 254 252 251 249 246 247 248 244 243 242 242 240 241 239 240 239 239 239 239
276 276 275 274 275 274 274 273 272 271 272 271 269 268 268 267 267 266 265 264 262 260 257 256 256 254 253 249 248 248 247 244 243 244 240 240 239 238 238 238 237 238 238 238

GFSNGP_sfc_thetae_123.txt.gz
Theta_e
288 288 288 288 287 288 287 288 283 286 286 290 290 290 291 287 284 283 283 282 283 283 283 283 283 284 284 284 284 284 283 282 282 283 282 283 283 283 283 283 283 283 283 283
284 287 288 285 288 288 288 288 288 289 287 293 294 293 285 285 284 283 282 282 282 282 282 283 283 283 284 284 284 284 282 281 281 281 281 281 281 281 282 281 282 282 281 281
280 285 285 281 285 287 287 289 288 284 290 289 287 286 285 285 284 283 282 282 282 282 283 283 284 284 283 283 284 283 282 281 281 280 279 279 280 280 280 280 280 280 280 280
281 283 275 285 287 288 287 289 289 288 289 289 289 287 286 286 284 283 282 282 282 282 282 283 284 285 285 284 283 282 281 280 280 279 279 279 279 278 278 279 278 278 279 279
279 278 281 284 285 284 284 285 288 288 286 284 283 284 281 284 284 283 283 282 282 282 282 282 282 284 284 283 281 281 280 279 279 278 277 277 276 277 278 278 278 278 278 278
280 276 274 283 286 288 287 280 287 288 284 282 283 280 282 282 282 281 282 281 280 280 280 280 281 282 281 281 280 279 279 279 280 279 277 276 277 278 279 278 277 278 277 277
278 277 280 286 287 287 279 283 286 287 284 283 284 284 282 281 280 281 280 280 281 280 278 278 280 280 279 279 278 280 281 280 280 279 278 277 278 278 278 277 276 275 275 276
280 277 275 287 286 282 286 282 286 284 284 281 279 279 278 278 279 278 278 279 280 279 279 280 282 281 279 278 280 281 281 280 279 278 278 278 277 277 277 276 275 274 274 275
282 282 282 285 284 284 284 283 283 284 283 282 279 277 278 278 277 276 278 279 279 279 279 279 280 281 279 280 281 281 280 278 278 278 278 278 277 276 276 276 275 274 274 273
282 282 282 284 283 284 284 283 282 283 282 281 278 279 278 277 276 276 277 278 279 278 277 277 279 279 279 280 281 280 278 278 278 278 276 277 277 277 276 275 275 273 272 273
280 281 282 284 284 284 281 282 282 283 282 280 278 277 277 276 275 275 276 277 278 277 277 276 277 278 279 280 279 278 278 277 277 277 276 275 276 276 275 276 275 274 274 273
283 286 285 284 285 282 280 280 281 280 279 279 279 277 277 276 276 276 275 276 276 276 275 275 276 276 277 279 279 278 276 276 276 276 275 275 274 274 275 275 275 275 275 275
285 286 284 284 283 283 280 279 280 280 279 278 278 278 277 276 275 275 275 273 272 271 271 272 272 271 273 277 277 276 275 275 275 274 274 273 272 272 271 273 273 274 273 274
284 284 280 282 280 281 280 280 281 279 279 278 278 278 277 275 275 274 273 272 272 271 270 270 269 268 270 273 272 271 272 270 273 273 273 272 272 271 271 269 269 270 272 272
284 284 284 283 282 280 280 279 278 277 277 277 278 277 276 274 273 273 273 274 273 272 270 270 269 268 269 271 271 272 273 272 272 272 272 272 272 272 271 271 270 270 271 271
282 282 282 281 280 279 279 279 278 277 278 277 277 276 275 274 273 273 274 273 272 271 271 269 270 268 270 271 272 272 272 270 272 273 273 272 272 271 270 270 270 270 269 267
280 279 280 279 279 279 279 280 279 278 278 277 276 276 274 273 272 271 271 271 269 269 269 270 268 266 269 272 273 273 274 273 271 272 271 271 270 269 268 268 267 267 267 266
284 284 283 282 280 280 279 280 279 279 278 277 275 273 271 270 270 268 267 266 266 265 268 268 269 269 270 272 273 273 273 272 271 270 269 268 268 267 267 266 265 265 266 266
284 283 283 282 281 280 280 279 279 278 275 274 272 271 271 269 268 267 266 267 267 268 268 268 273 272 272 272 272 272 271 270 269 268 267 265 265 265 264 264 264 263 264 264
282 283 282 282 282 281 280 279 277 275 274 274 271 269 268 267 267 265 267 269 271 272 270 272 273 272 272 271 270 270 269 269 267 266 265 264 263 262 262 260 261 261 262 262
280 279 278 278 277 278 278 277 275 273 272 272 271 270 268 267 267 267 267 269 268 269 271 271 272 271 270 269 268 267 267 265 265 264 263 262 262 261 260 259 259 259 259 259
276 275 275 276 276 276 276 276 275 273 272 272 270 268 267 267 266 268 270 271 271 269 271 272 271 269 268 267 267 266 265 264 263 263 262 261 260 259 258 258 257 257 257 258
275 276 275 274 275 275 275 275 274 274 272 271 270 269 269 270 270 270 269 271 271 270 272 271 267 264 264 266 265 264 263 262 261 260 260 259 258 257 257 256 256 256 256 256
275 276 275 275 275 275 273 274 274 274 273 272 272 272 271 271 271 274 274 271 271 271 270 266 265 263 264 264 263 262 261 261 260 259 258 254 257 256 256 254 255 255 254 254
276 275 275 275 275 275 275 274 274 273 273 273 272 272 273 274 274 273 273 272 270 269 268 262 262 261 264 263 262 261 260 260 259 259 258 257 256 255 255 254 253 253 253 253
277 277 277 278 277 276 275 274 273 274 273 272 272 274 274 274 273 272 271 270 269 266 266 263 263 263 262 261 261 260 259 258 257 257 256 256 255 255 253 253 253 253 252 252
277 277 277 276 276 275 275 275 274 273 273 273 272 273 272 272 271 271 269 269 267 266 264 263 262 262 262 261 260 259 258 258 255 257 256 255 254 253 252 252 252 252 252 251

GFSNGP_sfc_thetae_126.txt.gz
Theta_e
289 291 291 290 290 291 289 290 286 289 289 293 296 297 297 296 294 290 289 289 289 288 286 286 286 287 288 288 289 289 288 286 286 287 287 287 286 287 287 287 287 287 287 288
285 289 289 287 290 290 290 291 290 290 290 297 299 300 297 295 291 289 288 288 288 287 286 285 285 287 287 287 287 287 286 285 285 285 285 285 285 286 286 286 285 285 285 286
281 287 287 283 288 289 291 292 292 288 293 297 296 297 296 295 292 290 288 287 286 285 285 285 285 287 287 287 287 286 285 284 284 284 283 283 283 283 284 284 284 282 283 284
282 284 276 288 293 293 291 293 294 294 295 296 297 300 300 297 293 290 288 287 286 285 285 286 286 286 287 287 286 285 284 282 283 282 282 282 282 281 282 282 281 281 280 281
280 280 284 287 290 289 288 288 294 293 295 296 295 293 289 293 293 290 288 286 286 286 285 285 285 286 286 285 284 284 282 281 281 281 280 280 280 280 281 281 281 280 280 279
282 278 275 287 292 294 292 284 294 295 295 291 289 285 289 289 289 287 286 285 284 284 284 283 285 286 284 283 283 281 281 282 282 281 279 279 280 280 280 281 280 281 280 279
281 279 283 291 291 293 282 286 292 295 295 291 288 290 288 288 285 284 284 284 284 283 281 282 284 284 282 282 281 282 283 282 281 281 280 280 281 281 280 280 280 279 280 280
282 279 277 291 290 284 291 290 293 293 293 290 286 284 283 283 282 282 282 282 283 282 282 284 285 284 281 280 282 282 282 281 280 280 281 281 280 281 280 280 279 279 279 279
285 286 290 293 291 291 291 291 292 292 291 288 283 281 282 281 280 281 281 282 283 283 284 285 285 285 282 283 283 282 281 279 280 280 280 281 280 280 280 280 279 278 278 278
285 290 289 291 291 291 291 291 292 292 289 287 281 281 281 280 280 280 281 283 284 284 283 283 283 283 284 283 284 283 281 281 281 279 279 280 280 280 279 278 278 278 277 276
287 288 288 290 292 292 289 290 290 290 289 284 282 281 281 280 280 280 281 283 284 283 283 282 283 282 283 283 283 281 280 280 280 279 279 278 278 278 278 277 276 276 276 276
287 292 292 291 293 291 288 288 289 288 285 286 285 282 282 280 281 281 280 282 281 281 281 281 282 282 282 282 282 281 279 279 279 279 279 278 278 276 275 275 275 275 275 275
291 292 289 290 290 290 288 288 288 287 287 284 284 284 283 281 282 281 281 280 279 278 278 279 278 278 280 281 281 279 279 278 278 278 277 277 277 276 276 275 273 273 273 274
291 289 285 287 285 287 286 286 287 287 286 285 284 284 283 282 281 280 279 279 278 277 276 276 275 274 277 278 277 275 276 276 278 277 277 277 276 276 276 275 274 275 274 273
288 288 288 288 286 285 285 284 283 283 283 283 284 283 282 280 279 279 279 279 278 277 276 275 273 273 275 276 276 276 277 277 277 277 276 275 277 277 276 275 275 275 275 273
287 287 287 285 284 284 283 283 282 282 282 282 282 281 281 281 279 278 278 279 277 276 276 274 274 274 274 275 275 276 275 274 276 277 277 276 276 275 274 274 273 273 272 270
284 283 284 283 283 283 283 284 284 283 282 282 281 281 280 278 277 277 277 277 277 275 275 275 273 272 274 276 277 278 278 276 273 276 275 275 274 273 273 272 271 272 271 268
288 288 288 287 284 283 283 283 283 283 282 282 280 278 276 275 275 274 274 274 273 273 275 275 274 273 274 275 277 277 276 275 275 274 273 272 272 272 271 271 270 269 270 269
287 287 287 286 286 285 283 282 282 282 281 278 276 274 275 275 273 272 273 272 271 271 272 273 274 275 275 275 275 276 275 274 273 272 271 269 270 270 269 270 269 269 268 268
286 286 286 285 285 284 282 283 281 279 277 276 275 274 273 272 271 271 272 273 275 277 274 275 275 275 275 274 273 275 274 273 271 271 270 269 269 268 268 265 266 267 267 267
284 284 283 282 282 283 281 280 278 276 277 275 274 273 272 271 271 272 273 273 274 274 276 275 276 275 274 273 273 274 272 271 270 270 269 268 268 268 267 266 266 266 265 265
282 281 281 281 280 280 280 280 279 277 275 275 274 273 271 271 271 272 275 275 274 273 275 275 275 274 273 271 272 272 271 270 270 269 269 268 268 267 266 265 264 264 264 264
282 281 281 279 280 280 280 279 278 277 276 274 272 272 273 272 273 272 272 275 275 274 276 276 272 270 270 272 271 270 269 268 268 267 267 266 266 266 265 264 263 263 262 261
282 282 281 281 280 279 278 278 279 278 277 276 275 274 274 273 275 277 277 275 274 274 276 272 270 269 270 271 270 269 268 268 267 266 264 260 265 264 264 262 262 262 261 260
282 281 280 280 280 281 280 279 278 278 277 276 275 275 275 276 276 277 276 275 273 274 274 269 268 268 271 270 269 267 267 267 266 266 265 265 264 263 263 262 260 260 259 259
281 283 283 282 283 282 281 279 279 278 278 276 276 277 277 278 278 277 276 274 274 273 272 269 269 270 270 269 267 266 266 264 263 264 263 263 262 262 261 260 259 259 259 258
282 282 282 281 281 281 281 280 279 278 278 277 276 277 277 277 276 275 274 274 273 273 271 271 270 269 269 267 266 265 265 265 262 263 263 263 262 262 260 259 259 259 258 257

GFSNGP_sfc_thetae_129.txt.gz
Theta_e
291 292 291 290 290 292 291 292 287 291 290 296 297 298 300 302 300 297 295 295 295 294 292 290 290 290 291 291 291 292 291 290 289 289 289 289 289 289 289 288 288 288 288 288
287 291 290 288 290 291 290 292 291 292 292 299 300 300 300 301 299 296 295 294 294 293 291 290 289 290 290 291 290 290 288 287 288 288 287 287 287 287 287 286 286 286 286 285
283 288 287 283 288 289 290 292 291 288 293 298 297 297 299 301 300 297 295 294 292 291 290 289 289 290 289 290 290 288 287 287 286 286 285 285 285 285 284 284 284 283 283 284
283 285 276 289 294 293 291 293 295 294 296 297 298 300 302 303 301 296 294 292 290 290 289 288 289 289 290 290 289 287 285 284 285 284 283 284 283 282 283 283 282 281 281 281
280 280 284 287 291 292 291 290 295 294 296 297 298 300 298 302 300 297 293 292 289 289 288 288 287 287 289 288 287 285 283 282 282 282 281 282 281 281 282 282 282 281 281 280
283 278 276 288 293 296 296 285 296 296 296 296 298 292 296 298 296 293 290 289 288 287 287 286 287 287 286 285 285 282 283 283 283 282 281 281 281 281 282 283 282 283 281 281
282 279 283 291 293 296 283 287 296 297 297 297 295 294 297 293 288 287 288 287 286 285 284 284 286 287 284 284 282 283 283 283 283 283 282 282 282 282 282 282 282 282 282 282
283 280 278 294 293 287 295 296 296 297 298 297 291 290 287 285 284 285 285 285 285 284 284 286 286 285 282 281 283 284 283 281 281 282 282 282 282 283 282 283 281 281 281 281
286 286 293 296 295 298 296 295 296 296 297 292 287 285 284 283 284 284 284 284 285 284 285 287 287 286 283 283 283 283 281 280 281 281 282 282 281 281 281 282 281 280 279 279
288 291 293 295 297 296 296 295 296 297 296 291 285 284 283 283 283 283 284 284 285 286 285 286 287 286 286 286 286 285 283 282 281 281 281 281 282 280 279 278 279 278 278 276
289 292 293 294 297 297 295 295 295 295 293 287 285 284 283 282 282 283 284 285 286 285 285 285 285 285 286 285 285 283 282 282 281 281 281 279 277 278 278 276 276 275 276 276
287 293 293 294 297 297 294 293 294 293 290 288 287 284 284 283 283 283 284 285 285 285 285 284 284 284 284 285 284 283 281 281 281 281 280 280 279 277 275 275 275 275 275 275
293 295 294 294 296 297 294 293 293 292 290 287 286 286 284 283 283 283 284 284 284 284 284 284 284 283 283 284 284 283 281 280 279 280 279 279 279 278 277 274 274 274 274 274
295 293 290 292 291 293 293 293 293 292 290 288 287 286 285 283 283 282 282 282 282 281 280 279 278 278 280 280 279 278 279 279 280 280 279 279 278 278 278 277 276 277 274 274
293 293 292 293 292 290 291 290 289 287 287 286 286 285 284 283 282 283 283 282 280 279 278 277 275 276 278 278 278 278 279 279 279 279 279 278 279 278 277 277 276 276 276 274
291 291 291 289 289 288 288 287 287 286 285 285 285 284 284 284 284 282 281 281 279 277 277 275 275 276 277 278 278 278 278 277 278 279 278 278 277 276 276 276 275 275 274 271
289 287 288 287 286 286 286 287 287 286 285 284 284 285 285 283 281 280 280 281 280 278 276 276 274 276 277 278 279 280 278 277 275 277 277 276 276 274 274 274 273 273 273 269
291 291 290 289 287 287 286 287 286 285 284 285 284 283 281 280 280 279 279 278 277 276 277 275 275 275 277 278 279 279 278 277 277 275 275 274 274 273 273 273 271 271 271 271
290 290 290 289 288 287 286 285 285 285 285 282 280 279 280 280 278 277 277 275 275 275 275 275 275 276 277 277 278 278 277 276 275 274 273 271 273 272 271 271 271 271 271 270
288 289 289 288 287 287 285 285 284 282 281 280 278 277 276 276 276 275 275 275 277 278 276 276 277 277 276 275 275 277 276 275 274 273 273 272 272 271 271 268 269 270 270 269
286 286 285 284 284 285 284 284 282 279 279 278 277 276 275 274 275 275 275 276 276 276 277 276 277 277 276 275 276 276 275 274 273 272 272 271 271 271 271 270 270 269 269 268
284 283 282 283 282 282 282 282 281 280 279 278 277 275 273 273 274 276 279 278 277 276 276 277 277 276 275 274 275 275 274 272 272 272 271 271 271 271 270 269 268 268 268 267
283 283 282 282 281 281 281 281 280 279 278 277 275 274 274 274 275 275 274 277 277 276 277 277 274 272 272 275 275 273 272 271 271 271 270 270 270 269 269 268 267 267 266 265
283 283 282 283 283 281 279 280 280 280 279 278 277 276 276 275 276 278 279 277 276 277 278 273 272 272 273 274 273 272 271 271 270 270 269 264 268 267 267 266 265 266 265 263
283 282 282 281 281 281 281 281 280 279 278 278 277 278 278 279 278 279 278 277 276 277 275 272 271 271 274 273 272 271 271 270 270 269 268 268 266 266 266 266 264 264 263 263
285 285 284 284 284 284 283 282 281 280 280 278 278 278 279 279 279 279 278 277 276 276 274 272 272 273 273 272 271 270 270 268 266 267 266 266 266 265 264 263 263 263 263 262
285 285 284 283 284 284 284 283 282 280 281 280 278 279 279 280 280 278 277 276 277 275 273 272 272 273 272 271 270 269 269 268 267 266 266 266 265 265 264 263 263 263 262 261